[[{"header":{"parameterUnit":"m.s-1","parameterCategory":1,"la1":31.0,"la2":29.5877,"lo1":-88.7671,"lo2":-86.6584,"dy":0.0162,"dx":0.0185,"nx":115,"ny":88,"refTime":"2024-07-08T12:00:00:Z","depth":0,"parameterNumber":2,"parameterNumberName":"U-component_of_WINDS"},"data":[0.0,0.0,0.0,0.0,0.0,0.0,0.0,0.0,0.0,0.0,0.0,0.0,0.0,0.0,0.0,0.0,0.0,0.0,0.0,0.0,0.0,0.0,0.0,0.0,0.0,0.0,0.0,0.0,0.0,0.0,0.0,0.0,0.0,0.0,0.0,0.0,0.0,0.0,0.0,0.0,0.0,0.0,0.0,0.0,0.0,0.0,0.0,0.0,0.0,0.0,0.0,0.0,0.0,0.0,0.0,0.0,0.0,0.0,0.0,0.0,0.0,0.0,0.0,0.0,0.0,0.0,0.0,0.0,0.0,0.0,0.0,0.0,0.0,0.0,0.0,0.0,0.0,0.0,0.0,0.0,0.0,0.0,0.0,0.0,0.0,0.0,0.0,0.0,0.0,0.0,0.0,0.0,0.0,0.0,0.0,0.0,0.0,0.0,0.0,0.0,0.0,0.0,0.0,0.0,0.0,0.0,0.0,0.0,0.0,0.0,0.0,0.0,0.0,0.0,0.0,0.0,0.0,0.0,0.0,0.0,0.0,0.0,0.0,0.0,0.0,0.0,0.0,0.0,0.0,0.0,0.0,0.0,0.0,0.0,0.0,0.0,0.0,0.0,0.0,0.0,0.0,0.0,0.0,0.0,0.0,0.0,0.0,0.0,0.0,0.0,0.0,0.0,0.0,0.0,0.0,0.0,0.0,0.0,0.0,0.0,0.0,0.0,0.0,0.0,0.0,0.0,0.0,0.0,0.0,0.0,0.0,0.0,0.0,0.0,0.0,0.0,0.0,0.0,0.0,0.0,0.0,0.0,0.0,0.0,0.0,0.0,0.0,0.0,0.0,0.0,0.0,0.0,0.0,0.0,0.0,0.0,0.0,0.0,0.0,0.0,0.0,0.0,0.0,0.0,0.0,0.0,0.0,0.0,0.0,0.0,0.0,0.0,0.0,0.0,0.0,0.0,0.0,0.0,0.0,0.0,0.0,0.0,0.0,0.0,0.0,0.0,0.0,0.0,0.0,0.0,0.0,0.0,0.0,0.0,0.0,0.0,0.0,0.0,0.0,0.0,0.0,0.0,0.0,0.0,0.0,0.0,0.0,0.0,0.0,0.0,0.0,0.0,0.0,0.0,0.0,0.0,0.0,0.0,0.0,0.0,0.0,0.0,0.0,0.0,0.0,0.0,0.0,0.0,0.0,0.0,0.0,0.0,0.0,0.0,0.0,0.0,0.0,0.0,0.0,0.0,0.0,0.0,0.0,0.0,0.0,0.0,0.0,0.0,0.0,0.0,0.0,0.0,0.0,0.0,0.0,0.0,0.0,0.0,0.0,0.0,0.0,0.0,0.0,0.0,0.0,0.0,0.0,0.0,0.0,0.0,0.0,0.0,0.0,0.0,0.0,0.0,0.0,0.0,0.0,0.0,0.0,0.0,0.0,0.0,0.0,0.0,0.0,0.0,0.0,0.0,0.0,0.0,0.0,0.0,0.0,0.0,0.0,0.0,0.0,0.0,0.0,0.0,0.0,0.0,0.0,0.0,0.0,0.0,0.0,0.0,0.0,0.0,0.0,0.0,0.0,0.0,0.0,0.0,0.0,0.0,0.0,0.0,0.0,0.0,0.0,0.0,0.0,0.0,0.0,0.0,0.0,0.0,0.0,0.0,0.0,0.0,0.0,0.0,0.0,0.0,0.0,0.0,0.0,0.0,0.0,0.0,0.0,0.0,0.0,0.0,0.0,0.0,0.0,0.0,0.0,0.0,0.0,0.0,0.0,0.0,0.0,0.0,0.0,0.0,0.0,0.0,0.0,0.0,0.0,0.0,0.0,0.0,0.0,0.0,0.0,0.0,0.0,0.0,0.0,0.0,0.0,0.0,0.0,0.0,0.0,0.0,0.0,0.0,0.0,0.0,0.0,0.0,0.0,0.0,0.0,0.0,0.0,0.0,0.0,0.0,0.0,0.0,0.0,0.0,0.0,0.0,0.0,0.0,0.0,0.0,0.0,0.0,0.0,0.0,0.0,0.0,0.0,0.0,0.0,0.0,0.0,0.0,0.0,0.0,0.0,0.0,0.0,0.0,0.0,0.0,0.0,0.0,0.0,0.0,0.0,0.0,0.0,0.0,0.0,0.0,0.0,0.0,0.0,0.0,0.0,0.0,0.0,0.0,0.0,0.0,0.0,0.0,0.0,0.0,0.0,0.0,0.0,0.0,0.0,0.0,0.0,0.0,0.0,0.0,0.0,0.0,0.0,0.0,0.0,0.0,0.0,0.0,0.0,0.0,0.0,0.0,0.0,0.0,0.0,0.0,0.0,0.0,0.0,0.0,0.0,0.0,0.0,0.0,0.0,0.0,0.0,0.0,0.0,0.0,0.0,0.0,0.0,0.0,0.0,0.0,0.0,0.0,0.0,0.0,0.0,0.0,0.0,0.0,0.0,0.0,0.0,0.0,0.0,0.0,0.0,0.0,0.0,0.0,0.0,0.0,0.0,0.0,0.0,0.0,0.0,0.0,0.0,0.0,0.0,0.0,0.0,0.0,0.0,0.0,0.0,0.0,0.0,0.0,0.0,0.0,0.0,0.0,0.0,0.0,0.0,0.0,0.0,0.0,0.0,0.0,0.0,0.0,0.0,0.0,0.0,0.0,0.0,0.0,0.0,0.0,0.0,0.0,0.0,0.0,0.0,0.0,0.0,0.0,0.0,0.0,0.0,0.0,0.0,0.0,0.0,0.0,0.0,0.0,0.0,0.0,0.0,0.0,0.0,0.0,0.0,0.0,0.0,0.0,0.0,0.0,0.0,0.0,0.0,0.0,0.0,0.0,0.0,0.0,0.0,0.0,0.0,0.0,0.0,0.0,0.0,0.0,0.0,0.0,0.0,0.0,0.0,0.0,0.0,0.0,0.0,0.0,0.0,0.0,0.0,0.0,0.0,0.0,0.0,0.0,0.0,0.0,0.0,0.0,0.0,0.0,0.0,0.0,0.0,0.0,0.0,0.0,0.0,0.0,0.0,0.0,0.0,0.0,0.0,0.0,0.0,0.0,0.0,0.0,0.0,0.0,0.0,0.0,0.0,0.0,0.0,0.0,0.0,0.0,0.0,0.0,0.0,0.0,0.0,0.0,0.0,0.0,0.0,0.0,0.0,0.0,0.0,0.0,0.0,0.0,0.0,0.0,0.0,0.0,0.0,0.0,0.0,0.0,0.0,0.0,0.0,0.0,0.0,0.0,0.0,0.0,0.0,0.0,0.0,0.0,0.0,0.0,0.0,0.0,0.0,0.0,0.0,0.0,0.0,0.0,0.0,0.0,0.0,0.0,0.0,0.0,0.0,0.0,0.0,0.0,0.0,0.0,0.0,0.0,0.0,0.0,0.0,0.0,0.0,0.0,0.0,0.0,0.0,0.0,0.0,0.0,0.0,0.0,0.0,0.0,0.0,0.0,0.0,0.0,0.0,0.0,0.0,0.0,0.0,0.0,0.0,0.0,0.0,0.0,0.0,0.0,0.0,0.0,0.0,0.0,0.0,0.0,0.0,0.0,0.0,0.0,0.0,0.0,0.0,0.0,0.0,0.0,0.0,0.0,0.0,0.0,0.0,0.0,0.0,0.0,0.0,0.0,0.0,0.0,0.0,0.0,0.0,0.0,0.0,0.0,0.0,0.0,0.0,0.0,0.0,0.0,0.0,0.0,0.0,0.0,0.0,0.0,0.0,0.0,0.0,0.0,0.0,0.0,0.0,0.0,0.0,0.0,0.0,0.0,0.0,0.0,0.0,0.0,0.0,0.0,0.0,0.0,0.0,0.0,0.0,0.0,0.0,0.0,0.0,0.0,0.0,0.0,0.0,0.0,0.0,0.0,0.0,0.0,0.0,0.0,0.0,0.0,0.0,0.0,0.0,0.0,0.0,0.0,0.0,0.0,0.0,0.0,0.0,0.0,0.0,0.0,0.0,0.0,0.0,0.0,0.0,0.0,0.0,0.0,0.0,0.0,0.0,0.0,0.0,0.0,0.0,0.0,0.0,0.0,0.0,0.0,0.0,0.0,0.0,0.0,0.0,0.0,0.0,0.0,0.0,0.0,0.0,0.0,0.0,0.0,0.0,0.0,0.0,0.0,0.0,0.0,0.0,0.0,0.0,0.0,0.0,0.0,0.0,0.0,0.0,0.0,0.0,0.0,0.0,0.0,0.0,0.0,0.0,0.0,0.0,0.0,0.0,0.0,0.0,0.0,0.0,0.0,0.0,0.0,0.0,0.0,0.0,0.0,0.0,0.0,0.0,0.0,-3.1073,0.0,0.0,0.0,0.0,0.0,0.0,0.0,0.0,0.0,0.0,0.0,0.0,0.0,0.0,0.0,0.0,0.0,0.0,0.0,0.0,0.0,0.0,0.0,0.0,0.0,0.0,0.0,0.0,0.0,0.0,0.0,0.0,0.0,0.0,0.0,0.0,0.0,0.0,0.0,0.0,0.0,0.0,0.0,0.0,0.0,0.0,0.0,0.0,0.0,0.0,0.0,0.0,0.0,0.0,0.0,0.0,0.0,0.0,0.0,0.0,0.0,0.0,0.0,0.0,0.0,0.0,0.0,0.0,0.0,0.0,0.0,0.0,0.0,0.0,0.0,0.0,0.0,0.0,0.0,0.0,0.0,0.0,0.0,0.0,0.0,0.0,0.0,0.0,0.0,0.0,0.0,0.0,0.0,0.0,0.0,0.0,0.0,0.0,0.0,0.0,0.0,0.0,0.0,0.0,0.0,0.0,0.0,0.0,0.0,0.0,-3.8094,-3.7433,-3.6015,-3.4023,-3.1394,0.0,0.0,0.0,0.0,0.0,0.0,0.0,0.0,0.0,0.0,0.0,0.0,0.0,0.0,0.0,0.0,0.0,0.0,0.0,0.0,0.0,0.0,0.0,0.0,0.0,0.0,0.0,0.0,0.0,0.0,0.0,0.0,0.0,0.0,0.0,0.0,0.0,0.0,0.0,0.0,0.0,0.0,0.0,0.0,0.0,0.0,0.0,0.0,0.0,0.0,0.0,0.0,0.0,0.0,0.0,0.0,0.0,0.0,0.0,0.0,0.0,0.0,0.0,0.0,0.0,0.0,0.0,0.0,0.0,0.0,0.0,0.0,0.0,0.0,0.0,0.0,0.0,0.0,0.0,0.0,0.0,0.0,0.0,0.0,0.0,0.0,0.0,0.0,0.0,0.0,0.0,0.0,0.0,0.0,0.0,0.0,0.0,0.0,0.0,0.0,0.0,0.0,0.0,0.0,0.0,0.0,0.0,0.0,0.0,0.0,0.0,0.0,-3.7799,-3.5318,-3.262,0.0,0.0,0.0,0.0,0.0,0.0,0.0,0.0,0.0,0.0,0.0,0.0,0.0,0.0,0.0,0.0,0.0,0.0,0.0,0.0,0.0,0.0,0.0,0.0,0.0,0.0,0.0,0.0,0.0,0.0,0.0,0.0,0.0,0.0,0.0,0.0,0.0,0.0,0.0,0.0,0.0,0.0,0.0,0.0,0.0,0.0,0.0,0.0,0.0,0.0,0.0,0.0,0.0,0.0,0.0,0.0,0.0,0.0,0.0,0.0,0.0,0.0,0.0,0.0,0.0,0.0,0.0,0.0,0.0,0.0,0.0,0.0,0.0,0.0,0.0,0.0,0.0,0.0,0.0,0.0,0.0,0.0,0.0,0.0,0.0,0.0,0.0,0.0,0.0,0.0,0.0,0.0,0.0,0.0,0.0,0.0,0.0,0.0,0.0,0.0,0.0,0.0,0.0,0.0,0.0,0.0,0.0,0.0,0.0,0.0,-4.1245,-4.2322,-4.1548,0.0,-3.5521,0.0,0.0,0.0,0.0,0.0,0.0,0.0,0.0,0.0,0.0,0.0,0.0,0.0,0.0,0.0,0.0,0.0,0.0,0.0,0.0,0.0,0.0,0.0,0.0,0.0,0.0,0.0,0.0,0.0,0.0,0.0,0.0,0.0,0.0,0.0,0.0,0.0,0.0,0.0,0.0,0.0,0.0,0.0,0.0,0.0,0.0,0.0,0.0,0.0,0.0,0.0,0.0,0.0,0.0,0.0,0.0,0.0,0.0,0.0,0.0,0.0,0.0,0.0,0.0,0.0,0.0,0.0,0.0,0.0,0.0,0.0,0.0,0.0,0.0,0.0,0.0,0.0,0.0,0.0,0.0,0.0,0.0,0.0,0.0,0.0,0.0,0.0,0.0,0.0,0.0,0.0,0.0,0.0,0.0,0.0,0.0,0.0,0.0,0.0,0.0,0.0,0.0,0.0,0.0,0.0,0.0,0.0,0.0,0.0,0.0,-4.2724,-4.3578,-3.97,-3.6626,0.0,0.0,0.0,0.0,0.0,0.0,0.0,0.0,0.0,0.0,0.0,0.0,0.0,0.0,0.0,0.0,0.0,0.0,0.0,0.0,0.0,0.0,0.0,0.0,0.0,0.0,0.0,0.0,0.0,0.0,0.0,0.0,0.0,0.0,0.0,0.0,0.0,0.0,0.0,0.0,0.0,0.0,0.0,0.0,0.0,0.0,0.0,0.0,0.0,0.0,0.0,0.0,0.0,0.0,0.0,0.0,0.0,0.0,0.0,0.0,0.0,0.0,0.0,0.0,0.0,0.0,0.0,0.0,0.0,0.0,0.0,0.0,0.0,0.0,0.0,0.0,0.0,0.0,0.0,0.0,0.0,0.0,0.0,0.0,0.0,0.0,0.0,0.0,0.0,0.0,0.0,0.0,0.0,0.0,0.0,0.0,0.0,0.0,0.0,0.0,0.0,0.0,0.0,0.0,0.0,0.0,0.0,0.0,0.0,0.0,-4.3596,-4.4244,-4.4587,-4.0404,-3.6941,-3.4598,0.0,0.0,0.0,0.0,0.0,0.0,0.0,0.0,0.0,0.0,0.0,0.0,0.0,0.0,0.0,0.0,0.0,0.0,0.0,0.0,0.0,0.0,0.0,0.0,0.0,0.0,0.0,0.0,0.0,0.0,0.0,0.0,0.0,0.0,0.0,0.0,0.0,0.0,0.0,0.0,0.0,0.0,0.0,0.0,0.0,0.0,0.0,0.0,0.0,0.0,0.0,0.0,0.0,0.0,0.0,0.0,0.0,0.0,0.0,0.0,0.0,0.0,0.0,0.0,0.0,0.0,0.0,0.0,0.0,0.0,0.0,0.0,0.0,0.0,0.0,0.0,0.0,0.0,0.0,0.0,0.0,0.0,0.0,0.0,0.0,0.0,0.0,0.0,0.0,0.0,0.0,0.0,0.0,0.0,0.0,0.0,0.0,0.0,0.0,0.0,0.0,0.0,0.0,0.0,0.0,0.0,0.0,0.0,-4.6252,-4.5969,-4.5923,-4.6415,-4.632,-4.3058,0.0,0.0,0.0,0.0,0.0,0.0,0.0,0.0,0.0,0.0,0.0,0.0,0.0,0.0,0.0,0.0,0.0,0.0,0.0,0.0,0.0,0.0,0.0,0.0,0.0,0.0,0.0,0.0,0.0,0.0,0.0,0.0,0.0,0.0,0.0,0.0,0.0,0.0,0.0,0.0,0.0,0.0,0.0,0.0,0.0,0.0,0.0,0.0,0.0,0.0,0.0,0.0,0.0,0.0,0.0,0.0,0.0,0.0,0.0,0.0,0.0,0.0,0.0,0.0,0.0,0.0,0.0,0.0,0.0,0.0,0.0,0.0,0.0,0.0,0.0,0.0,0.0,0.0,0.0,0.0,0.0,0.0,0.0,0.0,0.0,0.0,0.0,0.0,0.0,0.0,0.0,0.0,0.0,0.0,0.0,0.0,0.0,0.0,0.0,0.0,0.0,0.0,0.0,0.0,0.0,0.0,0.0,0.0,0.0,-4.4148,-4.599,-4.7905,-4.9687,-4.4992,-4.1131,0.0,0.0,0.0,0.0,0.0,0.0,0.0,0.0,0.0,0.0,0.0,0.0,0.0,0.0,0.0,0.0,0.0,0.0,0.0,0.0,0.0,0.0,0.0,0.0,0.0,0.0,0.0,0.0,0.0,0.0,0.0,0.0,0.0,0.0,0.0,0.0,0.0,0.0,0.0,0.0,0.0,0.0,0.0,0.0,0.0,0.0,0.0,0.0,0.0,0.0,0.0,0.0,0.0,0.0,0.0,0.0,0.0,0.0,0.0,0.0,0.0,0.0,0.0,0.0,0.0,0.0,0.0,0.0,0.0,0.0,0.0,0.0,0.0,0.0,0.0,0.0,0.0,0.0,0.0,0.0,0.0,0.0,0.0,0.0,0.0,0.0,0.0,0.0,0.0,0.0,0.0,0.0,0.0,0.0,0.0,0.0,0.0,0.0,0.0,0.0,0.0,0.0,0.0,0.0,0.0,0.0,0.0,0.0,0.0,-4.4514,0.0,-4.9159,-5.0154,-4.4957,-4.1038,0.0,0.0,0.0,0.0,0.0,0.0,0.0,0.0,0.0,0.0,0.0,0.0,0.0,0.0,0.0,0.0,0.0,0.0,0.0,0.0,0.0,0.0,0.0,0.0,0.0,0.0,0.0,0.0,0.0,0.0,0.0,0.0,0.0,0.0,0.0,0.0,0.0,0.0,0.0,0.0,0.0,0.0,0.0,0.0,0.0,0.0,0.0,0.0,0.0,0.0,0.0,0.0,0.0,0.0,0.0,0.0,0.0,0.0,0.0,0.0,0.0,0.0,0.0,0.0,0.0,0.0,0.0,0.0,0.0,0.0,0.0,0.0,0.0,0.0,0.0,0.0,0.0,0.0,0.0,0.0,0.0,0.0,0.0,0.0,0.0,0.0,0.0,0.0,0.0,0.0,0.0,0.0,0.0,0.0,0.0,0.0,0.0,0.0,0.0,0.0,0.0,0.0,0.0,0.0,0.0,0.0,0.0,0.0,-4.3723,-4.8028,-4.9604,-4.9445,-4.7443,-4.6762,-4.3398,0.0,0.0,0.0,0.0,0.0,0.0,0.0,0.0,0.0,0.0,0.0,0.0,0.0,0.0,0.0,0.0,0.0,0.0,0.0,0.0,0.0,0.0,0.0,0.0,0.0,0.0,0.0,0.0,0.0,0.0,0.0,0.0,0.0,0.0,0.0,0.0,0.0,0.0,0.0,0.0,0.0,0.0,0.0,0.0,0.0,0.0,0.0,0.0,0.0,0.0,0.0,0.0,0.0,0.0,0.0,0.0,0.0,0.0,0.0,0.0,0.0,0.0,0.0,0.0,0.0,0.0,0.0,0.0,0.0,0.0,0.0,0.0,0.0,0.0,0.0,0.0,0.0,0.0,0.0,0.0,0.0,0.0,0.0,0.0,0.0,0.0,0.0,0.0,0.0,0.0,0.0,0.0,0.0,0.0,0.0,0.0,0.0,0.0,0.0,0.0,0.0,0.0,0.0,0.0,0.0,0.0,0.0,0.0,0.0,-4.6598,-4.8304,-4.9492,-4.9887,-4.6029,-4.276,0.0,0.0,0.0,0.0,0.0,0.0,0.0,0.0,0.0,0.0,0.0,0.0,0.0,0.0,0.0,0.0,0.0,0.0,0.0,0.0,0.0,0.0,0.0,0.0,0.0,0.0,0.0,0.0,0.0,0.0,0.0,0.0,0.0,0.0,0.0,0.0,0.0,0.0,0.0,0.0,0.0,0.0,0.0,0.0,0.0,0.0,0.0,0.0,0.0,0.0,0.0,0.0,0.0,0.0,0.0,0.0,0.0,0.0,0.0,0.0,0.0,0.0,0.0,0.0,0.0,0.0,0.0,0.0,0.0,0.0,0.0,0.0,0.0,0.0,0.0,0.0,0.0,0.0,0.0,0.0,0.0,0.0,0.0,0.0,0.0,0.0,0.0,0.0,0.0,0.0,0.0,0.0,0.0,0.0,0.0,0.0,0.0,0.0,0.0,0.0,0.0,0.0,0.0,0.0,0.0,0.0,0.0,0.0,0.0,-4.6525,-4.8719,-5.0232,-5.0931,-4.6488,-4.3369,-4.1819,0.0,0.0,0.0,0.0,0.0,0.0,0.0,0.0,0.0,0.0,0.0,0.0,0.0,0.0,0.0,0.0,0.0,0.0,0.0,0.0,0.0,0.0,0.0,0.0,0.0,0.0,0.0,0.0,0.0,0.0,0.0,0.0,0.0,0.0,0.0,0.0,0.0,0.0,0.0,0.0,0.0,0.0,0.0,0.0,0.0,0.0,0.0,0.0,0.0,0.0,0.0,0.0,0.0,0.0,0.0,0.0,0.0,0.0,0.0,0.0,0.0,0.0,0.0,0.0,0.0,0.0,0.0,0.0,0.0,0.0,0.0,0.0,0.0,0.0,0.0,0.0,0.0,0.0,0.0,0.0,0.0,0.0,0.0,0.0,0.0,0.0,0.0,0.0,0.0,0.0,0.0,0.0,0.0,0.0,0.0,0.0,0.0,0.0,0.0,0.0,0.0,0.0,0.0,0.0,0.0,0.0,0.0,0.0,-4.7289,-5.0334,-5.1437,-5.0426,-4.7847,-4.4926,0.0,0.0,0.0,0.0,0.0,0.0,0.0,0.0,0.0,0.0,0.0,0.0,0.0,0.0,0.0,0.0,0.0,0.0,0.0,0.0,0.0,0.0,0.0,0.0,0.0,0.0,0.0,0.0,0.0,0.0,0.0,0.0,0.0,0.0,0.0,0.0,0.0,0.0,0.0,0.0,0.0,0.0,0.0,0.0,0.0,0.0,0.0,0.0,0.0,0.0,0.0,0.0,0.0,0.0,0.0,0.0,0.0,0.0,0.0,0.0,0.0,0.0,0.0,0.0,0.0,0.0,0.0,0.0,0.0,0.0,0.0,0.0,0.0,0.0,0.0,0.0,0.0,0.0,0.0,0.0,0.0,0.0,0.0,0.0,0.0,0.0,0.0,0.0,0.0,0.0,0.0,0.0,0.0,0.0,0.0,0.0,0.0,0.0,0.0,0.0,0.0,0.0,0.0,0.0,0.0,0.0,0.0,0.0,0.0,-4.7427,-4.9005,-5.0008,-5.0295,-4.7456,-4.4745,0.0,0.0,0.0,0.0,0.0,0.0,0.0,0.0,0.0,0.0,0.0,0.0,0.0,0.0,0.0,0.0,0.0,0.0,0.0,0.0,0.0,0.0,0.0,0.0,0.0,0.0,0.0,0.0,0.0,0.0,0.0,0.0,0.0,0.0,0.0,0.0,0.0,0.0,0.0,0.0,0.0,0.0,0.0,0.0,0.0,0.0,0.0,0.0,0.0,0.0,0.0,0.0,0.0,0.0,0.0,0.0,0.0,0.0,0.0,0.0,0.0,0.0,0.0,0.0,0.0,0.0,0.0,0.0,0.0,0.0,0.0,0.0,0.0,0.0,0.0,0.0,0.0,0.0,0.0,0.0,0.0,0.0,0.0,0.0,0.0,0.0,0.0,0.0,0.0,0.0,0.0,0.0,0.0,0.0,0.0,0.0,0.0,0.0,0.0,0.0,0.0,0.0,0.0,0.0,0.0,0.0,0.0,0.0,-4.5503,-4.7038,-4.8372,-4.9185,-4.9457,-4.7604,-4.553,0.0,0.0,0.0,0.0,0.0,0.0,0.0,0.0,0.0,0.0,0.0,0.0,0.0,0.0,0.0,0.0,0.0,0.0,0.0,0.0,0.0,0.0,0.0,0.0,0.0,0.0,0.0,0.0,0.0,0.0,0.0,0.0,0.0,0.0,0.0,0.0,0.0,0.0,0.0,0.0,0.0,0.0,0.0,0.0,0.0,0.0,0.0,0.0,0.0,0.0,0.0,0.0,0.0,0.0,0.0,0.0,0.0,0.0,0.0,0.0,0.0,0.0,0.0,0.0,0.0,0.0,0.0,0.0,0.0,0.0,0.0,0.0,0.0,0.0,0.0,0.0,0.0,0.0,0.0,0.0,0.0,0.0,0.0,0.0,0.0,0.0,0.0,0.0,0.0,0.0,0.0,0.0,0.0,0.0,0.0,0.0,0.0,0.0,0.0,0.0,0.0,0.0,0.0,0.0,0.0,0.0,0.0,0.0,-4.5171,-4.6367,-4.8044,-4.8661,-4.8127,-4.7936,-4.6561,0.0,0.0,0.0,0.0,0.0,0.0,0.0,0.0,0.0,0.0,0.0,0.0,0.0,0.0,0.0,0.0,0.0,0.0,0.0,0.0,0.0,0.0,0.0,0.0,0.0,0.0,0.0,0.0,0.0,0.0,0.0,0.0,0.0,0.0,0.0,0.0,0.0,0.0,0.0,0.0,0.0,0.0,0.0,0.0,0.0,0.0,0.0,0.0,0.0,0.0,0.0,0.0,0.0,0.0,0.0,0.0,0.0,0.0,0.0,0.0,0.0,0.0,0.0,0.0,0.0,0.0,0.0,0.0,0.0,0.0,0.0,0.0,0.0,0.0,0.0,0.0,0.0,0.0,0.0,0.0,0.0,0.0,0.0,0.0,0.0,0.0,0.0,0.0,0.0,0.0,0.0,0.0,0.0,0.0,0.0,0.0,0.0,0.0,0.0,0.0,0.0,0.0,0.0,0.0,0.0,0.0,0.0,0.0,-4.3776,-4.5587,-4.687,-4.7548,-4.7621,-4.6966,-4.5416,0.0,0.0,0.0,0.0,0.0,0.0,0.0,0.0,0.0,0.0,0.0,0.0,0.0,0.0,0.0,0.0,0.0,0.0,0.0,0.0,0.0,0.0,0.0,0.0,0.0,0.0,0.0,0.0,0.0,0.0,0.0,0.0,0.0,0.0,0.0,0.0,0.0,0.0,0.0,0.0,0.0,0.0,0.0,0.0,0.0,0.0,0.0,0.0,-4.3799,0.0,0.0,0.0,0.0,0.0,0.0,0.0,0.0,0.0,0.0,0.0,0.0,0.0,0.0,0.0,0.0,0.0,0.0,0.0,0.0,0.0,0.0,0.0,0.0,0.0,0.0,0.0,0.0,0.0,0.0,0.0,0.0,0.0,0.0,0.0,0.0,0.0,0.0,0.0,0.0,0.0,0.0,0.0,0.0,0.0,0.0,0.0,0.0,0.0,0.0,0.0,0.0,0.0,0.0,0.0,0.0,0.0,0.0,0.0,-4.3976,-4.5975,-4.6758,-4.7545,-4.837,-4.7356,-4.5678,0.0,0.0,0.0,0.0,0.0,0.0,0.0,0.0,0.0,0.0,0.0,0.0,0.0,0.0,0.0,0.0,0.0,0.0,0.0,0.0,0.0,0.0,0.0,0.0,0.0,0.0,0.0,0.0,0.0,0.0,0.0,0.0,0.0,0.0,0.0,0.0,0.0,0.0,0.0,0.0,0.0,0.0,0.0,0.0,0.0,0.0,0.0,0.0,0.0,0.0,0.0,0.0,0.0,0.0,0.0,0.0,0.0,0.0,0.0,0.0,0.0,0.0,0.0,0.0,0.0,0.0,0.0,0.0,0.0,0.0,0.0,0.0,0.0,0.0,0.0,0.0,0.0,0.0,0.0,0.0,0.0,0.0,0.0,0.0,0.0,0.0,0.0,0.0,0.0,0.0,0.0,0.0,0.0,0.0,0.0,0.0,0.0,0.0,0.0,0.0,0.0,0.0,0.0,0.0,0.0,0.0,0.0,-4.2241,-4.4438,-4.6717,-4.7127,-4.8042,-4.9565,-4.8258,-4.6542,-4.4414,0.0,0.0,0.0,0.0,0.0,0.0,0.0,0.0,0.0,0.0,0.0,0.0,0.0,0.0,0.0,0.0,0.0,0.0,0.0,0.0,0.0,0.0,0.0,0.0,0.0,0.0,0.0,0.0,0.0,0.0,0.0,0.0,0.0,0.0,0.0,0.0,0.0,0.0,-3.9148,-4.1541,0.0,0.0,0.0,0.0,0.0,0.0,0.0,0.0,-4.544,0.0,0.0,0.0,0.0,0.0,0.0,0.0,0.0,0.0,0.0,0.0,0.0,0.0,0.0,0.0,0.0,0.0,0.0,0.0,0.0,0.0,0.0,0.0,0.0,0.0,0.0,0.0,0.0,0.0,0.0,0.0,0.0,0.0,0.0,0.0,0.0,0.0,0.0,0.0,0.0,0.0,0.0,0.0,0.0,0.0,0.0,0.0,0.0,0.0,0.0,0.0,0.0,0.0,0.0,0.0,0.0,-4.1858,-4.1698,-4.3293,-4.6777,-4.7465,-4.8538,-5.0076,-4.9168,-4.729,-4.4387,0.0,0.0,0.0,0.0,0.0,0.0,0.0,0.0,0.0,0.0,0.0,0.0,0.0,0.0,0.0,0.0,0.0,0.0,0.0,0.0,0.0,0.0,0.0,0.0,0.0,0.0,0.0,0.0,0.0,0.0,0.0,0.0,0.0,0.0,0.0,0.0,0.0,0.0,0.0,-4.2433,-4.345,0.0,0.0,0.0,0.0,0.0,0.0,0.0,0.0,-4.6307,0.0,0.0,0.0,0.0,0.0,0.0,0.0,0.0,0.0,0.0,0.0,0.0,0.0,0.0,0.0,0.0,0.0,0.0,0.0,0.0,0.0,0.0,0.0,0.0,0.0,0.0,0.0,0.0,0.0,0.0,0.0,0.0,0.0,0.0,0.0,0.0,0.0,0.0,0.0,0.0,0.0,0.0,0.0,0.0,0.0,0.0,0.0,0.0,0.0,0.0,0.0,0.0,0.0,0.0,0.0,-4.0812,-4.2317,-4.4353,-4.6924,-4.7695,-4.8775,-5.0221,-4.8861,-4.6819,0.0,0.0,0.0,0.0,0.0,0.0,0.0,0.0,0.0,0.0,0.0,0.0,0.0,0.0,0.0,0.0,0.0,0.0,0.0,0.0,0.0,0.0,0.0,0.0,0.0,0.0,0.0,0.0,0.0,0.0,0.0,0.0,0.0,0.0,0.0,0.0,0.0,0.0,0.0,0.0,-4.1908,-4.2617,-4.3737,0.0,0.0,0.0,0.0,0.0,0.0,-4.4768,-4.5795,0.0,0.0,0.0,0.0,0.0,0.0,0.0,0.0,0.0,0.0,0.0,0.0,0.0,0.0,0.0,0.0,0.0,0.0,0.0,0.0,0.0,0.0,0.0,0.0,0.0,0.0,0.0,0.0,0.0,0.0,0.0,0.0,0.0,0.0,0.0,0.0,0.0,0.0,0.0,0.0,0.0,0.0,0.0,0.0,0.0,0.0,0.0,0.0,0.0,0.0,0.0,0.0,0.0,0.0,0.0,-3.9203,-4.2541,-4.5115,-4.6755,-4.7585,-4.8777,-5.0298,-4.8658,-4.6659,0.0,0.0,0.0,0.0,0.0,0.0,0.0,0.0,0.0,0.0,0.0,0.0,0.0,0.0,0.0,0.0,0.0,0.0,0.0,0.0,0.0,0.0,0.0,0.0,0.0,0.0,0.0,0.0,0.0,0.0,0.0,0.0,0.0,0.0,0.0,0.0,0.0,0.0,0.0,0.0,0.0,-4.1985,-4.2768,-4.1774,0.0,0.0,0.0,0.0,-4.3552,-4.4533,0.0,0.0,0.0,0.0,0.0,0.0,0.0,0.0,0.0,0.0,0.0,0.0,0.0,0.0,0.0,0.0,0.0,0.0,0.0,0.0,0.0,0.0,0.0,0.0,0.0,0.0,0.0,0.0,0.0,0.0,0.0,0.0,0.0,0.0,0.0,0.0,0.0,0.0,0.0,0.0,0.0,0.0,0.0,0.0,0.0,0.0,0.0,0.0,0.0,0.0,0.0,0.0,0.0,0.0,0.0,0.0,-3.7611,-4.0691,-4.3425,-4.5768,-4.6834,-4.8372,-5.0569,-4.9781,-4.8035,0.0,0.0,0.0,0.0,0.0,0.0,0.0,0.0,0.0,0.0,0.0,0.0,0.0,0.0,0.0,0.0,0.0,0.0,0.0,0.0,0.0,0.0,0.0,0.0,0.0,0.0,0.0,0.0,0.0,0.0,0.0,0.0,0.0,0.0,0.0,0.0,0.0,0.0,0.0,0.0,0.0,-4.2393,-4.2022,-4.1404,-4.152,0.0,0.0,-4.2849,-4.4488,-4.5281,0.0,0.0,0.0,0.0,0.0,0.0,0.0,0.0,0.0,0.0,0.0,0.0,0.0,0.0,0.0,0.0,0.0,0.0,0.0,0.0,0.0,0.0,0.0,0.0,0.0,0.0,0.0,0.0,0.0,0.0,0.0,0.0,0.0,0.0,0.0,0.0,0.0,0.0,0.0,0.0,0.0,0.0,0.0,0.0,0.0,0.0,0.0,0.0,0.0,0.0,0.0,0.0,0.0,0.0,0.0,-3.53,-3.7382,-4.0718,-4.2976,-4.4122,-4.5562,-4.7,-4.8382,-4.8008,-4.6737,0.0,0.0,0.0,0.0,0.0,0.0,0.0,0.0,0.0,0.0,0.0,0.0,0.0,0.0,0.0,0.0,0.0,0.0,0.0,0.0,0.0,0.0,0.0,0.0,0.0,0.0,0.0,0.0,0.0,0.0,0.0,0.0,0.0,0.0,0.0,0.0,0.0,0.0,0.0,0.0,0.0,0.0,-4.0984,-4.0968,0.0,0.0,0.0,-4.2724,-4.3928,0.0,0.0,0.0,0.0,0.0,0.0,0.0,0.0,0.0,0.0,0.0,0.0,0.0,0.0,0.0,0.0,0.0,0.0,0.0,0.0,0.0,0.0,0.0,0.0,0.0,0.0,0.0,0.0,0.0,0.0,0.0,0.0,0.0,0.0,0.0,0.0,0.0,0.0,0.0,0.0,0.0,0.0,0.0,0.0,0.0,0.0,0.0,0.0,0.0,0.0,0.0,0.0,0.0,0.0,0.0,0.0,0.0,-3.6307,-4.0294,-4.2432,-4.248,-4.4249,-4.562,-4.6468,-4.6511,0.0,0.0,0.0,0.0,0.0,0.0,0.0,0.0,0.0,0.0,0.0,0.0,0.0,0.0,0.0,0.0,0.0,0.0,0.0,0.0,0.0,0.0,0.0,0.0,0.0,0.0,0.0,-3.1562,0.0,0.0,0.0,0.0,0.0,0.0,0.0,0.0,0.0,0.0,0.0,0.0,0.0,0.0,-3.9128,-3.9533,-4.0062,-4.0591,0.0,0.0,-4.251,-4.3344,-4.3486,-4.3585,0.0,0.0,0.0,0.0,0.0,0.0,0.0,0.0,0.0,0.0,0.0,0.0,0.0,0.0,0.0,0.0,0.0,0.0,0.0,0.0,0.0,0.0,0.0,0.0,0.0,0.0,0.0,0.0,0.0,0.0,0.0,0.0,0.0,0.0,0.0,0.0,0.0,0.0,0.0,0.0,0.0,0.0,0.0,0.0,0.0,0.0,0.0,0.0,0.0,0.0,0.0,0.0,0.0,0.0,-3.2406,-3.359,-3.8469,-4.1054,-4.1174,-4.2945,-4.459,-4.591,-4.6556,-4.601,0.0,0.0,0.0,0.0,0.0,0.0,0.0,0.0,0.0,0.0,0.0,0.0,0.0,0.0,0.0,0.0,0.0,0.0,0.0,0.0,0.0,0.0,0.0,0.0,0.0,0.0,0.0,0.0,0.0,0.0,0.0,0.0,0.0,0.0,0.0,0.0,0.0,0.0,0.0,0.0,0.0,-3.7137,-3.73,-3.8399,-3.9791,0.0,-4.1934,-4.2422,-4.3267,-4.3374,-4.3121,-4.2312,0.0,0.0,0.0,0.0,0.0,0.0,0.0,0.0,0.0,0.0,0.0,0.0,0.0,0.0,0.0,0.0,0.0,0.0,0.0,0.0,0.0,0.0,0.0,0.0,0.0,0.0,0.0,0.0,0.0,0.0,0.0,0.0,0.0,0.0,0.0,0.0,0.0,0.0,0.0,0.0,0.0,0.0,0.0,0.0,0.0,0.0,0.0,0.0,0.0,0.0,0.0,0.0,0.0,-3.181,-3.3095,-3.7246,-3.9758,-4.0483,-4.2258,-4.3782,-4.4935,-4.6042,-4.5835,0.0,0.0,0.0,0.0,0.0,0.0,0.0,0.0,0.0,0.0,0.0,0.0,0.0,0.0,0.0,0.0,0.0,0.0,0.0,0.0,0.0,0.0,0.0,0.0,0.0,0.0,0.0,0.0,-3.3751,-3.4093,-3.403,0.0,0.0,0.0,0.0,0.0,0.0,0.0,0.0,0.0,0.0,-3.5424,-3.5985,-3.6972,0.0,0.0,-3.9,-3.9561,-4.1451,-4.0513,-3.989,-4.0796,-3.9959,0.0,0.0,0.0,0.0,0.0,0.0,0.0,0.0,0.0,0.0,0.0,0.0,0.0,0.0,0.0,0.0,0.0,0.0,0.0,0.0,0.0,0.0,0.0,0.0,0.0,0.0,0.0,0.0,0.0,0.0,0.0,0.0,0.0,0.0,0.0,0.0,0.0,0.0,0.0,0.0,0.0,0.0,0.0,0.0,0.0,0.0,0.0,0.0,0.0,0.0,0.0,0.0,-3.1389,-3.2849,-3.6839,-3.9372,-4.0419,-4.2258,-4.36,-4.4414,-4.5522,-4.5359,0.0,0.0,0.0,0.0,0.0,0.0,0.0,0.0,0.0,0.0,0.0,0.0,0.0,0.0,0.0,0.0,0.0,0.0,0.0,0.0,0.0,0.0,0.0,0.0,0.0,0.0,0.0,0.0,-3.5267,-3.5459,-3.5059,0.0,0.0,0.0,0.0,0.0,0.0,0.0,0.0,0.0,0.0,-3.3907,-3.4562,-3.5244,-3.5783,-3.5965,-3.5983,-3.6462,-3.7868,-3.6651,-3.6121,-3.7794,0.0,0.0,0.0,0.0,0.0,0.0,0.0,0.0,0.0,0.0,0.0,0.0,0.0,0.0,0.0,0.0,0.0,0.0,0.0,0.0,0.0,0.0,0.0,0.0,0.0,0.0,0.0,-3.1317,0.0,0.0,-2.8442,0.0,0.0,0.0,0.0,0.0,0.0,0.0,0.0,0.0,0.0,0.0,0.0,0.0,0.0,0.0,0.0,0.0,0.0,0.0,0.0,0.0,0.0,-3.1001,-3.2489,-3.7225,-4.0186,-4.1094,-4.2987,-4.4101,-4.4514,-4.4936,-4.447,-4.3006,0.0,0.0,0.0,0.0,0.0,0.0,0.0,0.0,0.0,0.0,0.0,0.0,0.0,0.0,0.0,0.0,0.0,0.0,0.0,0.0,0.0,0.0,0.0,0.0,0.0,0.0,-3.7036,-3.6803,-3.6408,0.0,0.0,0.0,0.0,0.0,0.0,0.0,0.0,0.0,-3.1654,-3.2056,-3.2611,-3.2875,-3.3094,-3.3024,-3.2632,-3.3261,-3.3398,-3.2316,-3.1948,-3.2072,0.0,0.0,0.0,0.0,0.0,0.0,0.0,0.0,0.0,0.0,0.0,0.0,0.0,0.0,0.0,0.0,0.0,0.0,0.0,0.0,0.0,0.0,0.0,0.0,0.0,0.0,0.0,-3.0009,-2.9582,0.0,0.0,0.0,0.0,0.0,0.0,0.0,0.0,0.0,0.0,0.0,-3.1742,-3.2454,0.0,0.0,0.0,0.0,0.0,0.0,0.0,0.0,0.0,0.0,0.0,0.0,-3.2018,-3.3786,-3.7514,-4.0138,-4.1611,-4.3147,-4.4021,-4.423,-4.4312,-4.3231,-4.076,0.0,0.0,0.0,0.0,0.0,0.0,0.0,0.0,0.0,0.0,0.0,0.0,0.0,0.0,0.0,0.0,0.0,0.0,0.0,0.0,0.0,0.0,0.0,0.0,0.0,-3.6274,0.0,0.0,0.0,0.0,0.0,0.0,0.0,0.0,0.0,0.0,-3.1931,-3.0939,-3.0858,-3.0448,-3.0142,-2.9972,-2.9317,-2.8767,0.0,0.0,0.0,0.0,0.0,0.0,0.0,0.0,0.0,0.0,0.0,0.0,0.0,0.0,-2.7928,-3.2584,-3.3359,-3.2777,-3.1288,0.0,0.0,0.0,0.0,0.0,0.0,0.0,0.0,0.0,0.0,0.0,0.0,0.0,0.0,-2.8894,-2.8115,-2.8036,0.0,0.0,0.0,0.0,0.0,0.0,0.0,0.0,-2.8576,-2.9958,-3.264,-3.3168,-3.4509,-3.6451,-3.6024,-3.4292,0.0,0.0,0.0,0.0,0.0,0.0,0.0,0.0,-3.351,-3.5401,-3.8456,-4.0575,-4.1767,-4.3108,-4.3727,-4.3563,-4.3031,-4.1717,-3.9438,-3.9674,-3.9649,0.0,0.0,0.0,0.0,0.0,0.0,0.0,0.0,0.0,0.0,0.0,0.0,0.0,0.0,0.0,0.0,0.0,0.0,0.0,0.0,0.0,0.0,0.0,-3.7311,0.0,0.0,0.0,0.0,0.0,0.0,0.0,0.0,0.0,-3.0732,-2.9783,-2.887,-2.8435,-2.8373,-2.7941,-2.6656,0.0,0.0,0.0,0.0,0.0,0.0,0.0,-2.3449,-2.3702,-2.3682,-2.3746,-2.4014,-2.4119,-2.4341,-2.4902,0.0,0.0,-2.849,-2.9375,-2.9076,-2.7827,-2.7532,-2.7016,-2.5536,-2.5198,-2.5497,0.0,0.0,0.0,0.0,-3.1852,0.0,0.0,0.0,-2.9342,-2.8508,0.0,-2.6792,0.0,0.0,0.0,0.0,-3.0634,-3.0999,0.0,0.0,-2.9913,-3.0987,-3.3102,-3.4148,-3.5542,-3.736,-3.883,-3.8019,-3.5155,-3.2966,0.0,0.0,0.0,0.0,0.0,0.0,-3.5321,-3.7391,-3.9945,-4.139,-4.151,-4.2787,-4.3144,-4.2362,-4.1034,-3.9881,-3.9041,-3.9262,-3.9463,-3.9467,-3.8271,0.0,0.0,0.0,0.0,0.0,0.0,0.0,0.0,0.0,0.0,0.0,0.0,0.0,0.0,0.0,0.0,0.0,0.0,0.0,0.0,-3.7426,0.0,0.0,0.0,0.0,0.0,0.0,0.0,0.0,0.0,-2.8184,-2.7708,-2.7772,-2.7014,-2.4486,0.0,0.0,0.0,0.0,-2.1828,-1.9412,-1.9155,-1.8645,-1.7102,-1.6929,-1.7156,-1.7578,0.0,0.0,-2.0868,-2.1568,-2.2317,-2.4286,-2.3474,-2.2503,-2.242,-2.3488,-2.3895,-2.3293,-2.3739,-2.3645,-2.2519,-2.2171,-2.2193,-3.1892,0.0,0.0,0.0,0.0,-3.1384,-3.0308,-2.9392,-2.8341,-2.7407,-2.652,-2.5995,0.0,0.0,0.0,0.0,0.0,0.0,-3.2897,-3.2689,-3.221,-3.2773,-3.4233,-3.5993,-3.7882,-3.9885,-3.9812,-3.9469,-3.8769,-3.7075,-3.4794,-3.199,0.0,0.0,0.0,0.0,-3.7794,-3.9182,-4.0122,-4.083,-4.1341,-4.1609,-4.1278,-4.0261,-3.8992,-3.7955,-3.7165,-3.7184,-3.7284,-3.7368,-3.6729,0.0,0.0,0.0,0.0,0.0,0.0,0.0,0.0,0.0,0.0,0.0,0.0,0.0,0.0,0.0,0.0,0.0,0.0,0.0,-3.6936,-3.7438,-3.7749,0.0,0.0,0.0,0.0,0.0,0.0,0.0,0.0,0.0,-2.3645,-2.3855,-2.3809,0.0,0.0,-2.2017,-1.9863,-1.8419,-1.7045,-1.5631,-1.4903,0.0,-1.3099,-1.463,-1.5408,-1.3746,-1.4308,-1.5957,-1.8679,-1.9889,-2.0883,-2.1842,-2.1983,-2.184,-2.1209,-2.1613,-2.1972,-2.152,-2.1453,-2.1159,-2.0194,-2.0065,-2.0117,-3.186,-3.2432,-3.2649,-3.2867,-3.3034,-3.2163,-3.1275,-3.0308,-2.897,-2.7761,-2.6673,-2.5683,-2.5834,-2.6969,-2.8809,0.0,0.0,0.0,-3.5296,-3.5187,-3.4537,-3.4845,-3.612,-3.7436,-3.9381,-4.1671,-4.1423,-4.1116,-4.0917,-4.0293,-3.8406,-3.5409,0.0,-3.7358,-3.7548,-3.841,-3.9343,-4.0359,-4.0047,-3.9973,-4.0005,-3.956,-3.8722,-3.7566,-3.6668,-3.5791,-3.4898,-3.4835,-3.5105,-3.5688,-3.5317,-3.4867,0.0,0.0,0.0,0.0,0.0,0.0,0.0,0.0,0.0,0.0,0.0,-3.283,-3.2334,0.0,0.0,0.0,-3.6133,-3.6987,-3.8204,-3.7942,0.0,0.0,0.0,0.0,0.0,0.0,0.0,-2.9205,-2.7211,-2.5051,-2.223,-2.1705,-2.1308,-2.043,-2.0157,-1.9197,-1.6839,0.0,-1.382,-1.2602,-1.1803,-1.1137,-1.0531,-1.1981,-1.2949,-1.2344,-1.387,-1.5882,-1.8092,-1.9772,-2.101,-2.1719,-2.2177,-2.233,-2.209,-2.2039,-2.1713,-2.088,-2.0528,-2.0215,-1.9582,-1.9545,-1.9449,-3.2211,-3.2313,-3.2764,-3.3006,-3.3176,-3.3516,-3.2916,-3.1659,-3.057,-2.9086,-2.7424,-2.6008,-2.6046,-2.7426,-3.1324,0.0,-3.649,-3.7608,-3.8008,-3.7761,-3.7068,-3.7427,-3.8659,-3.8969,-4.0534,-4.316,-4.3396,-4.2995,-4.2101,-4.2659,-4.1896,-3.9806,-3.9788,-4.0266,-4.0982,-4.0294,-4.0305,-4.0931,-3.9889,-3.892,-3.7996,-3.7012,-3.5941,-3.4849,-3.4263,-3.3474,-3.2457,-3.2301,-3.2898,-3.4127,-3.3907,-3.3608,-3.32,0.0,0.0,0.0,0.0,0.0,0.0,0.0,0.0,0.0,0.0,0.0,0.0,0.0,0.0,0.0,-3.6355,0.0,-3.9129,-3.8631,0.0,0.0,0.0,-3.6072,-3.4465,-3.4539,-3.3262,-2.9576,0.0,0.0,-2.2947,-2.1293,-1.9835,-1.819,-1.8254,-1.732,-1.4236,-1.3204,-1.2009,-1.0689,-0.9888,-0.9424,-0.9308,-0.9843,-1.1049,-1.2947,-1.4858,-1.7025,-1.9169,-2.1072,-2.2628,-2.3672,-2.3825,-2.3885,-2.4333,-2.3814,-2.2881,-2.1511,-2.0932,-2.0628,-2.0411,-2.0457,-1.9956,-3.299,-3.3135,-3.3129,-3.3206,-3.3317,-3.3291,-3.3183,-3.2825,-3.184,-3.0687,-2.9489,-2.8886,-2.9394,-3.0933,-3.4111,-3.6577,-3.8492,-4.0636,-4.1407,-4.1101,-4.141,-4.1687,-4.1917,-4.2494,-4.3552,-4.5014,-4.4905,-4.4527,-4.3969,-4.3414,-4.2864,-4.2406,-4.2239,-4.1755,-4.0881,-4.0761,-4.071,-4.0755,-3.9182,-3.7831,-3.6762,-3.5294,-3.4348,-3.4008,-3.2221,-3.1008,-3.0577,-3.0063,-3.0144,-3.0977,-3.1283,-3.1227,-3.0854,-3.0108,0.0,0.0,0.0,0.0,0.0,0.0,0.0,0.0,0.0,-3.0335,-3.0463,0.0,-3.2944,0.0,-3.6125,-3.7124,-3.8084,-3.7892,0.0,0.0,-3.6237,-3.576,-3.4263,-3.4462,-3.3567,-3.0608,-2.941,-2.7865,-2.5488,-2.4061,-2.2735,-2.1285,-1.881,-1.6449,-1.4744,-1.3606,-1.2484,-1.1291,-1.072,-1.0108,-0.9585,-1.0654,-1.2674,-1.4917,-1.7368,-1.9844,-2.2296,-2.4135,-2.5445,-2.5935,-2.6519,-2.6521,-2.5836,-2.5834,-2.586,-2.5159,-2.3867,-2.2537,-2.1892,-2.2082,-2.1756,-3.4174,-3.3728,-3.3688,-3.3716,-3.3873,-3.3926,-3.3803,-3.3499,-3.3051,-3.2273,-3.1474,-3.1426,-3.2283,-3.3935,-3.6055,-3.846,-4.0931,-4.2483,-4.3571,-4.4321,-4.4545,-4.4616,-4.468,-4.4653,-4.4962,-4.552,-4.4888,-4.4541,-4.4369,-4.3877,-4.3559,-4.3456,-4.3236,-4.2427,-4.1087,-4.1263,-4.0872,-4.0064,-3.7977,-3.6384,-3.5401,-3.409,-3.3048,-3.2199,-3.0799,-2.9636,-2.8871,-2.794,-2.7844,-2.8708,-2.8759,-2.8847,-2.8918,-2.839,-2.7415,0.0,0.0,0.0,0.0,0.0,0.0,0.0,0.0,0.0,0.0,0.0,-3.2645,-3.5752,-3.6219,-3.6734,-3.7773,-3.7469,-3.6767,-3.5635,-3.586,-3.5442,-3.373,-3.4317,-3.4343,-3.2821,-3.1657,-3.0281,-2.8419,-2.7458,-2.6461,-2.5221,-2.3117,-2.0436,-1.7273,-1.57,-1.454,-1.3322,-1.2917,-1.2715,-1.2225,-1.4284,-1.6666,-1.891,-2.1659,-2.4352,-2.6734,-2.8185,-2.8999,-2.9261,-2.9309,-2.9115,-2.8525,-2.8564,-2.8742,-2.8601,-2.7954,-2.6692,-2.504,-2.4641,-2.4129,-3.5929,-3.4795,-3.465,-3.4596,-3.4617,-3.4719,-3.4531,-3.4038,-3.4133,-3.3897,-3.3549,-3.3746,-3.4821,-3.6636,-3.7763,-4.0068,-4.3113,-4.3721,-4.5003,-4.6777,-4.6578,-4.6386,-4.6352,-4.5365,-4.4857,-4.4692,-4.3769,-4.3514,-4.3811,-4.3898,-4.3826,-4.3484,-4.3289,-4.245,-4.1192,-4.1312,-4.0558,-3.8942,-3.6527,-3.4895,-3.4053,-3.3003,-3.1672,-3.0267,-2.9663,-2.8686,-2.7217,-2.6118,-2.5941,-2.6768,-2.6382,-2.6437,-2.7282,-2.6615,-2.6076,0.0,-2.5649,0.0,0.0,0.0,0.0,0.0,0.0,0.0,0.0,-3.1131,-3.3205,-3.682,-3.6474,-3.6501,-3.7604,-3.7221,-3.6462,-3.5545,-3.5766,-3.5267,-3.3529,-3.4472,-3.5261,-3.5074,-3.4366,-3.3248,-3.1707,-3.1219,-3.0765,-2.9756,-2.9265,-2.7175,-2.2325,-1.9978,-1.8499,-1.7034,-1.6786,-1.7219,-1.7581,-1.9625,-2.2096,-2.4175,-2.7,-2.9671,-3.1628,-3.245,-3.2795,-3.2674,-3.2014,-3.1513,-3.1689,-3.1612,-3.1656,-3.179,-3.2125,-3.155,-2.9091,-2.789,-2.7002,-3.9031,-3.8056,-3.6978,-3.6147,-3.5489,-3.4627,-3.4333,-3.4507,-3.4853,-3.5583,-3.6512,-3.579,-3.6808,-3.9121,-4.0333,-4.173,-4.3348,-4.5216,-4.6098,-4.6054,-4.6346,-4.5635,-4.4107,-4.3182,-4.2322,-4.1647,-4.1604,-4.1801,-4.2119,-4.2667,-4.2899,-4.2836,-4.2093,-4.1263,-4.0258,0.0,0.0,0.0,-3.534,-3.4213,-3.336,-3.1277,-2.9988,-2.9722,-2.8318,0.0,-2.561,-2.5277,-2.4946,-2.4579,-2.409,0.0,0.0,0.0,0.0,0.0,0.0,0.0,0.0,0.0,0.0,0.0,-2.8789,-3.0179,-3.0036,-3.294,-3.5661,-3.7347,-3.6948,-3.654,-3.6653,-3.7033,-3.6673,-3.509,-3.5909,-3.6175,-3.5005,-3.5606,-3.5959,-3.5545,-3.606,-3.6178,-3.5403,-3.5723,-3.5686,-3.4763,-3.473,-3.4094,-3.223,-2.7992,-2.5012,-2.4234,-2.3866,-2.3703,-2.3619,-2.5951,-2.8326,-3.0242,-3.2741,-3.4742,-3.5692,-3.5921,-3.5601,-3.4848,-3.4333,-3.4057,-3.3612,-3.4142,-3.4677,-3.4362,-3.5337,-3.5237,-3.2119,-3.1455,-3.0764,-4.0978,-3.9854,-3.8717,-3.7466,0.0,-3.4709,-3.402,-3.3914,-3.4668,-3.5769,-3.7146,-3.6939,-3.786,-3.9619,-4.032,-4.1426,-4.2874,-4.3597,-4.4226,-4.474,-4.4541,-4.3773,-4.2522,-4.1178,-4.0106,-3.9161,-3.9133,-3.9682,-4.0636,-4.1495,-4.2021,-4.2216,-4.1813,-4.0842,-3.9521,-3.8382,-3.7309,-3.6289,-3.4593,-3.3224,-3.2234,-3.059,-2.9264,-2.8384,-2.7334,0.0,0.0,0.0,0.0,0.0,0.0,0.0,0.0,0.0,0.0,-2.5939,-2.6998,-2.7635,-2.7909,-2.9212,-3.0161,-3.062,-3.3917,-3.5307,-3.3631,-3.7158,-3.9428,-3.9556,-3.8975,-3.8616,-3.8699,-3.8098,-3.7355,-3.658,-3.6698,-3.6571,-3.6148,-3.6808,-3.7525,-3.7842,-3.8026,-3.8075,-3.8149,-3.8259,-3.8546,-3.865,-3.851,-3.8474,-3.8402,-3.4725,-3.1439,-3.0881,-3.0202,-2.9955,-3.0421,-3.2205,-3.4109,-3.5497,-3.7287,-3.8756,-3.9632,-3.9372,-3.8826,-3.8117,-3.7524,-3.692,-3.6756,-3.7101,-3.7502,-3.77,-3.873,-3.9409,-3.7785,-3.6416,-3.475,-4.2682,-4.1237,-4.0198,-3.8686,-3.6879,-3.5147,-3.3953,-3.3354,-3.4126,0.0,0.0,-3.7289,-3.8069,-3.8971,-3.9268,-4.0219,-4.1499,-4.0859,-4.1337,-4.2617,-4.1939,-4.122,-4.0425,-3.8998,-3.7831,-3.7007,-3.7022,-3.7883,-3.943,-4.0742,-4.1492,-4.1624,-4.1489,-4.0347,-3.8448,-3.6896,-3.5982,-3.5706,-3.388,-3.2278,-3.1086,-3.0093,-2.8706,-2.7019,-2.6343,-2.5546,-2.4414,-2.303,-2.1886,-2.1073,-2.0533,-2.0478,-2.0894,-2.183,-2.3644,-2.6497,-2.9072,-3.0966,-3.2051,-3.3649,-3.504,-3.6092,-3.9905,-4.1221,-3.8777,-4.1681,-4.3335,-4.2512,-4.1807,-4.1374,-4.1429,-3.973,-3.8502,-3.8319,-3.7687,-3.7184,-3.6868,-3.775,-3.8816,-3.9834,-3.9605,-3.955,-4.0159,-4.0058,-4.0384,-4.1425,-4.1283,-4.1648,-4.2587,-3.9875,-3.7147,-3.6741,-3.5913,-3.5626,-3.6361,-3.7431,-3.8894,-3.9364,-4.0648,-4.1858,-4.2412,-4.2165,-4.1631,-4.0794,-4.0286,-4.0053,-4.0098,-4.0238,-4.0467,-4.0968,-4.2186,-4.327,-4.3539,-4.1835,-3.9506,-4.4941,-4.3314,-4.1811,-3.9934,-3.7896,-3.6406,-3.494,-3.3483,-3.3597,-3.4576,-3.6141,-3.6195,-3.6816,-3.7757,-3.8115,-3.8287,-3.8498,-3.8737,-3.8841,-3.8779,-3.8796,-3.7947,-3.6374,-3.615,-3.5523,-3.4788,-3.6112,-3.7672,-3.9259,-4.0761,-4.167,-4.155,-4.0607,-3.875,-3.6315,-3.4906,-3.4004,-3.3466,-3.2814,-3.1709,-3.0105,-2.8818,-2.7623,-2.6405,-2.4943,-2.3391,-2.1794,-2.0766,-1.9812,-1.8963,-1.8458,-1.939,-2.1846,-2.2253,-2.4392,-2.8867,-3.1022,-3.3343,-3.6186,-3.6952,-3.8824,-4.2369,-4.4962,-4.5571,-4.3791,-4.4852,-4.5806,-4.6055,-4.4934,-4.386,-4.3005,-4.1792,-4.0313,-3.878,-3.8603,-3.8375,-3.7519,-3.8044,-3.8832,-3.9581,-4.0263,-4.0792,-4.113,-4.1715,-4.2294,-4.3152,-4.3192,-4.4077,-4.4919,-4.3904,-4.2157,-4.1677,-4.1065,-4.0594,-4.0246,-4.0463,-4.1114,-4.1948,-4.2519,-4.3147,-4.3652,-4.3646,-4.3022,-4.1222,-4.2195,-4.2991,-4.2914,-4.3631,-4.4014,-4.4334,-4.5441,-4.6479,-4.6499,-4.6256,-4.5436,-4.6123,-4.4736,-4.2879,-4.0821,-3.8557,-3.6102,-3.4451,-3.3582,-3.3146,-3.3512,-3.4517,-3.4629,-3.506,-3.5814,-3.5939,-3.5868,-3.5794,-3.6039,-3.6013,-3.5841,-3.619,-3.5742,-3.4722,-3.4856,-3.4821,-3.4623,-3.6012,-3.7519,-3.9021,-4.0231,-4.0592,-4.0191,-3.8545,-3.6586,-3.4546,-3.3917,-3.3077,-3.1949,-3.2079,-3.1273,-2.9531,-2.8372,-2.7014,-2.5411,-2.3435,-2.1665,-2.0202,-1.9049,-1.8188,-1.7608,-1.8563,-2.0067,-2.2162,-2.4039,-2.6895,-3.088,-3.3655,-3.6389,-3.9232,-4.1433,-4.3857,-4.6715,-4.8697,-4.9853,-4.9851,-4.9382,-4.9114,-4.9217,-4.8039,-4.6817,-4.5718,-4.4045,-4.2245,-4.0414,-4.0491,-4.0213,-3.9377,-3.985,-4.0389,-4.0499,-4.0694,-4.1126,-4.1721,-4.1841,-4.2306,-4.3221,-4.3918,-4.4592,-4.516,-4.481,-4.4485,-4.4621,-4.3785,-4.3048,-4.2941,-4.3207,-4.3288,-4.3207,-4.3775,-4.4357,-4.4839,-4.5067,-4.4854,-4.4326,-4.5038,-4.5645,-4.574,-4.6124,-4.6522,-4.6896,-4.8242,-4.917,-4.9258,-4.9641,-4.8563,-4.6421,-4.5128,-4.3407,-4.1244,-3.8615,-3.545,-3.3834,-3.3405,-3.2478,-3.2406,-3.2757,-3.2951,-3.3193,-3.3512,-3.343,-3.3269,-3.3043,-3.3216,-3.3206,-3.3094,-3.3475,-3.3388,-3.299,-3.3542,-3.4091,-3.4617,-3.6086,-3.7451,-3.8721,-3.9451,-3.9211,-3.8098,-3.6179,-3.4454,-3.2955,-3.2998,-3.2183,-3.0706,-3.1218,-3.0761,-2.9145,-2.8098,-2.6689,-2.479,-2.2275,-2.0422,-1.9372,-1.7844,-1.7117,-1.7541,-1.9745,-2.1878,-2.3668,-2.7363,-3.0666,-3.3279,-3.6213,-3.9103,-4.1864,-4.5107,-4.7703,-4.9237,-5.0955,-5.2481,-5.3602,-5.2695,-5.1894,-5.1755,-5.0548,-4.924,-4.7886,-4.6026,-4.4091,-4.2467,-4.2307,-4.188,-4.0932,-4.1518,-4.1843,-4.144,-4.1165,-4.1315,-4.1753,-4.1588,-4.1878,-4.2959,-4.3792,-4.4071,-4.4073,-4.4534,-4.5015,-4.553,-4.4834,-4.4021,-4.4378,-4.4462,-4.4217,-4.3578,-4.4241,-4.5058,-4.573,-4.6295,-4.6715,-4.6986,-4.7596,-4.807,-4.8392,-4.8446,-4.8583,-4.9098,-5.0348,-5.137,-5.1384,-5.1549,-5.0689,-4.58,-4.3933,-4.2904,-4.0764,-3.7903,-3.5018,-3.3568,-3.3064,-3.1669,-3.0903,-3.0865,-3.1199,-3.1091,-3.0599,-3.0875,-3.0618,-2.9968,-3.0369,-3.0449,-3.0163,-3.0448,-3.0316,-3.0022,-3.1542,-3.27,-3.3465,-3.5741,-3.7181,-3.809,-3.8503,-3.7665,-3.5525,-3.3777,-3.2613,-3.1917,-3.1875,-3.1005,-2.9139,-2.981,-2.9782,-2.9025,-2.7844,-2.6645,-2.5332,-2.2195,-2.0161,-1.953,-1.7246,-1.7091,-1.9325,-2.2191,-2.4958,-2.7838,-3.2747,-3.598,-3.661,-3.8298,-4.077,-4.4021,-4.6602,-4.8293,-4.9304,-5.0711,-5.1986,-5.2753,-5.2625,-5.2927,-5.3067,-5.2021,-5.0287,-4.8689,-4.7421,-4.5716,-4.347,-4.3308,-4.2853,-4.158,-4.1744,-4.1973,-4.1313,-4.1464,-4.1753,-4.1788,-4.1732,-4.2094,-4.2687,-4.275,-4.312,-4.37,-4.3137,-4.2977,-4.3953,-4.4035,-4.3956,-4.3781,-4.3656,-4.3734,-4.3578,-4.4185,-4.5293,-4.6407,-4.7311,-4.7935,-4.8643,-4.9361,-5.0021,-5.027,-5.0519,-5.0749,-5.1138,-5.1882,-5.2555,-5.279,-5.2857,-5.1709,-4.5407,-4.3786,-4.2407,-4.0158,-3.7399,-3.541,-3.4142,-3.3266,-3.1508,-3.029,-2.9369,-2.8958,-2.9035,-2.9603,-2.9503,-2.9167,-2.876,-2.8732,-2.8538,-2.8274,-2.8361,-2.8195,-2.8081,-2.9655,-3.0953,-3.189,-3.3409,-3.4717,-3.5574,-3.5089,-3.3751,-3.205,-3.1157,-3.0337,-2.9478,-2.9534,-2.9091,-2.82,-2.8142,-2.818,-2.8176,-2.7633,-2.6852,-2.5757,-2.3602,-2.186,-2.0883,-2.0063,-2.0352,-2.1751,-2.475,-2.7783,-3.0561,-3.4248,-3.6802,-3.7947,-4.005,-4.2535,-4.5389,-4.6818,-4.8127,-4.9447,-5.04,-5.1218,-5.1519,-5.1114,-5.0897,-5.0957,-5.0841,-5.0033,-4.8264,-4.7403,-4.6069,-4.419,-4.392,-4.3409,-4.185,-4.2058,-4.2032,-4.144,-4.156,-4.1692,-4.1578,-4.1218,-4.1078,-4.1288,-4.1034,-4.1113,-4.1771,-4.1462,-4.1711,-4.2501,-4.2915,-4.3037,-4.3068,-4.3504,-4.3678,-4.3847,-4.4707,-4.6068,-4.7329,-4.8235,-4.9066,-5.0125,-5.0559,-5.091,-5.0982,-5.1529,-5.1917,-5.2555,-5.3329,-5.3929,-5.4556,-5.4349,-5.3704,-4.4526,-4.2995,-4.1418,-3.9312,-3.6957,-3.5485,-3.4059,-3.2709,-3.1021,-2.9593,-2.8377,-2.7389,-2.755,-2.8422,-2.8149,-2.7953,-2.777,-2.7242,-2.6778,-2.6489,-2.6243,-2.587,-2.555,-2.7171,-2.8535,-2.9449,-3.0495,-3.1576,-3.2332,-3.1188,-2.998,-2.9038,-2.8717,-2.8272,-2.759,-2.7566,-2.7249,-2.6805,-2.6548,-2.6611,-2.6852,-2.7124,-2.6979,-2.6377,-2.4981,-2.3816,-2.316,-2.3391,-2.4045,-2.5164,-2.8015,-3.0829,-3.3371,-3.569,-3.7597,-3.9157,-4.1219,-4.3333,-4.5391,-4.6101,-4.709,-4.847,-4.9231,-4.9676,-4.9692,-4.9188,-4.8631,-4.8333,-4.8868,-4.8592,-4.7672,-4.6861,-4.5874,-4.4577,-4.4234,-4.3508,-4.2457,-4.2423,-4.2161,-4.1475,-4.1515,-4.1604,-4.1543,-4.0972,-4.0516,-4.0481,-3.9581,-3.9138,-3.987,-4.0289,-4.0567,-4.1866,-4.2221,-4.2435,-4.2893,-4.3728,-4.4124,-4.4736,-4.5702,-4.6988,-4.8253,-4.9008,-4.9817,-5.0667,-5.1015,-5.1281,-5.1421,-5.1934,-5.2803,-5.3299,-5.4111,-5.5001,-5.5308,-5.5164,-5.4861,-4.3065,-4.1055,-3.9536,-3.8023,-3.6452,-3.4714,-3.2988,-3.132,-3.001,-2.8831,-2.7833,-2.7172,-2.6911,-2.6986,-2.6609,-2.647,-2.6697,-2.589,-2.5008,-2.4227,-2.3944,-2.2933,-2.1589,-2.3681,-2.4997,-2.5588,-2.7409,-2.8347,-2.8363,-2.7502,-2.6941,-2.7007,-2.664,-2.6608,-2.6814,-2.6331,-2.5672,-2.5111,-2.5258,-2.525,-2.5062,-2.6185,-2.6874,-2.6856,-2.5855,-2.576,-2.6545,-2.6462,-2.7554,-3.0158,-3.2045,-3.4176,-3.6294,-3.7861,-3.9181,-4.0495,-4.1586,-4.261,-4.3525,-4.4372,-4.5207,-4.6124,-4.6986,-4.7248,-4.7384,-4.7316,-4.6988,-4.6447,-4.6536,-4.6611,-4.6619,-4.61,-4.5736,-4.5338,-4.4127,-4.3281,-4.3044,-4.2528,-4.2044,-4.1464,-4.1515,-4.1692,-4.1744,-4.1244,-4.0784,-4.0382,-3.9223,-3.8671,-3.9817,-3.9582,-4.0228,-4.1754,-4.2369,-4.237,-4.3616,-4.4345,-4.5137,-4.5708,-4.6385,-4.7643,-4.8611,-4.9543,-5.0401,-5.1101,-5.1241,-5.1438,-5.1699,-5.2426,-5.3407,-5.424,-5.5086,-5.5822,-5.5871,-5.5183,-5.4814,-4.0828,-3.9243,-3.7903,-3.6515,-3.5008,-3.4153,-3.2746,-3.0917,-2.9676,-2.8634,-2.7651,-2.6811,-2.6427,-2.6432,-2.6057,-2.617,-2.6391,-2.4845,-2.3401,-2.214,-2.178,-2.0594,-1.898,-2.0222,-2.1516,-2.2558,-2.3965,-2.4908,-2.53,-2.4915,-2.4699,-2.4657,-2.451,-2.4776,-2.5305,-2.4686,-2.4379,-2.4863,-2.4824,-2.4931,-2.5386,-2.6044,-2.6723,-2.7635,-2.8326,-2.9278,-3.0586,-3.16,-3.2753,-3.4013,-3.4818,-3.5734,-3.6805,-3.7243,-3.8077,-3.9466,-4.0101,-4.1204,-4.3002,-4.3889,-4.4721,-4.5693,-4.6229,-4.6304,-4.5967,-4.6007,-4.5648,-4.4831,-4.4761,-4.4836,-4.4613,-4.4817,-4.5057,-4.4732,-4.3554,-4.2743,-4.2881,-4.2332,-4.1568,-4.1506,-4.1701,-4.1995,-4.1831,-4.1024,-4.0495,-4.0704,-3.9363,-3.8971,-3.9739,-3.9817,-4.0279,-4.1391,-4.1903,-4.2243,-4.3483,-4.4438,-4.5234,-4.6025,-4.6852,-4.751,-4.8376,-4.9055,-4.9826,-5.1007,-5.128,-5.1863,-5.2287,-5.33,-5.4256,-5.5101,-5.5998,-5.6258,-5.6269,-5.5985,-5.5466,-3.8843,-3.7811,-3.6902,-3.5495,-3.3875,-3.3251,-3.1984,-3.0286,-2.9007,-2.803,-2.7211,-2.6318,-2.5944,-2.5823,-2.5311,-2.5328,-2.5576,-2.3977,-2.2369,-2.0888,-2.0073,-1.8572,-1.7006,-1.772,-1.9138,-2.0834,-2.2632,-2.3659,-2.3763,-2.3456,-2.3224,-2.3185,-2.3015,-2.3447,-2.4161,-2.3463,-2.3526,-2.4467,-2.4484,-2.4774,-2.5451,-2.5931,-2.6647,-2.7844,-2.9234,-3.0942,-3.2844,-3.444,-3.5538,-3.6061,-3.627,-3.6453,-3.6625,-3.6411,-3.6885,-3.821,-3.8677,-3.996,-4.2311,-4.3149,-4.391,-4.5172,-4.5621,-4.5572,-4.5101,-4.524,-4.4766,-4.396,-4.378,-4.37,-4.3247,-4.3548,-4.3965,-4.3865,-4.2743,-4.2154,-4.2708,-4.1881,-4.1485,-4.1648,-4.1959,-4.2169,-4.2149,-4.1232,-4.0912,-4.1199,-3.9783,-3.9323,-4.0095,-4.0517,-4.1041,-4.188,-4.2211,-4.29,-4.3772,-4.4514,-4.515,-4.5911,-4.6578,-4.7312,-4.7879,-4.8519,-4.9366,-5.0609,-5.1564,-5.2219,-5.3104,-5.4166,-5.5044,-5.5847,-5.6376,-5.6694,-5.6842,-5.7087,-5.6628,-3.7174,-3.649,-3.6358,-3.4795,-3.2915,-3.1757,-3.0462,-2.923,-2.7876,-2.7136,-2.6599,-2.5812,-2.5458,-2.5198,-2.4382,-2.4025,-2.415,-2.3246,-2.2042,-2.058,-1.9081,-1.7221,-1.5433,-1.6743,-1.8702,-2.1011,-2.3822,-2.484,-2.4084,-2.3346,-2.2843,-2.2702,-2.2504,-2.3007,-2.4047,-2.32,-2.3021,-2.3941,-2.436,-2.4547,-2.4795,-2.5768,-2.6576,-2.7387,-2.8311,-3.0105,-3.3001,-3.4384,-3.5496,-3.6375,-3.6456,-3.63,-3.5851,-3.5742,-3.6291,-3.7209,-3.7698,-3.9127,-4.1366,-4.2122,-4.3182,-4.4485,-4.4856,-4.5116,-4.5082,-4.5001,-4.4722,-4.406,-4.382,-4.3443,-4.2562,-4.2566,-4.2819,-4.3005,-4.2154,-4.167,-4.1933,-4.1591,-4.1346,-4.178,-4.2127,-4.2374,-4.2315,-4.1897,-4.1577,-4.1502,-4.0811,-4.0367,-4.109,-4.1513,-4.2335,-4.3331,-4.3491,-4.3589,-4.4147,-4.4626,-4.5165,-4.576,-4.6382,-4.7043,-4.7488,-4.8077,-4.8897,-5.0065,-5.1581,-5.2305,-5.3297,-5.4338,-5.5482,-5.6306,-5.6729,-5.7268,-5.7614,-5.7884,-5.7954,-3.452,-3.3621,-3.3301,-3.2208,-3.0803,-3.0139,-2.9391,-2.8505,-2.761,-2.702,-2.6668,-2.5777,-2.5098,-2.4683,-2.3954,-2.3491,-2.3165,-2.2531,-2.1427,-1.999,-1.9256,-1.7993,-1.6641,-1.7634,-2.038,-2.404,-2.6664,-2.7064,-2.5616,-2.4292,-2.3558,-2.3461,-2.3077,-2.3563,-2.468,-2.3938,-2.3907,-2.4786,-2.4632,-2.4889,-2.5775,-2.6215,-2.6588,-2.7029,-2.774,-2.8935,-3.0345,-3.2627,-3.466,-3.6269,-3.5547,-3.4943,-3.4845,-3.5134,-3.5816,-3.6966,-3.7871,-3.9314,-4.1466,-4.2992,-4.4236,-4.5397,-4.5857,-4.5877,-4.5809,-4.5646,-4.4975,-4.3869,-4.3523,-4.3083,-4.1997,-4.2114,-4.2693,-4.3339,-4.2575,-4.2181,-4.2535,-4.2009,-4.171,-4.1866,-4.2287,-4.257,-4.2544,-4.223,-4.2123,-4.2487,-4.1869,-4.1647,-4.2566,-4.2858,-4.323,-4.4103,-4.4112,-4.4218,-4.4626,-4.492,-4.5257,-4.5658,-4.6177,-4.6656,-4.7145,-4.7717,-4.8483,-4.9873,-5.1349,-5.2564,-5.3556,-5.4741,-5.5953,-5.6881,-5.7585,-5.8088,-5.8527,-5.8773,-5.8878,-3.2074,-3.1302,-3.1221,-3.0492,-2.9323,-2.8889,-2.8257,-2.7456,-2.6716,-2.6259,-2.5773,-2.4967,-2.4412,-2.4021,-2.332,-2.29,-2.2626,-2.2333,-2.1773,-2.0788,-2.0032,-1.9178,-1.849,-2.0677,-2.3487,-2.6804,-2.8928,-2.908,-2.7589,-2.6147,-2.5182,-2.4818,-2.4124,-2.4105,-2.4787,-2.4329,-2.4365,-2.502,-2.4986,-2.5461,-2.6216,-2.6353,-2.635,-2.6483,-2.6652,-2.7062,-2.7775,-2.9656,-3.1985,-3.4326,-3.4464,-3.4418,-3.4613,-3.5282,-3.6242,-3.7559,-3.8739,-4.0216,-4.2456,-4.4033,-4.5439,-4.6556,-4.7103,-4.7037,-4.6812,-4.6549,-4.5725,-4.4397,-4.4165,-4.3582,-4.2345,-4.259,-4.3208,-4.3485,-4.3075,-4.2819,-4.284,-4.2149,-4.1754,-4.1987,-4.2328,-4.2609,-4.2659,-4.2703,-4.2595,-4.2996,-4.296,-4.2812,-4.3776,-4.4263,-4.4677,-4.49,-4.5035,-4.5106,-4.515,-4.5293,-4.5383,-4.5659,-4.596,-4.6329,-4.6767,-4.7456,-4.8205,-5.0417,-5.2157,-5.3317,-5.4323,-5.5484,-5.6681,-5.7525,-5.8369,-5.8827,-5.9222,-5.9706,-5.9749,-2.9667,-2.9651,-2.9953,-2.9391,-2.8371,-2.7822,-2.7062,-2.6087,-2.5308,-2.4781,-2.4259,-2.3602,-2.3345,-2.3279,-2.2492,-2.2227,-2.252,-2.2455,-2.2755,-2.2715,-2.1963,-2.1122,-2.1636,-2.4562,-2.7202,-2.922,-3.0655,-3.0761,-2.9893,-2.8397,-2.7293,-2.6395,-2.5358,-2.4615,-2.4585,-2.4258,-2.4415,-2.4775,-2.5271,-2.5796,-2.6421,-2.6104,-2.5777,-2.5674,-2.5252,-2.5163,-2.5469,-2.6614,-2.8702,-3.2019,-3.3764,-3.4817,-3.5439,-3.6248,-3.7557,-3.9151,-3.9944,-4.1677,-4.3833,-4.4995,-4.6201,-4.7926,-4.8242,-4.824,-4.7809,-4.759,-4.6944,-4.5503,-4.5372,-4.4759,-4.3607,-4.3774,-4.405,-4.3768,-4.3506,-4.3096,-4.2462,-4.1915,-4.1692,-4.1881,-4.2257,-4.2613,-4.2693,-4.2811,-4.3069,-4.3214,-4.3615,-4.383,-4.4331,-4.4895,-4.578,-4.5868,-4.5638,-4.5387,-4.5251,-4.5179,-4.5308,-4.5757,-4.6006,-4.6329,-4.6944,-4.7703,-4.8291,-5.054,-5.298,-5.4068,-5.5086,-5.6304,-5.7394,-5.8343,-5.8976,-5.946,-5.9812,-6.0129,-6.0135,-2.7582,-2.7086,-2.7581,-2.7351,-2.6572,-2.5959,-2.5525,-2.5083,-2.4473,-2.4143,-2.3821,-2.3044,-2.2715,-2.2738,-2.1924,-2.1665,-2.2025,-2.2205,-2.2924,-2.4014,-2.4498,-2.478,-2.5497,-2.7456,-2.9673,-3.1585,-3.246,-3.27,-3.201,-3.0406,-2.9052,-2.7697,-2.6501,-2.5678,-2.5356,-2.4933,-2.4867,-2.4766,-2.482,-2.524,-2.5676,-2.5646,-2.5068,-2.4151,-2.4353,-2.4164,-2.3977,-2.6366,-2.8931,-3.1581,-3.3953,-3.6014,-3.7689,-3.8695,-3.9734,-4.0989,-4.1832,-4.2825,-4.4517,-4.5853,-4.7369,-4.8978,-4.9078,-4.887,-4.8888,-4.8508,-4.7608,-4.6485,-4.6104,-4.5702,-4.4814,-4.492,-4.4997,-4.4467,-4.3736,-4.3096,-4.2462,-4.196,-4.1516,-4.1279,-4.1971,-4.221,-4.2114,-4.2482,-4.3032,-4.3105,-4.3469,-4.3943,-4.4554,-4.4765,-4.5256,-4.575,-4.5708,-4.542,-4.5204,-4.5096,-4.5264,-4.5825,-4.623,-4.6611,-4.75,-4.8529,-4.9078,-5.0171,-5.3563,-5.5262,-5.6094,-5.7103,-5.8062,-5.9053,-5.9601,-6.0016,-5.996,-6.0043,-6.0078,-2.5492,-2.5059,-2.5847,-2.5769,-2.5098,-2.474,-2.4509,-2.4157,-2.364,-2.3336,-2.318,-2.2423,-2.2245,-2.2482,-2.185,-2.1762,-2.2101,-2.2617,-2.349,-2.4791,-2.6624,-2.7606,-2.8261,-2.9523,-3.1112,-3.2731,-3.3742,-3.3807,-3.3271,-3.2217,-3.0643,-2.865,-2.7216,-2.595,-2.4723,-2.4291,-2.4015,-2.3815,-2.3915,-2.4179,-2.4435,-2.4372,-2.3618,-2.2655,-2.2696,-2.2468,-2.272,-2.5277,-2.8335,-3.1579,-3.4673,-3.7467,-4.0,-4.1176,-4.2294,-4.367,-4.4238,-4.5037,-4.6212,-4.7192,-4.8452,-4.9941,-4.9998,-4.9768,-4.9758,-4.9415,-4.8634,-4.7554,-4.7302,-4.6746,-4.592,-4.543,-4.4749,-4.3755,-4.3249,-4.2784,-4.2332,-4.1925,-4.1376,-4.1173,-4.1431,-4.1818,-4.1101,-4.194,-4.2414,-4.2741,-4.3323,-4.3978,-4.4667,-4.459,-4.4654,-4.5224,-4.5431,-4.5142,-4.4957,-4.4885,-4.5126,-4.5688,-4.7088,-4.7333,-4.821,-4.9462,-5.0823,-5.1985,-5.4477,-5.642,-5.7289,-5.7991,-5.8694,-5.9503,-6.0086,-6.0375,-6.0288,-6.0369,-6.0334,-2.3507,-2.3566,-2.4643,-2.457,-2.3846,-2.3961,-2.3779,-2.3281,-2.307,-2.2871,-2.2753,-2.2146,-2.2371,-2.2684,-2.2252,-2.2237,-2.2699,-2.332,-2.4432,-2.5991,-2.8114,-2.9645,-2.9827,-3.08,-3.2012,-3.3186,-3.4278,-3.4438,-3.3967,-3.3567,-3.1733,-2.9218,-2.7317,-2.552,-2.401,-2.2964,-2.2435,-2.239,-2.2481,-2.2568,-2.2554,-2.2405,-2.1791,-2.0957,-2.0162,-2.0555,-2.1607,-2.3866,-2.73,-3.245,-3.5823,-3.9077,-4.1917,-4.3428,-4.4852,-4.6118,-4.6468,-4.6986,-4.822,-4.8398,-4.9309,-5.0799,-5.0788,-5.0533,-5.0422,-5.0198,-4.9642,-4.8495,-4.8532,-4.7794,-4.6679,-4.5336,-4.3996,-4.2987,-4.2532,-4.2437,-4.2089,-4.189,-4.1498,-4.08,-4.1109,-4.1027,-4.0853,-4.1071,-4.1651,-4.1904,-4.2596,-4.3395,-4.3939,-4.408,-4.4328,-4.4867,-4.4899,-4.475,-4.4678,-4.4638,-4.5018,-4.5652,-4.764,-4.859,-4.921,-5.0576,-5.2549,-5.4358,-5.5637,-5.7122,-5.8632,-5.9229,-5.9545,-5.9762,-6.0148,-6.0504,-6.0788,-6.0936,-6.0939,-2.276,-2.2553,-2.3213,-2.3097,-2.2473,-2.2862,-2.3044,-2.2922,-2.3315,-2.3467,-2.3539,-2.3355,-2.3335,-2.3334,-2.2872,-2.2792,-2.3054,-2.366,-2.4909,-2.7369,-2.9275,-3.0721,-3.1218,-3.1951,-3.3005,-3.4076,-3.4384,-3.4547,-3.4302,-3.3194,-3.1337,-2.8707,-2.6867,-2.5187,-2.3326,-2.2088,-2.1479,-2.1092,-2.0818,-2.0635,-2.0479,-2.0211,-1.9773,-1.9058,-1.8164,-1.8465,-2.0195,-2.3359,-2.8058,-3.3108,-3.7132,-4.0665,-4.3751,-4.5537,-4.6843,-4.7591,-4.7477,-4.766,-4.864,-4.8888,-4.9344,-5.1134,-5.1021,-5.0724,-5.0577,-5.0569,-4.9921,-4.9085,-4.8853,-4.8305,-4.6873,-4.5441,-4.3926,-4.2835,-4.268,-4.2549,-4.1648,-4.1565,-4.1533,-4.1073,-4.1117,-4.1176,-4.0601,-4.0671,-4.0995,-4.1174,-4.1795,-4.2596,-4.303,-4.3389,-4.3824,-4.4258,-4.3855,-4.3671,-4.3996,-4.4209,-4.4844,-4.5681,-4.7593,-4.9401,-5.0011,-5.1351,-5.3268,-5.4781,-5.6082,-5.7675,-5.9271,-5.9832,-5.9943,-6.0124,-6.0338,-6.0796,-6.115,-6.1361,-6.171,-2.1485,-2.0978,-2.1682,-2.182,-2.1632,-2.2288,-2.2884,-2.3466,-2.3913,-2.4275,-2.4467,-2.4137,-2.401,-2.4134,-2.3707,-2.3492,-2.3536,-2.3948,-2.551,-2.7726,-2.9315,-3.0498,-3.1689,-3.2374,-3.3307,-3.453,-3.4683,-3.4519,-3.4,-3.2791,-3.0786,-2.7908,-2.6207,-2.4183,-2.213,-2.0784,-1.9658,-1.8911,-1.8402,-1.7945,-1.7359,-1.7329,-1.6811,-1.6299,-1.5802,-1.6552,-1.9292,-2.3561,-2.8841,-3.4431,-3.9265,-4.3168,-4.6192,-4.7836,-4.8827,-4.9315,-4.9202,-4.8871,-4.9331,-4.9396,-4.9835,-5.1378,-5.0832,-5.1056,-5.0967,-5.0853,-4.9897,-4.9294,-4.908,-4.8604,-4.6725,-4.495,-4.3558,-4.2638,-4.2417,-4.2221,-4.1877,-4.2021,-4.1858,-4.1109,-4.0831,-4.0526,-4.0274,-4.034,-4.0227,-4.0297,-4.15,-4.2268,-4.2305,-4.2705,-4.2994,-4.3174,-4.2663,-4.2589,-4.3134,-4.3746,-4.4597,-4.5753,-4.7369,-4.9103,-5.0312,-5.1981,-5.3822,-5.5297,-5.6806,-5.8079,-5.9424,-5.9879,-6.0303,-6.0517,-6.0732,-6.1154,-6.1537,-6.1883,-6.226,-1.9978,-1.9179,-2.0061,-2.0713,-2.1105,-2.1971,-2.3131,-2.4241,-2.4575,-2.5026,-2.5425,-2.4816,-2.4755,-2.4737,-2.4247,-2.3971,-2.3924,-2.425,-2.5569,-2.7664,-2.838,-2.9668,-3.0981,-3.1782,-3.2549,-3.3821,-3.4002,-3.3872,-3.3122,-3.1978,-2.9548,-2.6934,-2.5126,-2.3076,-2.0881,-1.9076,-1.7803,-1.6832,-1.593,-1.4921,-1.3975,-1.4066,-1.371,-1.334,-1.4161,-1.6343,-1.9973,-2.4523,-2.9855,-3.6247,-4.1981,-4.6059,-4.8727,-5.0092,-5.0894,-5.1254,-5.0974,-5.0617,-5.0345,-5.0379,-5.0767,-5.1565,-5.0724,-5.076,-5.1442,-5.0805,-4.9968,-4.9583,-4.9332,-4.8641,-4.6652,-4.5114,-4.3668,-4.2695,-4.2167,-4.2142,-4.2433,-4.2736,-4.2306,-4.1534,-4.0828,-4.0274,-3.9912,-3.9758,-3.9604,-3.9707,-4.0915,-4.1718,-4.1719,-4.1866,-4.2159,-4.2232,-4.1796,-4.1977,-4.2449,-4.317,-4.4065,-4.5466,-4.7048,-4.8841,-5.0487,-5.2319,-5.408,-5.6064,-5.7604,-5.8759,-5.9604,-6.0233,-6.0621,-6.0872,-6.1259,-6.1744,-6.2122,-6.2354,-6.2729,-1.8612,-1.8127,-1.8748,-1.9485,-2.04,-2.1789,-2.3206,-2.4393,-2.5303,-2.5732,-2.5939,-2.5888,-2.5434,-2.5021,-2.4302,-2.3861,-2.3689,-2.3902,-2.5018,-2.6631,-2.7228,-2.8264,-2.9654,-3.0093,-3.0825,-3.1669,-3.2,-3.1837,-3.1303,-2.9693,-2.778,-2.5561,-2.3653,-2.1731,-1.997,-1.8166,-1.6237,-1.4638,-1.3507,-1.2319,-1.132,-1.1313,-1.1785,-1.1954,-1.3825,-1.7293,-2.1589,-2.6368,-3.2244,-3.9344,-4.4003,-4.773,-5.029,-5.1396,-5.1997,-5.2345,-5.2077,-5.1588,-5.1302,-5.156,-5.135,-5.1079,-5.0767,-5.0641,-5.0684,-5.0372,-5.0131,-5.0005,-4.953,-4.8719,-4.7964,-4.6197,-4.469,-4.3774,-4.3316,-4.3166,-4.2807,-4.2771,-4.3022,-4.2423,-4.1324,-4.0202,-3.9948,-3.9504,-3.8988,-3.9159,-3.9995,-4.058,-4.0687,-4.0876,-4.1172,-4.1138,-4.1028,-4.1395,-4.1905,-4.2665,-4.3563,-4.4928,-4.6585,-4.865,-5.0398,-5.237,-5.4235,-5.6265,-5.7821,-5.8969,-5.9744,-6.0618,-6.0906,-6.112,-6.1674,-6.2361,-6.2454,-6.2507,-6.2781,-1.6159,-1.5749,-1.7251,-1.8658,-2.0046,-2.1952,-2.3584,-2.4982,-2.5897,-2.6355,-2.6296,-2.5931,-2.5591,-2.503,-2.3896,-2.3225,-2.2917,-2.3045,-2.3793,-2.4737,-2.5384,-2.6126,-2.739,-2.7577,-2.8121,-2.8498,-2.8531,-2.9023,-2.9379,-2.8081,-2.6072,-2.4129,-2.2539,-2.0902,-1.8807,-1.6603,-1.4494,-1.2552,-1.0812,-0.9367,-0.8228,-0.8711,-0.9826,-1.1958,-1.5277,-1.947,-2.4569,-2.9816,-3.5534,-4.1533,-4.5653,-4.8521,-5.0524,-5.1866,-5.2465,-5.2872,-5.2536,-5.2052,-5.1625,-5.14,-5.0751,-5.0602,-5.0371,-5.0337,-5.03,-5.0341,-5.0445,-5.0919,-5.0336,-4.9778,-4.9781,-4.766,-4.6283,-4.5543,-4.4694,-4.4038,-4.379,-4.3443,-4.3305,-4.31,-4.1446,-4.0376,-4.0203,-3.9545,-3.8664,-3.8757,-3.9292,-3.9543,-3.9758,-4.002,-4.0394,-4.058,-4.0617,-4.0808,-4.1321,-4.2123,-4.3059,-4.4474,-4.6184,-4.8296,-5.0538,-5.2521,-5.4383,-5.6286,-5.7666,-5.9085,-6.0403,-6.1383,-6.1361,-6.1466,-6.2329,-6.2944,-6.2638,-6.265,-6.2897,-1.3587,-1.361,-1.5985,-1.8082,-1.9886,-2.2029,-2.3806,-2.5189,-2.6109,-2.6368,-2.6255,-2.5418,-2.4977,-2.4576,-2.3428,-2.223,-2.1597,-2.194,-2.231,-2.2798,-2.3221,-2.3885,-2.4417,-2.4684,-2.5154,-2.5588,-2.5456,-2.5526,-2.6994,-2.6123,-2.4603,-2.2997,-2.1756,-2.0062,-1.7741,-1.5315,-1.2586,-1.0212,-0.8177,-0.655,-0.5952,-0.7012,-0.9387,-1.2537,-1.7293,-2.2758,-2.8746,-3.3866,-3.9113,-4.3869,-4.7244,-4.9309,-5.0558,-5.1731,-5.2558,-5.2798,-5.2528,-5.2042,-5.1381,-5.0873,-5.0413,-4.9852,-4.9271,-4.9458,-4.9814,-5.008,-5.0648,-5.1939,-5.1637,-5.1053,-5.1078,-4.9491,-4.8274,-4.7463,-4.614,-4.4814,-4.4783,-4.4399,-4.3657,-4.2812,-4.1209,-4.051,-4.0311,-3.9297,-3.8347,-3.8465,-3.903,-3.9234,-3.9412,-3.9479,-3.9816,-4.0157,-4.0308,-4.0321,-4.0805,-4.1504,-4.2629,-4.3985,-4.5909,-4.8035,-5.0449,-5.2834,-5.4695,-5.6715,-5.789,-5.9307,-6.0726,-6.1911,-6.1988,-6.2297,-6.3231,-6.3388,-6.2753,-6.26,-6.2855,-1.1519,-1.3101,-1.523,-1.7456,-1.9713,-2.1936,-2.334,-2.4146,-2.5402,-2.5566,-2.4909,-2.4311,-2.3794,-2.3051,-2.1931,-2.1031,-2.0536,-2.0555,-2.0962,-2.1485,-2.1524,-2.1864,-2.2356,-2.2557,-2.2798,-2.3119,-2.3275,-2.4293,-2.5004,-2.387,-2.2885,-2.1896,-1.9927,-1.8019,-1.6821,-1.4026,-1.1548,-0.9051,-0.7141,-0.5817,-0.5533,-0.7158,-1.0694,-1.5357,-2.089,-2.7042,-3.3533,-3.8456,-4.2912,-4.7148,-4.9087,-5.0281,-5.1323,-5.2066,-5.2409,-5.2563,-5.2507,-5.2218,-5.1384,-5.0769,-5.0069,-4.9162,-4.8756,-4.8785,-4.9194,-4.9931,-5.0903,-5.2438,-5.2154,-5.2235,-5.2547,-5.1764,-5.0701,-4.9482,-4.827,-4.6882,-4.6315,-4.5161,-4.4347,-4.3349,-4.2002,-4.101,-4.0455,-3.9192,-3.8138,-3.8437,-3.8695,-3.8927,-3.9128,-3.9232,-3.9298,-3.9644,-3.981,-3.9827,-4.0354,-4.1061,-4.2304,-4.3671,-4.5677,-4.7844,-5.0484,-5.3008,-5.5479,-5.7213,-5.8455,-5.9734,-6.1327,-6.2162,-6.2472,-6.2848,-6.3289,-6.3049,-6.2581,-6.2615,-6.277,-0.8642,-1.096,-1.4197,-1.6881,-1.9178,-2.1429,-2.2779,-2.356,-2.4192,-2.4181,-2.343,-2.2745,-2.1749,-2.0483,-1.9459,-1.8655,-1.823,-1.8841,-1.9202,-1.9864,-2.0053,-2.0466,-2.0599,-2.073,-2.0796,-2.1104,-2.1303,-2.1809,-2.2398,-2.2447,-2.174,-2.0346,-1.8732,-1.7055,-1.5602,-1.2596,-1.0189,-0.804,-0.6211,-0.5449,-0.6745,-0.9671,-1.3973,-1.952,-2.6181,-3.2754,-3.8515,-4.307,-4.665,-4.9812,-5.0478,-5.0307,-5.0725,-5.1119,-5.1165,-5.0645,-5.0858,-5.0939,-5.0929,-5.0059,-4.9052,-4.8519,-4.8279,-4.8416,-4.9048,-5.0071,-5.1337,-5.3084,-5.3292,-5.3558,-5.3805,-5.3362,-5.2569,-5.1443,-4.9748,-4.8572,-4.7265,-4.5961,-4.4893,-4.3885,-4.2789,-4.1769,-4.0817,-3.9766,-3.8776,-3.8496,-3.8713,-3.8966,-3.909,-3.9147,-3.9147,-3.9184,-3.9224,-3.9252,-3.9968,-4.072,-4.2196,-4.3674,-4.5507,-4.7837,-5.0643,-5.3206,-5.5859,-5.8254,-5.9979,-6.1154,-6.2158,-6.247,-6.271,-6.2944,-6.3136,-6.2821,-6.2537,-6.2381,-6.2459,-0.8044,-1.0759,-1.4025,-1.6476,-1.8455,-2.0765,-2.1963,-2.2503,-2.2926,-2.2666,-2.1874,-2.09,-1.9217,-1.7739,-1.7282,-1.7046,-1.6581,-1.771,-1.8164,-1.8634,-1.912,-1.9639,-1.9724,-1.9571,-1.9502,-1.961,-1.9767,-2.0161,-2.0497,-2.065,-2.0192,-1.9061,-1.7723,-1.6125,-1.406,-1.1827,-0.9597,-0.7932,-0.6596,-0.7056,-0.9427,-1.3648,-1.9075,-2.5265,-3.1935,-3.8611,-4.3964,-4.7491,-5.0454,-5.1607,-5.1371,-5.0988,-5.086,-5.0861,-5.07,-5.0265,-5.0348,-5.059,-5.0338,-4.9479,-4.8176,-4.7803,-4.7903,-4.8234,-4.9452,-5.0464,-5.1488,-5.293,-5.3097,-5.3775,-5.4403,-5.3696,-5.2961,-5.1824,-5.0702,-4.9549,-4.8374,-4.6905,-4.5552,-4.4414,-4.3411,-4.2438,-4.147,-4.0484,-3.9597,-3.881,-3.8803,-3.9007,-3.9157,-3.9276,-3.9212,-3.9222,-3.9155,-3.9268,-3.9853,-4.0753,-4.2158,-4.3782,-4.5614,-4.812,-5.1115,-5.3862,-5.6564,-5.8875,-6.0976,-6.1865,-6.241,-6.2733,-6.2948,-6.2999,-6.2973,-6.2855,-6.2693,-6.2459,-6.2144,-1.1687,-1.4549,-1.5162,-1.6476,-1.8117,-2.0443,-2.1101,-2.0968,-2.1377,-2.1122,-2.0151,-1.8611,-1.6958,-1.5903,-1.6079,-1.6445,-1.6706,-1.7749,-1.8903,-1.9452,-1.9615,-2.0028,-1.9871,-1.9443,-1.892,-1.917,-1.9083,-1.9052,-1.9018,-1.9179,-1.9156,-1.887,-1.7093,-1.5229,-1.3742,-1.2234,-1.0492,-0.9563,-0.9477,-1.1339,-1.4509,-1.895,-2.4728,-3.1148,-3.7318,-4.3256,-4.8912,-5.1229,-5.2739,-5.3703,-5.27,-5.1934,-5.1613,-5.1451,-5.1255,-5.1052,-5.1002,-5.119,-5.0915,-4.9578,-4.8089,-4.7635,-4.7644,-4.812,-4.9111,-4.9083,-5.0188,-5.1924,-5.226,-5.2556,-5.2962,-5.2867,-5.2475,-5.2006,-5.1045,-5.0003,-4.8856,-4.7625,-4.6302,-4.5029,-4.4025,-4.3104,-4.2333,-4.1434,-4.0289,-3.949,-3.9064,-3.9283,-3.956,-3.9687,-3.9496,-3.9442,-3.9314,-3.9475,-3.9989,-4.1013,-4.2268,-4.4097,-4.606,-4.8831,-5.1856,-5.4606,-5.7327,-5.9045,-6.0895,-6.1804,-6.2719,-6.3015,-6.3124,-6.2931,-6.277,-6.2693,-6.2381,-6.2064,-6.1823,-1.8644,-2.0399,-2.0711,-2.0107,-1.8981,-1.9826,-2.0206,-2.0139,-1.9615,-1.8559,-1.7358,-1.6051,-1.511,-1.4731,-1.5319,-1.6316,-1.7582,-1.9482,-2.0871,-2.2138,-2.2708,-2.2571,-2.184,-2.0695,-2.0002,-1.9504,-1.8964,-1.8823,-1.9193,-1.8529,-1.8308,-1.7849,-1.6926,-1.5661,-1.4334,-1.3568,-1.2521,-1.3277,-1.5485,-1.8686,-2.0503,-2.5728,-3.167,-3.7796,-4.3614,-4.8489,-5.2496,-5.3817,-5.4703,-5.4771,-5.3686,-5.3028,-5.2743,-5.2637,-5.2552,-5.2457,-5.2486,-5.2536,-5.2098,-5.0605,-4.9081,-4.8367,-4.8067,-4.8088,-4.8733,-4.8569,-4.9477,-5.0566,-5.125,-5.1495,-5.2547,-5.2394,-5.1929,-5.1827,-5.1133,-5.0046,-4.9032,-4.7715,-4.6638,-4.52,-4.4525,-4.3831,-4.3111,-4.2433,-4.1245,-4.0225,-3.9821,-3.9665,-4.0052,-4.0315,-4.0265,-4.021,-4.016,-4.0267,-4.0745,-4.1562,-4.2414,-4.4443,-4.6504,-4.931,-5.2277,-5.5444,-5.7946,-5.9524,-6.0808,-6.1919,-6.2727,-6.3178,-6.3212,-6.2965,-6.2717,-6.2537,-6.211,-6.1695,-6.1499,-2.6736,-2.7728,-2.7519,-2.4718,-2.0968,-2.0704,-2.0539,-2.0119,-1.9271,-1.7304,-1.5118,-1.4512,-1.4242,-1.4462,-1.582,-1.7564,-1.9674,-2.1786,-2.3784,-2.4943,-2.5599,-2.5414,-2.4213,-2.2916,-2.1585,-2.0626,-1.962,-1.9484,-1.9948,-1.8812,-1.8626,-1.8436,-1.7881,-1.7082,-1.571,-1.5608,-1.5628,-1.7574,-2.1396,-2.5929,-2.7338,-3.2999,-3.8494,-4.4005,-4.8923,-5.2277,-5.4761,-5.5853,-5.5953,-5.5575,-5.4677,-5.3825,-5.3836,-5.4005,-5.4112,-5.4218,-5.4282,-5.4386,-5.3891,-5.2108,-5.0496,-4.9913,-4.8738,-4.8493,-4.836,-4.8267,-4.8601,-4.9337,-4.9901,-5.0469,-5.1367,-5.0581,-5.0275,-4.9974,-4.9683,-4.8781,-4.8266,-4.7279,-4.636,-4.526,-4.4816,-4.4432,-4.3899,-4.3194,-4.2495,-4.1543,-4.1254,-4.1071,-4.1283,-4.1387,-4.1267,-4.1267,-4.1268,-4.1415,-4.1693,-4.2362,-4.3141,-4.5036,-4.7216,-4.9608,-5.2542,-5.5667,-5.8187,-5.9575,-6.0849,-6.2096,-6.2584,-6.2809,-6.2888,-6.29,-6.2775,-6.2784,-6.2092,-6.1667,-6.1152,-3.6088,-3.6356,-3.4766,-2.9971,-2.4183,-2.3426,-2.2676,-2.143,-2.0125,-1.7991,-1.539,-1.4855,-1.5118,-1.5926,-1.8249,-2.0736,-2.2998,-2.5279,-2.7262,-2.8677,-2.8886,-2.7799,-2.6453,-2.5224,-2.3966,-2.2798,-2.1678,-2.0918,-2.1231,-2.0303,-1.979,-1.9988,-2.0187,-1.9732,-1.7131,-1.8153,-2.0007,-2.2683,-2.6889,-3.0751,-3.4858,-4.0067,-4.511,-4.9311,-5.2584,-5.5335,-5.6526,-5.6936,-5.6824,-5.6245,-5.5196,-5.4695,-5.5107,-5.547,-5.5835,-5.6416,-5.6124,-5.6393,-5.6862,-5.3842,-5.2463,-5.1642,-5.046,-4.9419,-4.8976,-4.8375,-4.7904,-4.9127,-4.837,-4.8163,-4.8159,-4.8276,-4.8541,-4.8837,-4.8707,-4.8229,-4.7777,-4.6941,-4.6034,-4.5423,-4.5226,-4.4935,-4.4449,-4.3943,-4.3488,-4.2959,-4.2645,-4.2552,-4.2569,-4.2633,-4.2593,-4.2347,-4.2355,-4.223,-4.2446,-4.2944,-4.394,-4.5825,-4.7864,-5.0165,-5.2693,-5.5619,-5.7797,-5.9512,-6.0603,-6.1593,-6.2005,-6.2312,-6.2479,-6.2829,-6.3149,-6.305,-6.2282,-6.1532,-6.0915,-4.4349,-4.3681,-4.1775,-3.8493,-3.385,-2.8086,-2.5298,-2.3955,-2.1596,-1.9239,-1.7751,-1.8109,-1.8805,-2.0063,-2.2572,-2.5312,-2.7856,-3.0059,-3.2119,-3.3207,-3.2907,-3.183,-3.0336,-2.8597,-2.7025,-2.5315,-2.3787,-2.283,-2.2889,-2.2147,-2.1764,-2.193,-2.3418,-2.3383,-2.3119,-2.4147,-2.6486,-2.9097,-3.2999,-3.7058,-4.0985,-4.5762,-5.0154,-5.3782,-5.5598,-5.6928,-5.7741,-5.7468,-5.692,-5.6631,-5.5654,-5.5683,-5.6689,-5.7319,-5.8251,-5.8998,-5.9065,-5.9421,-5.9175,-5.7305,-5.5434,-5.4012,-5.2259,-5.1143,-5.0916,-5.0157,-4.967,-4.9135,-4.8506,-4.8628,-4.9272,-4.8503,-4.8565,-4.9391,-4.9312,-4.8538,-4.7844,-4.6722,-4.5801,-4.5498,-4.5236,-4.5143,-4.4789,-4.4852,-4.4554,-4.463,-4.4424,-4.3933,-4.3759,-4.4037,-4.4098,-4.3653,-4.3441,-4.3212,-4.3304,-4.4143,-4.5108,-4.6773,-4.8572,-5.0453,-5.306,-5.5757,-5.7403,-5.9035,-6.0047,-6.106,-6.1517,-6.2016,-6.2345,-6.2742,-6.2822,-6.2524,-6.1593,-6.0909,-6.0337,-5.077,-4.9781,-4.7984,-4.5757,-4.2163,-3.4357,-2.9901,-2.7887,-2.486,-2.2879,-2.2413,-2.3169,-2.4063,-2.5444,-2.792,-3.0407,-3.2802,-3.4729,-3.6136,-3.7162,-3.6697,-3.5488,-3.4062,-3.2384,-3.0683,-2.8657,-2.6886,-2.5754,-2.5507,-2.4584,-2.4813,-2.5939,-2.7406,-2.8714,-2.9164,-3.0509,-3.1841,-3.4835,-3.8872,-4.2912,-4.6542,-5.036,-5.3949,-5.6033,-5.73,-5.7875,-5.7828,-5.7324,-5.6631,-5.6658,-5.6551,-5.6532,-5.7998,-5.9597,-6.0371,-6.0896,-6.1336,-6.1382,-6.0755,-5.985,-5.8315,-5.7828,-5.4951,-5.3347,-5.286,-5.2011,-5.1225,-5.0538,-4.9784,-4.9559,-4.9668,-4.8771,-4.8952,-4.9817,-4.9067,-4.8255,-4.7936,-4.6839,-4.6163,-4.5836,-4.5571,-4.538,-4.5413,-4.5603,-4.5627,-4.5925,-4.6221,-4.5693,-4.518,-4.5366,-4.5643,-4.5375,-4.4953,-4.4739,-4.5058,-4.579,-4.6795,-4.7911,-4.9543,-5.1311,-5.3323,-5.5919,-5.7211,-5.8474,-5.9591,-6.0688,-6.1249,-6.1706,-6.2026,-6.2026,-6.1946,-6.1545,-6.0783,-6.0381,-5.9934,-5.5425,-5.4766,-5.3248,-5.118,-4.8161,-4.1016,-3.5895,-3.2404,-3.0036,-2.8888,-2.8785,-2.9119,-2.9927,-3.1326,-3.3801,-3.5596,-3.6844,-3.8611,-3.9502,-3.9859,-3.9485,-3.8574,-3.7517,-3.598,-3.407,-3.2418,-3.0673,-2.9061,-2.8524,-2.8118,-2.8702,-3.0192,-3.1767,-3.3489,-3.4708,-3.6055,-3.7206,-4.0314,-4.3902,-4.7363,-5.0385,-5.3857,-5.5977,-5.7378,-5.7746,-5.766,-5.7402,-5.6851,-5.6835,-5.6857,-5.6688,-5.7352,-5.8891,-6.1272,-6.1434,-6.1652,-6.2209,-6.2096,-6.1958,-6.109,-6.1047,-6.041,-5.8084,-5.622,-5.51,-5.4428,-5.3527,-5.2694,-5.1946,-5.0713,-4.9806,-4.9635,-4.947,-4.9118,-4.833,-4.8017,-4.7971,-4.7357,-4.6758,-4.6369,-4.6107,-4.6053,-4.6268,-4.6496,-4.6716,-4.7148,-4.7524,-4.8022,-4.7433,-4.6789,-4.7067,-4.7228,-4.6822,-4.643,-4.6862,-4.7582,-4.8269,-4.9293,-5.0708,-5.2415,-5.4381,-5.5909,-5.7005,-5.8171,-5.9317,-6.0233,-6.0791,-6.1241,-6.154,-6.1523,-6.1058,-6.0896,-6.0299,-6.0114,-5.9717,-5.6602,-5.595,-5.4085,-5.2491,-5.0847,-4.6884,-4.2345,-3.7929,-3.646,-3.5709,-3.496,-3.5867,-3.6155,-3.6954,-3.8701,-4.0068,-4.0979,-4.1909,-4.2447,-4.2567,-4.2181,-4.1383,-4.0268,-3.8915,-3.7126,-3.5197,-3.3541,-3.2201,-3.1536,-3.1303,-3.2056,-3.3456,-3.536,-3.7451,-3.9569,-4.1598,-4.2981,-4.4834,-4.826,-5.0584,-5.2652,-5.5241,-5.6739,-5.7409,-5.7283,-5.7087,-5.6886,-5.6458,-5.6609,-5.7135,-5.8203,-5.9096,-5.9481,-6.1542,-6.2512,-6.2835,-6.2891,-6.2698,-6.2711,-6.2181,-6.1989,-6.2359,-6.0853,-6.0184,-5.8988,-5.7602,-5.6321,-5.5413,-5.4641,-5.3661,-5.2374,-5.1775,-5.1356,-5.0657,-4.9814,-4.9212,-4.9208,-4.9092,-4.8467,-4.8028,-4.7722,-4.7622,-4.7767,-4.7457,-4.7753,-4.8226,-4.8758,-4.9377,-4.9434,-4.8716,-4.864,-4.8876,-4.8593,-4.8163,-4.8679,-4.9305,-4.9933,-5.0737,-5.205,-5.3265,-5.4768,-5.6063,-5.689,-5.7902,-5.9049,-5.9814,-6.025,-6.0606,-6.1012,-6.0366,-5.99,-5.9992,-5.9928,-5.9521,-5.9298,-5.6741,-5.6044,-5.4891,-5.3825,-5.2653,-5.0819,-4.7884,-4.482,-4.2631,-4.1346,-4.0962,-4.1301,-4.161,-4.1838,-4.3041,-4.384,-4.4088,-4.4673,-4.5024,-4.4793,-4.462,-4.3803,-4.2743,-4.1526,-3.9898,-3.806,-3.6388,-3.5143,-3.4513,-3.4825,-3.56,-3.6874,-3.865,-4.08,-4.3065,-4.556,-4.7761,-4.9214,-5.1119,-5.294,-5.4463,-5.5756,-5.6564,-5.7016,-5.6641,-5.6606,-5.661,-5.6233,-5.6709,-5.7703,-5.9183,-5.9564,-5.9816,-6.1226,-6.2549,-6.29,-6.3326,-6.3322,-6.3423,-6.3012,-6.3007,-6.3078,-6.3035,-6.2662,-6.184,-6.0638,-5.9508,-5.8525,-5.7753,-5.6853,-5.5445,-5.4216,-5.3601,-5.2993,-5.1962,-5.0937,-5.0913,-5.0966,-5.0588,-5.0117,-4.9864,-4.9701,-4.9429,-4.8952,-4.8985,-4.9792,-5.0203,-5.0372,-5.0418,-4.9935,-5.0212,-5.0708,-5.0342,-4.991,-5.0508,-5.1058,-5.1632,-5.2182,-5.2889,-5.4112,-5.5417,-5.6345,-5.7252,-5.7986,-5.8828,-5.9393,-5.9707,-5.9984,-6.0258,-5.9553,-5.9124,-5.9033,-5.8908,-5.8592,-5.8371,-5.5871,-5.5291,-5.5555,-5.5002,-5.4103,-5.3117,-5.2337,-5.1941,-4.7701,-4.6089,-4.6102,-4.5854,-4.5504,-4.5512,-4.6189,-4.6395,-4.6459,-4.6605,-4.6668,-4.6635,-4.6032,-4.5327,-4.4668,-4.3814,-4.1926,-4.0715,-3.9367,-3.7721,-3.736,-3.7841,-3.9043,-4.0304,-4.2636,-4.4449,-4.5828,-4.8397,-5.0359,-5.2034,-5.2941,-5.4122,-5.5414,-5.64,-5.6829,-5.6871,-5.6694,-5.6515,-5.6611,-5.6737,-5.7077,-5.8267,-5.8952,-5.916,-6.0149,-6.0518,-6.1687,-6.2724,-6.3416,-6.3723,-6.3866,-6.3615,-6.3916,-6.4064,-6.4098,-6.3913,-6.3237,-6.2747,-6.1729,-6.0597,-5.9715,-5.8337,-5.6873,-5.5606,-5.4795,-5.401,-5.3012,-5.2348,-5.2237,-5.2345,-5.2244,-5.1889,-5.1824,-5.1606,-5.116,-5.0673,-5.0368,-5.1377,-5.1496,-5.1412,-5.1764,-5.1429,-5.1699,-5.2399,-5.2361,-5.21,-5.2236,-5.279,-5.3277,-5.382,-5.4064,-5.4618,-5.5619,-5.6596,-5.7526,-5.8228,-5.8896,-5.8917,-5.925,-5.9434,-5.9489,-5.9096,-5.8656,-5.8273,-5.7959,-5.7586,-5.7525,-5.3313,-5.4142,-5.4886,-5.5044,-5.483,-5.4246,-5.3619,-5.2918,-5.1181,-4.9794,-4.9253,-4.8775,-4.8239,-4.794,-4.803,-4.8149,-4.8267,-4.7879,-4.7852,-4.7665,-4.7249,-4.6322,-4.5785,-4.478,-4.3396,-4.1791,-4.0493,-3.9986,-3.9778,-4.0769,-4.1845,-4.2325,-4.4701,-4.6628,-4.7615,-5.0047,-5.1929,-5.3547,-5.3956,-5.4456,-5.5441,-5.574,-5.5894,-5.5916,-5.5788,-5.6,-5.6104,-5.6354,-5.7346,-5.8589,-5.8466,-5.9341,-6.0893,-6.0724,-6.154,-6.2825,-6.3511,-6.378,-6.3967,-6.3986,-6.4142,-6.437,-6.4369,-6.4445,-6.4294,-6.4106,-6.3426,-6.2331,-6.1042,-5.955,-5.8197,-5.6958,-5.5772,-5.4871,-5.4028,-5.3783,-5.3563,-5.3652,-5.3739,-5.3707,-5.364,-5.3302,-5.2811,-5.2432,-5.2194,-5.2087,-5.1926,-5.2128,-5.3321,-5.352,-5.324,-5.3838,-5.4503,-5.4472,-5.424,-5.3751,-5.3939,-5.435,-5.4555,-5.5202,-5.5879,-5.6822,-5.7761,-5.8324,-5.8862,-5.8791,-5.8716,-5.8605,-5.8559,-5.8372,-5.7894,-5.732,-5.6837,-5.6433,-5.6567,-5.2794,-5.376,-5.5191,-5.5834,-5.5789,-5.5524,-5.4882,-5.4114,-5.3435,-5.2905,-5.2069,-5.0835,-4.9931,-4.963,-4.9607,-4.9583,-4.9674,-4.8951,-4.8715,-4.8477,-4.7608,-4.6711,-4.6017,-4.5177,-4.4214,-4.2739,-4.2005,-4.1631,-4.1765,-4.2995,-4.3945,-4.4378,-4.655,-4.8216,-4.9082,-5.081,-5.2367,-5.3787,-5.3986,-5.4514,-5.5086,-5.5208,-5.5293,-5.5269,-5.5496,-5.5764,-5.5936,-5.6253,-5.7262,-5.8484,-5.8891,-5.9525,-6.0713,-6.097,-6.1787,-6.2788,-6.3419,-6.3691,-6.3841,-6.39,-6.3986,-6.4142,-6.3954,-6.3689,-6.3766,-6.354,-6.3502,-6.241,-6.0715,-5.9201,-5.8505,-5.7408,-5.6378,-5.5412,-5.4905,-5.4572,-5.4549,-5.4689,-5.4747,-5.4786,-5.4708,-5.4528,-5.3981,-5.3328,-5.3186,-5.3314,-5.3048,-5.3286,-5.4405,-5.5081,-5.4961,-5.4815,-5.5275,-5.5399,-5.4855,-5.4252,-5.3882,-5.4394,-5.4931,-5.5414,-5.597,-5.7019,-5.8005,-5.8389,-5.8678,-5.8478,-5.8395,-5.8211,-5.7778,-5.749,-5.6946,-5.6274,-5.5819,-5.5451,-5.562,-5.3601,-5.4633,-5.6509,-5.7401,-5.7428,-5.6931,-5.6279,-5.5472,-5.5285,-5.509,-5.4637,-5.2691,-5.1623,-5.1426,-5.1436,-5.1417,-5.1029,-5.0005,-4.9523,-4.8625,-4.7229,-4.6394,-4.5639,-4.475,-4.4176,-4.3907,-4.3477,-4.3218,-4.312,-4.4734,-4.6036,-4.6559,-4.785,-4.9442,-5.0373,-5.1343,-5.2537,-5.3349,-5.3881,-5.4367,-5.4717,-5.4904,-5.5088,-5.5354,-5.5613,-5.5844,-5.6106,-5.6542,-5.7281,-5.8192,-5.9365,-6.0176,-6.0726,-6.1312,-6.207,-6.2925,-6.3373,-6.349,-6.3488,-6.3252,-6.3413,-6.3496,-6.3083,-6.2895,-6.2934,-6.286,-6.2784,-6.1995,-6.0266,-5.9213,-5.8455,-5.7947,-5.6942,-5.608,-5.5646,-5.5477,-5.5593,-5.56,-5.557,-5.5615,-5.5446,-5.5287,-5.479,-5.4182,-5.4148,-5.4322,-5.4605,-5.5021,-5.536,-5.5623,-5.5697,-5.5247,-5.509,-5.5128,-5.4883,-5.4662,-5.4061,-5.4243,-5.472,-5.5306,-5.5941,-5.6787,-5.7643,-5.8414,-5.8578,-5.8211,-5.8026,-5.7746,-5.7337,-5.6792,-5.6047,-5.5521,-5.5119,-5.4845,-5.4743,-5.516,-5.9234,-5.9563,-6.0216,-6.0738,-5.9182,-5.7774,-5.6996,-5.6541,-5.6119,-5.6201,-5.6381,-5.5687,-5.4309,-5.3545,-5.3284,-5.3082,-5.1389,-5.0063,-4.9223,-4.7108,-4.6066,-4.5341,-4.486,-4.4178,-4.4228,-4.4709,-4.5251,-4.4898,-4.6498,-4.7622,-4.7643,-4.9544,-5.0496,-5.0569,-5.1682,-5.2842,-5.3449,-5.3881,-5.4431,-5.4807,-5.5053,-5.5234,-5.5531,-5.5786,-5.5993,-5.6304,-5.708,-5.7694,-5.8497,-5.9488,-6.0481,-6.1105,-6.1606,-6.2291,-6.2878,-6.3373,-6.3297,-6.3184,-6.279,-6.2882,-6.2507,-6.2133,-6.1793,-6.1684,-6.1349,-6.1274,-6.105,-5.9701,-5.884,-5.8238,-5.8116,-5.7385,-5.6625,-5.6071,-5.6391,-5.6662,-5.6273,-5.596,-5.5731,-5.5417,-5.5185,-5.4836,-5.4565,-5.4627,-5.4836,-5.5063,-5.5508,-5.6364,-5.6469,-5.6459,-5.5871,-5.528,-5.4355,-5.3925,-5.4539,-5.433,-5.4402,-5.4641,-5.5501,-5.6086,-5.6338,-5.7058,-5.8046,-5.8119,-5.7746,-5.7559,-5.7275,-5.6634,-5.6077,-5.535,-5.4845,-5.4333,-5.4126,-5.3993]},{"header":{"parameterUnit":"m.s-1","parameterCategory":1,"la1":31.0,"la2":29.5877,"lo1":-88.7671,"lo2":-86.6584,"dy":0.0162,"dx":0.0185,"nx":115,"ny":88,"refTime":"2024-07-08T12:00:00:Z","depth":0,"parameterNumber":3,"parameterNumberName":"V-component_of_WINDS"},"data":[0.0,0.0,0.0,0.0,0.0,0.0,0.0,0.0,0.0,0.0,0.0,0.0,0.0,0.0,0.0,0.0,0.0,0.0,0.0,0.0,0.0,0.0,0.0,0.0,0.0,0.0,0.0,0.0,0.0,0.0,0.0,0.0,0.0,0.0,0.0,0.0,0.0,0.0,0.0,0.0,0.0,0.0,0.0,0.0,0.0,0.0,0.0,0.0,0.0,0.0,0.0,0.0,0.0,0.0,0.0,0.0,0.0,0.0,0.0,0.0,0.0,0.0,0.0,0.0,0.0,0.0,0.0,0.0,0.0,0.0,0.0,0.0,0.0,0.0,0.0,0.0,0.0,0.0,0.0,0.0,0.0,0.0,0.0,0.0,0.0,0.0,0.0,0.0,0.0,0.0,0.0,0.0,0.0,0.0,0.0,0.0,0.0,0.0,0.0,0.0,0.0,0.0,0.0,0.0,0.0,0.0,0.0,0.0,0.0,0.0,0.0,0.0,0.0,0.0,0.0,0.0,0.0,0.0,0.0,0.0,0.0,0.0,0.0,0.0,0.0,0.0,0.0,0.0,0.0,0.0,0.0,0.0,0.0,0.0,0.0,0.0,0.0,0.0,0.0,0.0,0.0,0.0,0.0,0.0,0.0,0.0,0.0,0.0,0.0,0.0,0.0,0.0,0.0,0.0,0.0,0.0,0.0,0.0,0.0,0.0,0.0,0.0,0.0,0.0,0.0,0.0,0.0,0.0,0.0,0.0,0.0,0.0,0.0,0.0,0.0,0.0,0.0,0.0,0.0,0.0,0.0,0.0,0.0,0.0,0.0,0.0,0.0,0.0,0.0,0.0,0.0,0.0,0.0,0.0,0.0,0.0,0.0,0.0,0.0,0.0,0.0,0.0,0.0,0.0,0.0,0.0,0.0,0.0,0.0,0.0,0.0,0.0,0.0,0.0,0.0,0.0,0.0,0.0,0.0,0.0,0.0,0.0,0.0,0.0,0.0,0.0,0.0,0.0,0.0,0.0,0.0,0.0,0.0,0.0,0.0,0.0,0.0,0.0,0.0,0.0,0.0,0.0,0.0,0.0,0.0,0.0,0.0,0.0,0.0,0.0,0.0,0.0,0.0,0.0,0.0,0.0,0.0,0.0,0.0,0.0,0.0,0.0,0.0,0.0,0.0,0.0,0.0,0.0,0.0,0.0,0.0,0.0,0.0,0.0,0.0,0.0,0.0,0.0,0.0,0.0,0.0,0.0,0.0,0.0,0.0,0.0,0.0,0.0,0.0,0.0,0.0,0.0,0.0,0.0,0.0,0.0,0.0,0.0,0.0,0.0,0.0,0.0,0.0,0.0,0.0,0.0,0.0,0.0,0.0,0.0,0.0,0.0,0.0,0.0,0.0,0.0,0.0,0.0,0.0,0.0,0.0,0.0,0.0,0.0,0.0,0.0,0.0,0.0,0.0,0.0,0.0,0.0,0.0,0.0,0.0,0.0,0.0,0.0,0.0,0.0,0.0,0.0,0.0,0.0,0.0,0.0,0.0,0.0,0.0,0.0,0.0,0.0,0.0,0.0,0.0,0.0,0.0,0.0,0.0,0.0,0.0,0.0,0.0,0.0,0.0,0.0,0.0,0.0,0.0,0.0,0.0,0.0,0.0,0.0,0.0,0.0,0.0,0.0,0.0,0.0,0.0,0.0,0.0,0.0,0.0,0.0,0.0,0.0,0.0,0.0,0.0,0.0,0.0,0.0,0.0,0.0,0.0,0.0,0.0,0.0,0.0,0.0,0.0,0.0,0.0,0.0,0.0,0.0,0.0,0.0,0.0,0.0,0.0,0.0,0.0,0.0,0.0,0.0,0.0,0.0,0.0,0.0,0.0,0.0,0.0,0.0,0.0,0.0,0.0,0.0,0.0,0.0,0.0,0.0,0.0,0.0,0.0,0.0,0.0,0.0,0.0,0.0,0.0,0.0,0.0,0.0,0.0,0.0,0.0,0.0,0.0,0.0,0.0,0.0,0.0,0.0,0.0,0.0,0.0,0.0,0.0,0.0,0.0,0.0,0.0,0.0,0.0,0.0,0.0,0.0,0.0,0.0,0.0,0.0,0.0,0.0,0.0,0.0,0.0,0.0,0.0,0.0,0.0,0.0,0.0,0.0,0.0,0.0,0.0,0.0,0.0,0.0,0.0,0.0,0.0,0.0,0.0,0.0,0.0,0.0,0.0,0.0,0.0,0.0,0.0,0.0,0.0,0.0,0.0,0.0,0.0,0.0,0.0,0.0,0.0,0.0,0.0,0.0,0.0,0.0,0.0,0.0,0.0,0.0,0.0,0.0,0.0,0.0,0.0,0.0,0.0,0.0,0.0,0.0,0.0,0.0,0.0,0.0,0.0,0.0,0.0,0.0,0.0,0.0,0.0,0.0,0.0,0.0,0.0,0.0,0.0,0.0,0.0,0.0,0.0,0.0,0.0,0.0,0.0,0.0,0.0,0.0,0.0,0.0,0.0,0.0,0.0,0.0,0.0,0.0,0.0,0.0,0.0,0.0,0.0,0.0,0.0,0.0,0.0,0.0,0.0,0.0,0.0,0.0,0.0,0.0,0.0,0.0,0.0,0.0,0.0,0.0,0.0,0.0,0.0,0.0,0.0,0.0,0.0,0.0,0.0,0.0,0.0,0.0,0.0,0.0,0.0,0.0,0.0,0.0,0.0,0.0,0.0,0.0,0.0,0.0,0.0,0.0,0.0,0.0,0.0,0.0,0.0,0.0,0.0,0.0,0.0,0.0,0.0,0.0,0.0,0.0,0.0,0.0,0.0,0.0,0.0,0.0,0.0,0.0,0.0,0.0,0.0,0.0,0.0,0.0,0.0,0.0,0.0,0.0,0.0,0.0,0.0,0.0,0.0,0.0,0.0,0.0,0.0,0.0,0.0,0.0,0.0,0.0,0.0,0.0,0.0,0.0,0.0,0.0,0.0,0.0,0.0,0.0,0.0,0.0,0.0,0.0,0.0,0.0,0.0,0.0,0.0,0.0,0.0,0.0,0.0,0.0,0.0,0.0,0.0,0.0,0.0,0.0,0.0,0.0,0.0,0.0,0.0,0.0,0.0,0.0,0.0,0.0,0.0,0.0,0.0,0.0,0.0,0.0,0.0,0.0,0.0,0.0,0.0,0.0,0.0,0.0,0.0,0.0,0.0,0.0,0.0,0.0,0.0,0.0,0.0,0.0,0.0,0.0,0.0,0.0,0.0,0.0,0.0,0.0,0.0,0.0,0.0,0.0,0.0,0.0,0.0,0.0,0.0,0.0,0.0,0.0,0.0,0.0,0.0,0.0,0.0,0.0,0.0,0.0,0.0,0.0,0.0,0.0,0.0,0.0,0.0,0.0,0.0,0.0,0.0,0.0,0.0,0.0,0.0,0.0,0.0,0.0,0.0,0.0,0.0,0.0,0.0,0.0,0.0,0.0,0.0,0.0,0.0,0.0,0.0,0.0,0.0,0.0,0.0,0.0,0.0,0.0,0.0,0.0,0.0,0.0,0.0,0.0,0.0,0.0,0.0,0.0,0.0,0.0,0.0,0.0,0.0,0.0,0.0,0.0,0.0,0.0,0.0,0.0,0.0,0.0,0.0,0.0,0.0,0.0,0.0,0.0,0.0,0.0,0.0,0.0,0.0,0.0,0.0,0.0,0.0,0.0,0.0,0.0,0.0,0.0,0.0,0.0,0.0,0.0,0.0,0.0,0.0,0.0,0.0,0.0,0.0,0.0,0.0,0.0,0.0,0.0,0.0,0.0,0.0,0.0,0.0,0.0,0.0,0.0,0.0,0.0,0.0,0.0,0.0,0.0,0.0,0.0,0.0,0.0,0.0,0.0,0.0,0.0,0.0,0.0,0.0,0.0,0.0,0.0,0.0,0.0,0.0,0.0,0.0,0.0,0.0,0.0,0.0,0.0,0.0,0.0,0.0,0.0,0.0,0.0,0.0,0.0,0.0,0.0,0.0,0.0,0.0,0.0,0.0,0.0,0.0,0.0,0.0,0.0,0.0,0.0,0.0,0.0,0.0,0.0,0.0,0.0,0.0,0.0,0.0,0.0,0.0,0.0,0.0,0.0,0.0,0.0,0.0,0.0,0.0,0.0,0.0,0.0,0.0,0.0,0.0,0.0,0.0,0.0,0.0,0.0,0.0,0.0,0.0,0.0,0.0,0.0,0.0,0.0,0.0,0.0,0.0,0.0,0.0,0.0,0.0,0.0,0.0,0.0,0.0,0.0,0.0,0.0,0.6747,0.0,0.0,0.0,0.0,0.0,0.0,0.0,0.0,0.0,0.0,0.0,0.0,0.0,0.0,0.0,0.0,0.0,0.0,0.0,0.0,0.0,0.0,0.0,0.0,0.0,0.0,0.0,0.0,0.0,0.0,0.0,0.0,0.0,0.0,0.0,0.0,0.0,0.0,0.0,0.0,0.0,0.0,0.0,0.0,0.0,0.0,0.0,0.0,0.0,0.0,0.0,0.0,0.0,0.0,0.0,0.0,0.0,0.0,0.0,0.0,0.0,0.0,0.0,0.0,0.0,0.0,0.0,0.0,0.0,0.0,0.0,0.0,0.0,0.0,0.0,0.0,0.0,0.0,0.0,0.0,0.0,0.0,0.0,0.0,0.0,0.0,0.0,0.0,0.0,0.0,0.0,0.0,0.0,0.0,0.0,0.0,0.0,0.0,0.0,0.0,0.0,0.0,0.0,0.0,0.0,0.0,0.0,0.0,0.0,0.0,-0.8097,-0.5344,0.0079,0.4328,0.7104,0.0,0.0,0.0,0.0,0.0,0.0,0.0,0.0,0.0,0.0,0.0,0.0,0.0,0.0,0.0,0.0,0.0,0.0,0.0,0.0,0.0,0.0,0.0,0.0,0.0,0.0,0.0,0.0,0.0,0.0,0.0,0.0,0.0,0.0,0.0,0.0,0.0,0.0,0.0,0.0,0.0,0.0,0.0,0.0,0.0,0.0,0.0,0.0,0.0,0.0,0.0,0.0,0.0,0.0,0.0,0.0,0.0,0.0,0.0,0.0,0.0,0.0,0.0,0.0,0.0,0.0,0.0,0.0,0.0,0.0,0.0,0.0,0.0,0.0,0.0,0.0,0.0,0.0,0.0,0.0,0.0,0.0,0.0,0.0,0.0,0.0,0.0,0.0,0.0,0.0,0.0,0.0,0.0,0.0,0.0,0.0,0.0,0.0,0.0,0.0,0.0,0.0,0.0,0.0,0.0,0.0,0.0,0.0,0.0,0.0,0.0,0.0,-0.3141,0.1542,0.6193,0.0,0.0,0.0,0.0,0.0,0.0,0.0,0.0,0.0,0.0,0.0,0.0,0.0,0.0,0.0,0.0,0.0,0.0,0.0,0.0,0.0,0.0,0.0,0.0,0.0,0.0,0.0,0.0,0.0,0.0,0.0,0.0,0.0,0.0,0.0,0.0,0.0,0.0,0.0,0.0,0.0,0.0,0.0,0.0,0.0,0.0,0.0,0.0,0.0,0.0,0.0,0.0,0.0,0.0,0.0,0.0,0.0,0.0,0.0,0.0,0.0,0.0,0.0,0.0,0.0,0.0,0.0,0.0,0.0,0.0,0.0,0.0,0.0,0.0,0.0,0.0,0.0,0.0,0.0,0.0,0.0,0.0,0.0,0.0,0.0,0.0,0.0,0.0,0.0,0.0,0.0,0.0,0.0,0.0,0.0,0.0,0.0,0.0,0.0,0.0,0.0,0.0,0.0,0.0,0.0,0.0,0.0,0.0,0.0,0.0,-1.0571,-1.0454,-0.817,0.0,0.2718,0.0,0.0,0.0,0.0,0.0,0.0,0.0,0.0,0.0,0.0,0.0,0.0,0.0,0.0,0.0,0.0,0.0,0.0,0.0,0.0,0.0,0.0,0.0,0.0,0.0,0.0,0.0,0.0,0.0,0.0,0.0,0.0,0.0,0.0,0.0,0.0,0.0,0.0,0.0,0.0,0.0,0.0,0.0,0.0,0.0,0.0,0.0,0.0,0.0,0.0,0.0,0.0,0.0,0.0,0.0,0.0,0.0,0.0,0.0,0.0,0.0,0.0,0.0,0.0,0.0,0.0,0.0,0.0,0.0,0.0,0.0,0.0,0.0,0.0,0.0,0.0,0.0,0.0,0.0,0.0,0.0,0.0,0.0,0.0,0.0,0.0,0.0,0.0,0.0,0.0,0.0,0.0,0.0,0.0,0.0,0.0,0.0,0.0,0.0,0.0,0.0,0.0,0.0,0.0,0.0,0.0,0.0,0.0,0.0,0.0,-1.1248,-1.1983,-0.6288,-0.1039,0.0,0.0,0.0,0.0,0.0,0.0,0.0,0.0,0.0,0.0,0.0,0.0,0.0,0.0,0.0,0.0,0.0,0.0,0.0,0.0,0.0,0.0,0.0,0.0,0.0,0.0,0.0,0.0,0.0,0.0,0.0,0.0,0.0,0.0,0.0,0.0,0.0,0.0,0.0,0.0,0.0,0.0,0.0,0.0,0.0,0.0,0.0,0.0,0.0,0.0,0.0,0.0,0.0,0.0,0.0,0.0,0.0,0.0,0.0,0.0,0.0,0.0,0.0,0.0,0.0,0.0,0.0,0.0,0.0,0.0,0.0,0.0,0.0,0.0,0.0,0.0,0.0,0.0,0.0,0.0,0.0,0.0,0.0,0.0,0.0,0.0,0.0,0.0,0.0,0.0,0.0,0.0,0.0,0.0,0.0,0.0,0.0,0.0,0.0,0.0,0.0,0.0,0.0,0.0,0.0,0.0,0.0,0.0,0.0,0.0,-0.9267,-1.2062,-1.3951,-0.8312,-0.2583,0.2495,0.0,0.0,0.0,0.0,0.0,0.0,0.0,0.0,0.0,0.0,0.0,0.0,0.0,0.0,0.0,0.0,0.0,0.0,0.0,0.0,0.0,0.0,0.0,0.0,0.0,0.0,0.0,0.0,0.0,0.0,0.0,0.0,0.0,0.0,0.0,0.0,0.0,0.0,0.0,0.0,0.0,0.0,0.0,0.0,0.0,0.0,0.0,0.0,0.0,0.0,0.0,0.0,0.0,0.0,0.0,0.0,0.0,0.0,0.0,0.0,0.0,0.0,0.0,0.0,0.0,0.0,0.0,0.0,0.0,0.0,0.0,0.0,0.0,0.0,0.0,0.0,0.0,0.0,0.0,0.0,0.0,0.0,0.0,0.0,0.0,0.0,0.0,0.0,0.0,0.0,0.0,0.0,0.0,0.0,0.0,0.0,0.0,0.0,0.0,0.0,0.0,0.0,0.0,0.0,0.0,0.0,0.0,0.0,-0.7119,-0.9562,-1.3168,-1.8167,-1.7434,-1.2245,0.0,0.0,0.0,0.0,0.0,0.0,0.0,0.0,0.0,0.0,0.0,0.0,0.0,0.0,0.0,0.0,0.0,0.0,0.0,0.0,0.0,0.0,0.0,0.0,0.0,0.0,0.0,0.0,0.0,0.0,0.0,0.0,0.0,0.0,0.0,0.0,0.0,0.0,0.0,0.0,0.0,0.0,0.0,0.0,0.0,0.0,0.0,0.0,0.0,0.0,0.0,0.0,0.0,0.0,0.0,0.0,0.0,0.0,0.0,0.0,0.0,0.0,0.0,0.0,0.0,0.0,0.0,0.0,0.0,0.0,0.0,0.0,0.0,0.0,0.0,0.0,0.0,0.0,0.0,0.0,0.0,0.0,0.0,0.0,0.0,0.0,0.0,0.0,0.0,0.0,0.0,0.0,0.0,0.0,0.0,0.0,0.0,0.0,0.0,0.0,0.0,0.0,0.0,0.0,0.0,0.0,0.0,0.0,0.0,-0.2507,-0.9461,-1.499,-1.8577,-1.5712,-1.0542,0.0,0.0,0.0,0.0,0.0,0.0,0.0,0.0,0.0,0.0,0.0,0.0,0.0,0.0,0.0,0.0,0.0,0.0,0.0,0.0,0.0,0.0,0.0,0.0,0.0,0.0,0.0,0.0,0.0,0.0,0.0,0.0,0.0,0.0,0.0,0.0,0.0,0.0,0.0,0.0,0.0,0.0,0.0,0.0,0.0,0.0,0.0,0.0,0.0,0.0,0.0,0.0,0.0,0.0,0.0,0.0,0.0,0.0,0.0,0.0,0.0,0.0,0.0,0.0,0.0,0.0,0.0,0.0,0.0,0.0,0.0,0.0,0.0,0.0,0.0,0.0,0.0,0.0,0.0,0.0,0.0,0.0,0.0,0.0,0.0,0.0,0.0,0.0,0.0,0.0,0.0,0.0,0.0,0.0,0.0,0.0,0.0,0.0,0.0,0.0,0.0,0.0,0.0,0.0,0.0,0.0,0.0,0.0,0.0,-0.2236,0.0,-1.7047,-1.9002,-1.581,-1.09,0.0,0.0,0.0,0.0,0.0,0.0,0.0,0.0,0.0,0.0,0.0,0.0,0.0,0.0,0.0,0.0,0.0,0.0,0.0,0.0,0.0,0.0,0.0,0.0,0.0,0.0,0.0,0.0,0.0,0.0,0.0,0.0,0.0,0.0,0.0,0.0,0.0,0.0,0.0,0.0,0.0,0.0,0.0,0.0,0.0,0.0,0.0,0.0,0.0,0.0,0.0,0.0,0.0,0.0,0.0,0.0,0.0,0.0,0.0,0.0,0.0,0.0,0.0,0.0,0.0,0.0,0.0,0.0,0.0,0.0,0.0,0.0,0.0,0.0,0.0,0.0,0.0,0.0,0.0,0.0,0.0,0.0,0.0,0.0,0.0,0.0,0.0,0.0,0.0,0.0,0.0,0.0,0.0,0.0,0.0,0.0,0.0,0.0,0.0,0.0,0.0,0.0,0.0,0.0,0.0,0.0,0.0,0.0,0.4788,-0.7392,-1.5047,-1.9104,-1.9894,-1.8775,-1.4206,0.0,0.0,0.0,0.0,0.0,0.0,0.0,0.0,0.0,0.0,0.0,0.0,0.0,0.0,0.0,0.0,0.0,0.0,0.0,0.0,0.0,0.0,0.0,0.0,0.0,0.0,0.0,0.0,0.0,0.0,0.0,0.0,0.0,0.0,0.0,0.0,0.0,0.0,0.0,0.0,0.0,0.0,0.0,0.0,0.0,0.0,0.0,0.0,0.0,0.0,0.0,0.0,0.0,0.0,0.0,0.0,0.0,0.0,0.0,0.0,0.0,0.0,0.0,0.0,0.0,0.0,0.0,0.0,0.0,0.0,0.0,0.0,0.0,0.0,0.0,0.0,0.0,0.0,0.0,0.0,0.0,0.0,0.0,0.0,0.0,0.0,0.0,0.0,0.0,0.0,0.0,0.0,0.0,0.0,0.0,0.0,0.0,0.0,0.0,0.0,0.0,0.0,0.0,0.0,0.0,0.0,0.0,0.0,0.0,-0.6653,-1.2605,-1.7041,-1.9903,-1.8714,-1.4515,0.0,0.0,0.0,0.0,0.0,0.0,0.0,0.0,0.0,0.0,0.0,0.0,0.0,0.0,0.0,0.0,0.0,0.0,0.0,0.0,0.0,0.0,0.0,0.0,0.0,0.0,0.0,0.0,0.0,0.0,0.0,0.0,0.0,0.0,0.0,0.0,0.0,0.0,0.0,0.0,0.0,0.0,0.0,0.0,0.0,0.0,0.0,0.0,0.0,0.0,0.0,0.0,0.0,0.0,0.0,0.0,0.0,0.0,0.0,0.0,0.0,0.0,0.0,0.0,0.0,0.0,0.0,0.0,0.0,0.0,0.0,0.0,0.0,0.0,0.0,0.0,0.0,0.0,0.0,0.0,0.0,0.0,0.0,0.0,0.0,0.0,0.0,0.0,0.0,0.0,0.0,0.0,0.0,0.0,0.0,0.0,0.0,0.0,0.0,0.0,0.0,0.0,0.0,0.0,0.0,0.0,0.0,0.0,0.0,-0.5713,-1.1921,-1.6929,-2.0966,-1.9137,-1.5145,-0.8984,0.0,0.0,0.0,0.0,0.0,0.0,0.0,0.0,0.0,0.0,0.0,0.0,0.0,0.0,0.0,0.0,0.0,0.0,0.0,0.0,0.0,0.0,0.0,0.0,0.0,0.0,0.0,0.0,0.0,0.0,0.0,0.0,0.0,0.0,0.0,0.0,0.0,0.0,0.0,0.0,0.0,0.0,0.0,0.0,0.0,0.0,0.0,0.0,0.0,0.0,0.0,0.0,0.0,0.0,0.0,0.0,0.0,0.0,0.0,0.0,0.0,0.0,0.0,0.0,0.0,0.0,0.0,0.0,0.0,0.0,0.0,0.0,0.0,0.0,0.0,0.0,0.0,0.0,0.0,0.0,0.0,0.0,0.0,0.0,0.0,0.0,0.0,0.0,0.0,0.0,0.0,0.0,0.0,0.0,0.0,0.0,0.0,0.0,0.0,0.0,0.0,0.0,0.0,0.0,0.0,0.0,0.0,0.0,-0.4866,-1.255,-1.8341,-2.2057,-1.9941,-1.613,0.0,0.0,0.0,0.0,0.0,0.0,0.0,0.0,0.0,0.0,0.0,0.0,0.0,0.0,0.0,0.0,0.0,0.0,0.0,0.0,0.0,0.0,0.0,0.0,0.0,0.0,0.0,0.0,0.0,0.0,0.0,0.0,0.0,0.0,0.0,0.0,0.0,0.0,0.0,0.0,0.0,0.0,0.0,0.0,0.0,0.0,0.0,0.0,0.0,0.0,0.0,0.0,0.0,0.0,0.0,0.0,0.0,0.0,0.0,0.0,0.0,0.0,0.0,0.0,0.0,0.0,0.0,0.0,0.0,0.0,0.0,0.0,0.0,0.0,0.0,0.0,0.0,0.0,0.0,0.0,0.0,0.0,0.0,0.0,0.0,0.0,0.0,0.0,0.0,0.0,0.0,0.0,0.0,0.0,0.0,0.0,0.0,0.0,0.0,0.0,0.0,0.0,0.0,0.0,0.0,0.0,0.0,0.0,0.0,-0.4671,-1.0864,-1.6611,-2.1869,-2.0757,-1.7288,0.0,0.0,0.0,0.0,0.0,0.0,0.0,0.0,0.0,0.0,0.0,0.0,0.0,0.0,0.0,0.0,0.0,0.0,0.0,0.0,0.0,0.0,0.0,0.0,0.0,0.0,0.0,0.0,0.0,0.0,0.0,0.0,0.0,0.0,0.0,0.0,0.0,0.0,0.0,0.0,0.0,0.0,0.0,0.0,0.0,0.0,0.0,0.0,0.0,0.0,0.0,0.0,0.0,0.0,0.0,0.0,0.0,0.0,0.0,0.0,0.0,0.0,0.0,0.0,0.0,0.0,0.0,0.0,0.0,0.0,0.0,0.0,0.0,0.0,0.0,0.0,0.0,0.0,0.0,0.0,0.0,0.0,0.0,0.0,0.0,0.0,0.0,0.0,0.0,0.0,0.0,0.0,0.0,0.0,0.0,0.0,0.0,0.0,0.0,0.0,0.0,0.0,0.0,0.0,0.0,0.0,0.0,0.0,0.1987,-0.4633,-1.0282,-1.5863,-2.1248,-2.1195,-1.828,0.0,0.0,0.0,0.0,0.0,0.0,0.0,0.0,0.0,0.0,0.0,0.0,0.0,0.0,0.0,0.0,0.0,0.0,0.0,0.0,0.0,0.0,0.0,0.0,0.0,0.0,0.0,0.0,0.0,0.0,0.0,0.0,0.0,0.0,0.0,0.0,0.0,0.0,0.0,0.0,0.0,0.0,0.0,0.0,0.0,0.0,0.0,0.0,0.0,0.0,0.0,0.0,0.0,0.0,0.0,0.0,0.0,0.0,0.0,0.0,0.0,0.0,0.0,0.0,0.0,0.0,0.0,0.0,0.0,0.0,0.0,0.0,0.0,0.0,0.0,0.0,0.0,0.0,0.0,0.0,0.0,0.0,0.0,0.0,0.0,0.0,0.0,0.0,0.0,0.0,0.0,0.0,0.0,0.0,0.0,0.0,0.0,0.0,0.0,0.0,0.0,0.0,0.0,0.0,0.0,0.0,0.0,0.0,0.1479,-0.4669,-1.0322,-1.5577,-2.0181,-2.1217,-1.9167,0.0,0.0,0.0,0.0,0.0,0.0,0.0,0.0,0.0,0.0,0.0,0.0,0.0,0.0,0.0,0.0,0.0,0.0,0.0,0.0,0.0,0.0,0.0,0.0,0.0,0.0,0.0,0.0,0.0,0.0,0.0,0.0,0.0,0.0,0.0,0.0,0.0,0.0,0.0,0.0,0.0,0.0,0.0,0.0,0.0,0.0,0.0,0.0,0.0,0.0,0.0,0.0,0.0,0.0,0.0,0.0,0.0,0.0,0.0,0.0,0.0,0.0,0.0,0.0,0.0,0.0,0.0,0.0,0.0,0.0,0.0,0.0,0.0,0.0,0.0,0.0,0.0,0.0,0.0,0.0,0.0,0.0,0.0,0.0,0.0,0.0,0.0,0.0,0.0,0.0,0.0,0.0,0.0,0.0,0.0,0.0,0.0,0.0,0.0,0.0,0.0,0.0,0.0,0.0,0.0,0.0,0.0,0.0,0.1051,-0.4993,-0.9642,-1.4423,-1.9361,-2.128,-1.9865,0.0,0.0,0.0,0.0,0.0,0.0,0.0,0.0,0.0,0.0,0.0,0.0,0.0,0.0,0.0,0.0,0.0,0.0,0.0,0.0,0.0,0.0,0.0,0.0,0.0,0.0,0.0,0.0,0.0,0.0,0.0,0.0,0.0,0.0,0.0,0.0,0.0,0.0,0.0,0.0,0.0,0.0,0.0,0.0,0.0,0.0,0.0,0.0,-1.2353,0.0,0.0,0.0,0.0,0.0,0.0,0.0,0.0,0.0,0.0,0.0,0.0,0.0,0.0,0.0,0.0,0.0,0.0,0.0,0.0,0.0,0.0,0.0,0.0,0.0,0.0,0.0,0.0,0.0,0.0,0.0,0.0,0.0,0.0,0.0,0.0,0.0,0.0,0.0,0.0,0.0,0.0,0.0,0.0,0.0,0.0,0.0,0.0,0.0,0.0,0.0,0.0,0.0,0.0,0.0,0.0,0.0,0.0,0.0,0.0864,-0.5035,-0.9407,-1.3746,-1.8085,-2.0101,-1.9154,0.0,0.0,0.0,0.0,0.0,0.0,0.0,0.0,0.0,0.0,0.0,0.0,0.0,0.0,0.0,0.0,0.0,0.0,0.0,0.0,0.0,0.0,0.0,0.0,0.0,0.0,0.0,0.0,0.0,0.0,0.0,0.0,0.0,0.0,0.0,0.0,0.0,0.0,0.0,0.0,0.0,0.0,0.0,0.0,0.0,0.0,0.0,0.0,0.0,0.0,0.0,0.0,0.0,0.0,0.0,0.0,0.0,0.0,0.0,0.0,0.0,0.0,0.0,0.0,0.0,0.0,0.0,0.0,0.0,0.0,0.0,0.0,0.0,0.0,0.0,0.0,0.0,0.0,0.0,0.0,0.0,0.0,0.0,0.0,0.0,0.0,0.0,0.0,0.0,0.0,0.0,0.0,0.0,0.0,0.0,0.0,0.0,0.0,0.0,0.0,0.0,0.0,0.0,0.0,0.0,0.0,0.0,0.6974,0.1164,-0.4704,-0.8947,-1.2985,-1.6705,-1.8163,-1.7286,-1.411,0.0,0.0,0.0,0.0,0.0,0.0,0.0,0.0,0.0,0.0,0.0,0.0,0.0,0.0,0.0,0.0,0.0,0.0,0.0,0.0,0.0,0.0,0.0,0.0,0.0,0.0,0.0,0.0,0.0,0.0,0.0,0.0,0.0,0.0,0.0,0.0,0.0,0.0,1.5618,0.7793,0.0,0.0,0.0,0.0,0.0,0.0,0.0,0.0,-1.2282,0.0,0.0,0.0,0.0,0.0,0.0,0.0,0.0,0.0,0.0,0.0,0.0,0.0,0.0,0.0,0.0,0.0,0.0,0.0,0.0,0.0,0.0,0.0,0.0,0.0,0.0,0.0,0.0,0.0,0.0,0.0,0.0,0.0,0.0,0.0,0.0,0.0,0.0,0.0,0.0,0.0,0.0,0.0,0.0,0.0,0.0,0.0,0.0,0.0,0.0,0.0,0.0,0.0,0.0,0.0,0.0,1.1608,0.8011,0.3027,-0.3579,-0.72,-1.0983,-1.4833,-1.5267,-1.3784,-1.0554,0.0,0.0,0.0,0.0,0.0,0.0,0.0,0.0,0.0,0.0,0.0,0.0,0.0,0.0,0.0,0.0,0.0,0.0,0.0,0.0,0.0,0.0,0.0,0.0,0.0,0.0,0.0,0.0,0.0,0.0,0.0,0.0,0.0,0.0,0.0,0.0,0.0,0.0,0.0,0.7006,0.1517,0.0,0.0,0.0,0.0,0.0,0.0,0.0,0.0,-1.2516,0.0,0.0,0.0,0.0,0.0,0.0,0.0,0.0,0.0,0.0,0.0,0.0,0.0,0.0,0.0,0.0,0.0,0.0,0.0,0.0,0.0,0.0,0.0,0.0,0.0,0.0,0.0,0.0,0.0,0.0,0.0,0.0,0.0,0.0,0.0,0.0,0.0,0.0,0.0,0.0,0.0,0.0,0.0,0.0,0.0,0.0,0.0,0.0,0.0,0.0,0.0,0.0,0.0,0.0,0.0,1.3064,0.8898,0.3978,-0.1639,-0.5118,-0.8162,-1.0789,-1.0609,-0.9101,0.0,0.0,0.0,0.0,0.0,0.0,0.0,0.0,0.0,0.0,0.0,0.0,0.0,0.0,0.0,0.0,0.0,0.0,0.0,0.0,0.0,0.0,0.0,0.0,0.0,0.0,0.0,0.0,0.0,0.0,0.0,0.0,0.0,0.0,0.0,0.0,0.0,0.0,0.0,0.0,0.7956,0.3167,-0.105,0.0,0.0,0.0,0.0,0.0,0.0,-0.7492,-1.0362,0.0,0.0,0.0,0.0,0.0,0.0,0.0,0.0,0.0,0.0,0.0,0.0,0.0,0.0,0.0,0.0,0.0,0.0,0.0,0.0,0.0,0.0,0.0,0.0,0.0,0.0,0.0,0.0,0.0,0.0,0.0,0.0,0.0,0.0,0.0,0.0,0.0,0.0,0.0,0.0,0.0,0.0,0.0,0.0,0.0,0.0,0.0,0.0,0.0,0.0,0.0,0.0,0.0,0.0,0.0,1.5049,1.0213,0.534,0.051,-0.2598,-0.4912,-0.6399,-0.5974,-0.4493,0.0,0.0,0.0,0.0,0.0,0.0,0.0,0.0,0.0,0.0,0.0,0.0,0.0,0.0,0.0,0.0,0.0,0.0,0.0,0.0,0.0,0.0,0.0,0.0,0.0,0.0,0.0,0.0,0.0,0.0,0.0,0.0,0.0,0.0,0.0,0.0,0.0,0.0,0.0,0.0,0.0,0.4505,0.0653,-0.1368,0.0,0.0,0.0,0.0,-0.1902,-0.5271,0.0,0.0,0.0,0.0,0.0,0.0,0.0,0.0,0.0,0.0,0.0,0.0,0.0,0.0,0.0,0.0,0.0,0.0,0.0,0.0,0.0,0.0,0.0,0.0,0.0,0.0,0.0,0.0,0.0,0.0,0.0,0.0,0.0,0.0,0.0,0.0,0.0,0.0,0.0,0.0,0.0,0.0,0.0,0.0,0.0,0.0,0.0,0.0,0.0,0.0,0.0,0.0,0.0,0.0,0.0,0.0,1.6844,1.2928,0.8343,0.2899,0.0409,-0.1584,-0.3093,-0.25,-0.1048,0.0,0.0,0.0,0.0,0.0,0.0,0.0,0.0,0.0,0.0,0.0,0.0,0.0,0.0,0.0,0.0,0.0,0.0,0.0,0.0,0.0,0.0,0.0,0.0,0.0,0.0,0.0,0.0,0.0,0.0,0.0,0.0,0.0,0.0,0.0,0.0,0.0,0.0,0.0,0.0,0.0,0.4362,0.2018,0.0452,-0.0544,0.0,0.0,-0.0467,0.0582,-0.168,0.0,0.0,0.0,0.0,0.0,0.0,0.0,0.0,0.0,0.0,0.0,0.0,0.0,0.0,0.0,0.0,0.0,0.0,0.0,0.0,0.0,0.0,0.0,0.0,0.0,0.0,0.0,0.0,0.0,0.0,0.0,0.0,0.0,0.0,0.0,0.0,0.0,0.0,0.0,0.0,0.0,0.0,0.0,0.0,0.0,0.0,0.0,0.0,0.0,0.0,0.0,0.0,0.0,0.0,0.0,2.238,1.7531,1.3723,0.9724,0.5417,0.3586,0.2566,0.2324,0.3357,0.45,0.0,0.0,0.0,0.0,0.0,0.0,0.0,0.0,0.0,0.0,0.0,0.0,0.0,0.0,0.0,0.0,0.0,0.0,0.0,0.0,0.0,0.0,0.0,0.0,0.0,0.0,0.0,0.0,0.0,0.0,0.0,0.0,0.0,0.0,0.0,0.0,0.0,0.0,0.0,0.0,0.0,0.0,0.3496,0.1968,0.0,0.0,0.0,0.0932,0.1246,0.0,0.0,0.0,0.0,0.0,0.0,0.0,0.0,0.0,0.0,0.0,0.0,0.0,0.0,0.0,0.0,0.0,0.0,0.0,0.0,0.0,0.0,0.0,0.0,0.0,0.0,0.0,0.0,0.0,0.0,0.0,0.0,0.0,0.0,0.0,0.0,0.0,0.0,0.0,0.0,0.0,0.0,0.0,0.0,0.0,0.0,0.0,0.0,0.0,0.0,0.0,0.0,0.0,0.0,0.0,0.0,0.0,1.84,1.4467,1.0974,0.7873,0.6514,0.631,0.7256,0.8411,0.0,0.0,0.0,0.0,0.0,0.0,0.0,0.0,0.0,0.0,0.0,0.0,0.0,0.0,0.0,0.0,0.0,0.0,0.0,0.0,0.0,0.0,0.0,0.0,0.0,0.0,0.0,0.7069,0.0,0.0,0.0,0.0,0.0,0.0,0.0,0.0,0.0,0.0,0.0,0.0,0.0,0.0,0.7517,0.5556,0.4122,0.3016,0.0,0.0,0.2414,0.2177,0.1614,0.0856,0.0,0.0,0.0,0.0,0.0,0.0,0.0,0.0,0.0,0.0,0.0,0.0,0.0,0.0,0.0,0.0,0.0,0.0,0.0,0.0,0.0,0.0,0.0,0.0,0.0,0.0,0.0,0.0,0.0,0.0,0.0,0.0,0.0,0.0,0.0,0.0,0.0,0.0,0.0,0.0,0.0,0.0,0.0,0.0,0.0,0.0,0.0,0.0,0.0,0.0,0.0,0.0,0.0,0.0,2.3115,1.9786,1.5836,1.2551,0.9885,0.9324,0.9478,1.0388,1.1392,1.2113,0.0,0.0,0.0,0.0,0.0,0.0,0.0,0.0,0.0,0.0,0.0,0.0,0.0,0.0,0.0,0.0,0.0,0.0,0.0,0.0,0.0,0.0,0.0,0.0,0.0,0.0,0.0,0.0,0.0,0.0,0.0,0.0,0.0,0.0,0.0,0.0,0.0,0.0,0.0,0.0,0.0,0.9604,0.8783,0.7377,0.6213,0.0,0.4963,0.4459,0.4261,0.4368,0.4152,0.3052,0.0,0.0,0.0,0.0,0.0,0.0,0.0,0.0,0.0,0.0,0.0,0.0,0.0,0.0,0.0,0.0,0.0,0.0,0.0,0.0,0.0,0.0,0.0,0.0,0.0,0.0,0.0,0.0,0.0,0.0,0.0,0.0,0.0,0.0,0.0,0.0,0.0,0.0,0.0,0.0,0.0,0.0,0.0,0.0,0.0,0.0,0.0,0.0,0.0,0.0,0.0,0.0,0.0,2.3862,2.038,1.7269,1.4569,1.228,1.1918,1.2554,1.4276,1.5294,1.5782,0.0,0.0,0.0,0.0,0.0,0.0,0.0,0.0,0.0,0.0,0.0,0.0,0.0,0.0,0.0,0.0,0.0,0.0,0.0,0.0,0.0,0.0,0.0,0.0,0.0,0.0,0.0,0.0,0.7482,0.8579,1.1552,0.0,0.0,0.0,0.0,0.0,0.0,0.0,0.0,0.0,0.0,1.0241,0.998,0.9304,0.0,0.0,0.714,0.6887,0.5365,0.6145,0.6586,0.5552,0.615,0.0,0.0,0.0,0.0,0.0,0.0,0.0,0.0,0.0,0.0,0.0,0.0,0.0,0.0,0.0,0.0,0.0,0.0,0.0,0.0,0.0,0.0,0.0,0.0,0.0,0.0,0.0,0.0,0.0,0.0,0.0,0.0,0.0,0.0,0.0,0.0,0.0,0.0,0.0,0.0,0.0,0.0,0.0,0.0,0.0,0.0,0.0,0.0,0.0,0.0,0.0,0.0,2.4856,2.1639,1.9075,1.6814,1.4811,1.4654,1.5547,1.7383,1.8508,1.8904,0.0,0.0,0.0,0.0,0.0,0.0,0.0,0.0,0.0,0.0,0.0,0.0,0.0,0.0,0.0,0.0,0.0,0.0,0.0,0.0,0.0,0.0,0.0,0.0,0.0,0.0,0.0,0.0,0.8385,0.9834,1.3634,0.0,0.0,0.0,0.0,0.0,0.0,0.0,0.0,0.0,0.0,1.1181,1.1564,1.1366,1.0684,0.9301,0.939,0.9091,0.7447,0.8293,0.9006,0.8552,0.0,0.0,0.0,0.0,0.0,0.0,0.0,0.0,0.0,0.0,0.0,0.0,0.0,0.0,0.0,0.0,0.0,0.0,0.0,0.0,0.0,0.0,0.0,0.0,0.0,0.0,0.0,1.7628,0.0,0.0,1.4648,0.0,0.0,0.0,0.0,0.0,0.0,0.0,0.0,0.0,0.0,0.0,0.0,0.0,0.0,0.0,0.0,0.0,0.0,0.0,0.0,0.0,0.0,2.6013,2.3931,2.1384,1.9276,1.7655,1.7586,1.8267,1.9587,2.0835,2.1092,2.0168,0.0,0.0,0.0,0.0,0.0,0.0,0.0,0.0,0.0,0.0,0.0,0.0,0.0,0.0,0.0,0.0,0.0,0.0,0.0,0.0,0.0,0.0,0.0,0.0,0.0,0.0,0.9837,1.0814,1.2803,0.0,0.0,0.0,0.0,0.0,0.0,0.0,0.0,0.0,1.1365,1.1747,1.26,1.4124,1.3708,1.3259,1.3184,1.186,1.0852,1.0891,1.1001,1.1357,0.0,0.0,0.0,0.0,0.0,0.0,0.0,0.0,0.0,0.0,0.0,0.0,0.0,0.0,0.0,0.0,0.0,0.0,0.0,0.0,0.0,0.0,0.0,0.0,0.0,0.0,0.0,1.9488,1.8485,0.0,0.0,0.0,0.0,0.0,0.0,0.0,0.0,0.0,0.0,0.0,1.9072,1.9021,0.0,0.0,0.0,0.0,0.0,0.0,0.0,0.0,0.0,0.0,0.0,0.0,2.771,2.546,2.3556,2.202,2.0633,2.0235,2.0762,2.2294,2.2822,2.1672,1.8791,0.0,0.0,0.0,0.0,0.0,0.0,0.0,0.0,0.0,0.0,0.0,0.0,0.0,0.0,0.0,0.0,0.0,0.0,0.0,0.0,0.0,0.0,0.0,0.0,0.0,1.3292,0.0,0.0,0.0,0.0,0.0,0.0,0.0,0.0,0.0,0.0,1.3145,1.2265,1.2467,1.2846,1.3737,1.5685,1.5753,1.5538,0.0,0.0,0.0,0.0,0.0,0.0,0.0,0.0,0.0,0.0,0.0,0.0,0.0,0.0,1.6698,1.2671,1.239,1.3243,1.4424,0.0,0.0,0.0,0.0,0.0,0.0,0.0,0.0,0.0,0.0,0.0,0.0,0.0,0.0,2.0705,1.9778,1.8294,0.0,0.0,0.0,0.0,0.0,0.0,0.0,0.0,2.1339,2.1567,2.0002,1.9733,2.0226,2.1471,2.3061,2.4573,0.0,0.0,0.0,0.0,0.0,0.0,0.0,0.0,2.9387,2.7908,2.6184,2.4621,2.3271,2.268,2.2763,2.3653,2.3486,2.1717,1.839,1.513,1.1933,0.0,0.0,0.0,0.0,0.0,0.0,0.0,0.0,0.0,0.0,0.0,0.0,0.0,0.0,0.0,0.0,0.0,0.0,0.0,0.0,0.0,0.0,0.0,1.5264,0.0,0.0,0.0,0.0,0.0,0.0,0.0,0.0,0.0,1.5574,1.4047,1.3233,1.3335,1.3915,1.5013,1.69,0.0,0.0,0.0,0.0,0.0,0.0,0.0,1.7037,1.7942,1.867,1.9401,2.024,2.06,2.0154,1.8093,0.0,0.0,1.5228,1.4967,1.5787,1.7388,1.8137,1.8829,1.9594,1.9775,1.9388,0.0,0.0,0.0,0.0,2.4002,0.0,0.0,0.0,2.2719,2.2073,0.0,2.0006,0.0,0.0,0.0,0.0,0.988,1.364,0.0,0.0,2.0751,2.1396,2.0886,1.9915,2.0314,2.2006,2.4618,2.6745,2.8341,2.8405,0.0,0.0,0.0,0.0,0.0,0.0,3.1113,3.1098,2.9022,2.7136,2.5562,2.4952,2.441,2.3967,2.298,2.1429,1.9042,1.5963,1.2918,1.0115,0.8748,0.0,0.0,0.0,0.0,0.0,0.0,0.0,0.0,0.0,0.0,0.0,0.0,0.0,0.0,0.0,0.0,0.0,0.0,0.0,0.0,1.8254,0.0,0.0,0.0,0.0,0.0,0.0,0.0,0.0,0.0,1.8566,1.5836,1.5079,1.4591,1.3995,0.0,0.0,0.0,0.0,1.9482,1.9754,1.9239,1.8974,1.9501,2.0265,2.1091,2.1805,0.0,0.0,2.2575,2.1852,2.1086,1.9666,1.9179,1.8882,1.898,1.86,1.9092,2.1066,2.1563,2.1954,2.2226,2.2464,2.2387,2.3491,0.0,0.0,0.0,0.0,2.5301,2.5319,2.555,2.4854,2.4141,2.3257,2.1524,0.0,0.0,0.0,0.0,0.0,0.0,1.6134,1.916,2.1118,2.2314,2.2874,2.282,2.3557,2.4923,2.6476,2.8414,3.0701,3.111,3.0648,2.9442,0.0,0.0,0.0,0.0,3.2854,3.1871,3.0097,2.8589,2.7493,2.6508,2.5419,2.4311,2.3083,2.1365,1.9039,1.6555,1.394,1.1246,0.9927,0.0,0.0,0.0,0.0,0.0,0.0,0.0,0.0,0.0,0.0,0.0,0.0,0.0,0.0,0.0,0.0,0.0,0.0,0.0,2.1648,2.0116,1.8924,0.0,0.0,0.0,0.0,0.0,0.0,0.0,0.0,0.0,1.7496,1.6395,1.5834,0.0,0.0,1.775,1.969,2.0367,2.0677,2.0649,2.0797,0.0,2.0463,2.0991,2.221,2.4671,2.6768,2.7638,2.6309,2.5456,2.4236,2.213,2.1322,2.0907,2.0661,2.0066,2.0311,2.1899,2.2508,2.289,2.354,2.3702,2.3658,2.6263,2.6735,2.597,2.6261,2.711,2.6631,2.6476,2.6462,2.597,2.5327,2.4548,2.3024,2.092,1.8276,1.4442,0.0,0.0,0.0,1.6086,1.9105,2.1686,2.3504,2.4478,2.5251,2.6066,2.7062,2.8072,2.9736,3.1824,3.292,3.2802,3.1603,0.0,3.3933,3.3957,3.4282,3.405,3.327,3.1288,2.9578,2.8403,2.6433,2.4788,2.3474,2.225,2.0664,1.8653,1.6522,1.4362,1.2376,1.1135,0.9916,0.0,0.0,0.0,0.0,0.0,0.0,0.0,0.0,0.0,0.0,0.0,1.4617,1.6475,0.0,0.0,0.0,2.1926,2.2777,2.2955,2.2016,0.0,0.0,0.0,0.0,0.0,0.0,0.0,1.9147,1.9231,1.8877,1.7922,1.7265,1.6949,1.7219,1.807,1.9197,2.0795,0.0,2.1903,2.1501,2.2082,2.2338,2.1592,2.2652,2.4482,2.7086,2.8916,2.9558,2.8399,2.7592,2.6413,2.4334,2.3166,2.2526,2.1994,2.1376,2.1431,2.2987,2.351,2.3985,2.4952,2.513,2.5006,2.8498,2.961,2.786,2.7695,2.846,2.7999,2.7376,2.6565,2.6458,2.6074,2.5462,2.4573,2.3145,2.1045,1.5961,0.0,1.2922,1.4625,1.6526,1.8724,2.2494,2.4772,2.5953,2.716,2.7988,2.8567,2.9547,3.0668,3.2014,3.378,3.4844,3.5063,3.5202,3.5781,3.6739,3.5337,3.4729,3.4958,3.2302,3.0,2.8244,2.5319,2.3118,2.1776,2.0791,1.9521,1.7991,1.6105,1.4561,1.3443,1.2257,1.0839,0.9207,0.0,0.0,0.0,0.0,0.0,0.0,0.0,0.0,0.0,0.0,0.0,0.0,0.0,0.0,0.0,2.2388,0.0,2.4214,2.3906,0.0,0.0,0.0,2.1036,2.0301,1.9941,1.9495,1.8933,0.0,0.0,1.7449,1.7709,1.8017,1.827,1.9404,2.055,2.1306,2.2416,2.2946,2.2037,2.2876,2.3324,2.2612,2.4671,2.7007,2.8742,3.0129,3.0401,2.9377,2.887,2.7819,2.5833,2.4671,2.3678,2.2991,2.2402,2.2583,2.3891,2.44,2.4912,2.5891,2.6301,2.6243,2.9444,3.1307,3.1029,3.0428,2.9606,2.8686,2.8091,2.7788,2.7557,2.739,2.7141,2.6238,2.3909,2.0571,1.8137,1.6381,1.5259,1.6315,1.8112,2.0604,2.3429,2.5797,2.7613,2.9479,3.0354,3.0362,3.1007,3.1615,3.2387,3.3767,3.5021,3.6058,3.7206,3.7105,3.5852,3.5277,3.4616,3.3895,3.1871,2.9556,2.6955,2.4713,2.2842,2.1354,2.0232,1.9002,1.7742,1.675,1.5608,1.4445,1.3279,1.2065,1.0699,0.9855,0.0,0.0,0.0,0.0,0.0,0.0,0.0,0.0,0.0,1.3111,1.3404,0.0,1.8639,0.0,2.2683,2.3879,2.4262,2.449,0.0,0.0,2.2206,2.1487,2.0791,1.9997,1.9282,1.8757,1.8466,1.8269,1.8013,1.8049,1.8166,1.8503,1.9141,1.9954,2.0863,2.1668,2.2065,2.169,2.1978,2.2309,2.2581,2.5098,2.7493,2.8655,3.0387,3.145,3.0829,3.0615,2.9792,2.757,2.6403,2.5168,2.3263,2.226,2.1989,2.2554,2.3251,2.4063,2.4963,2.5627,2.6159,2.9576,3.1589,3.2818,3.2845,3.2005,3.0682,2.9645,2.8864,2.8605,2.8427,2.8092,2.7439,2.5679,2.3106,2.145,2.0021,1.8978,1.9249,2.0434,2.2461,2.4946,2.7073,2.8739,3.0546,3.1337,3.1285,3.1577,3.2065,3.2831,3.4126,3.559,3.7115,3.8084,3.7701,3.6032,3.5711,3.4908,3.3321,3.0753,2.8299,2.5839,2.3981,2.2186,2.0414,1.9339,1.825,1.7176,1.6294,1.5355,1.447,1.3564,1.2319,1.0884,1.0053,0.904,0.0,0.0,0.0,0.0,0.0,0.0,0.0,0.0,0.0,0.0,0.0,1.8848,2.1802,2.3409,2.4545,2.5239,2.5273,2.4916,2.4149,2.2955,2.1932,2.1282,2.0013,1.8939,1.8381,1.782,1.7395,1.7245,1.7241,1.7348,1.7578,1.8061,1.8808,1.987,2.0646,2.0863,2.0319,2.0671,2.1161,2.1718,2.3773,2.5786,2.7006,2.8873,3.0342,3.0485,3.0758,3.0425,2.863,2.745,2.6101,2.4041,2.2823,2.2154,2.2145,2.2335,2.3,2.4286,2.5185,2.6103,2.9617,3.1468,3.3902,3.4899,3.4768,3.3382,3.1642,2.9851,2.9802,2.9597,2.9164,2.8695,2.7946,2.6863,2.5114,2.372,2.2923,2.2518,2.293,2.4092,2.6352,2.8147,2.9387,3.0888,3.1555,3.1585,3.18,3.2345,3.3315,3.4606,3.6127,3.78,3.7964,3.7557,3.6444,3.6071,3.4793,3.2531,2.9316,2.6776,2.4969,2.3217,2.1363,1.9375,1.8356,1.7407,1.6516,1.5462,1.4676,1.4308,1.3442,1.2258,1.0678,1.0017,0.8979,0.0,0.6753,0.0,0.0,0.0,0.0,0.0,0.0,0.0,0.0,1.7079,2.005,2.3119,2.4371,2.544,2.6453,2.6183,2.5769,2.5237,2.3673,2.236,2.167,1.9902,1.8552,1.8065,1.7041,1.6306,1.6156,1.6251,1.6358,1.6579,1.6811,1.7396,1.8485,1.9293,1.9494,1.8671,1.931,2.0072,2.0584,2.17,2.3082,2.4493,2.6417,2.8034,2.8855,2.9865,3.0183,2.9035,2.7952,2.6678,2.4981,2.3606,2.2685,2.2157,2.1669,2.1887,2.3663,2.4892,2.619,3.0494,3.2791,3.4633,3.5833,3.6431,3.6014,3.4333,3.1898,3.152,3.1759,3.2303,3.1111,3.0208,2.9479,2.7591,2.595,2.4525,2.4042,2.4382,2.5528,2.6758,2.8102,2.9611,3.0944,3.146,3.1384,3.2213,3.3101,3.3955,3.4706,3.5837,3.7236,3.7077,3.6187,3.4842,0.0,0.0,0.0,2.7985,2.6253,2.4461,2.2207,2.0227,1.8482,1.7781,0.0,1.5848,1.5718,1.5437,1.4915,1.3978,0.0,0.0,0.0,0.0,0.0,0.0,0.0,0.0,0.0,0.0,0.0,1.4042,1.5626,1.6393,2.0186,2.3048,2.4253,2.5275,2.6064,2.6508,2.6783,2.628,2.4799,2.3881,2.2824,2.1451,2.0042,1.8819,1.7916,1.749,1.7063,1.6415,1.6468,1.6641,1.6674,1.638,1.6262,1.6334,1.7491,1.834,1.8596,1.8815,1.877,1.837,1.9823,2.1152,2.2174,2.4116,2.5943,2.7018,2.8445,2.9217,2.8472,2.8052,2.7212,2.5559,2.3906,2.2627,2.1891,2.1128,2.1068,2.291,2.4136,2.5135,3.0322,3.3146,3.5168,3.6498,0.0,3.7548,3.6642,3.4966,3.4218,3.4092,3.4338,3.3406,3.2479,3.1515,2.97,2.8206,2.6921,2.5809,2.5663,2.6486,2.6895,2.7619,2.8817,2.9917,3.0636,3.115,3.2546,3.3593,3.4401,3.544,3.6208,3.6698,3.6508,3.566,3.3903,3.1922,3.0212,2.8736,2.6784,2.5036,2.342,2.1419,1.9553,1.7823,1.6997,0.0,0.0,0.0,0.0,0.0,0.0,0.0,0.0,0.0,0.0,0.6407,0.5432,0.5434,0.6572,0.8239,1.0312,1.284,1.636,1.838,1.845,2.1888,2.4399,2.5079,2.6042,2.6914,2.7476,2.7175,2.64,2.5258,2.4175,2.3075,2.1827,2.0614,1.9534,1.8559,1.7631,1.7052,1.6885,1.6437,1.6561,1.7007,1.6645,1.6431,1.6598,1.6843,1.7248,1.7919,1.8147,1.8177,1.8009,1.8594,1.9594,2.0391,2.1745,2.3402,2.4885,2.6432,2.7567,2.7949,2.7766,2.7071,2.6097,2.4557,2.3207,2.2429,2.1579,2.1398,2.2591,2.3536,2.4332,3.0165,3.3244,3.5564,3.7034,3.7858,3.8525,3.8546,3.8032,3.6756,0.0,0.0,3.5386,3.4428,3.3284,3.1516,3.0033,2.8789,2.7301,2.6716,2.6889,2.6718,2.6896,2.7525,2.8464,2.9556,3.0642,3.261,3.411,3.5193,3.6363,3.6871,3.6664,3.6225,3.4919,3.2693,2.948,2.7861,2.7771,2.553,2.3559,2.2071,2.049,1.891,1.713,1.6222,1.5655,1.5404,1.4813,1.4281,1.3882,1.3207,1.2183,1.0704,1.0122,0.9254,0.7786,0.6913,0.722,0.8964,1.0047,1.198,1.5042,1.9141,2.123,2.051,2.3104,2.5019,2.5797,2.6634,2.7515,2.8341,2.7433,2.6462,2.5968,2.4591,2.3348,2.2372,2.125,2.0099,1.9107,1.7841,1.7094,1.7358,1.6798,1.6624,1.7477,1.7311,1.7145,1.7531,1.7029,1.6734,1.7426,1.7613,1.7666,1.803,1.8155,1.8447,1.9093,1.9935,2.1098,2.2908,2.4467,2.5888,2.7258,2.7173,2.6889,2.654,2.5388,2.4195,2.3415,2.2668,2.2286,2.2786,2.3309,2.3973,3.0887,3.3386,3.5552,3.7076,3.8062,3.9384,4.0018,4.0081,3.7974,3.7404,3.7918,3.6833,3.5709,3.4598,3.2842,3.0866,2.8617,2.7759,2.7071,2.6403,2.6168,2.5959,2.5825,2.6995,2.8256,2.9581,3.2515,3.4977,3.677,3.7679,3.8017,3.7742,3.5926,3.3242,3.0069,2.7272,2.5624,2.5104,2.395,2.2409,2.0402,1.9165,1.7853,1.642,1.5662,1.5118,1.4631,1.4406,1.4132,1.3841,1.3472,1.2956,1.2235,1.2145,1.1374,0.9869,0.9558,1.0115,1.1496,1.2904,1.5587,1.987,2.2051,2.2845,2.2554,2.4226,2.5653,2.6323,2.6999,2.7407,2.7661,2.7661,2.7063,2.5912,2.5189,2.4096,2.2655,2.1524,2.0322,1.9092,1.8562,1.8055,1.7671,1.7493,1.7627,1.8206,1.8112,1.7808,1.7807,1.7294,1.7139,1.7584,1.7325,1.7336,1.8129,1.8121,1.8198,1.824,1.9265,2.0235,2.1527,2.3085,2.4465,2.5509,2.6238,2.6733,2.7077,2.5829,2.4775,2.4197,2.3529,2.33,2.3693,2.4079,2.4542,3.0673,3.3254,3.4878,3.6274,3.7561,3.9398,4.0337,4.0558,3.9854,3.9238,3.8672,3.7462,3.6465,3.5503,3.3514,3.1733,2.9902,2.8924,2.7885,2.6886,2.6414,2.5968,2.5576,2.6505,2.7946,2.9833,3.2568,3.5141,3.7192,3.7846,3.7688,3.6507,3.336,3.0294,2.7726,2.5675,2.3921,2.2475,2.2358,2.1393,1.9362,1.7988,1.6473,1.4968,1.4012,1.3538,1.3499,1.3588,1.3705,1.3881,1.4373,1.438,1.3848,1.4373,1.415,1.3028,1.3257,1.3877,1.4864,1.6845,1.9526,2.2911,2.4015,2.4585,2.4855,2.5433,2.6114,2.6584,2.7179,2.7578,2.7742,2.7256,2.6526,2.5622,2.5057,2.4162,2.2734,2.1976,2.1137,1.9972,1.9301,1.8742,1.8466,1.8193,1.8395,1.913,1.9096,1.8813,1.8361,1.7764,1.7523,1.8028,1.7802,1.8052,1.8894,1.8675,1.8486,1.8675,1.9034,1.9749,2.0671,2.2102,2.3474,2.4697,2.5741,2.6486,2.6943,2.5963,2.4997,2.4543,2.4053,2.3849,2.4291,2.475,2.5146,3.029,3.2787,3.4219,3.5853,3.7781,3.9199,4.0144,4.0704,4.1198,4.0558,3.9212,3.8073,3.7026,3.578,3.4019,3.2409,3.0949,2.9777,2.8486,2.716,2.6627,2.5852,2.5087,2.5971,2.7606,2.996,3.2778,3.5385,3.7392,3.8098,3.7048,3.4454,3.0899,2.815,2.6214,2.4753,2.2956,2.0907,2.1057,2.0264,1.83,1.6717,1.51,1.353,1.2347,1.197,1.2341,1.2787,1.3494,1.4524,1.5776,1.6337,1.6115,1.7098,1.735,1.6683,1.7079,1.7717,1.853,2.0556,2.2753,2.4683,2.5266,2.5881,2.6434,2.6416,2.6441,2.6798,2.716,2.7435,2.7369,2.6842,2.5972,2.5265,2.4921,2.418,2.2923,2.2425,2.1898,2.0887,1.9855,1.9265,1.9248,1.8953,1.8975,1.9805,1.9957,1.9622,1.8935,1.8446,1.8302,1.828,1.8228,1.8459,1.9411,1.9217,1.8997,1.9288,1.9236,1.9709,2.06,2.1711,2.2911,2.4199,2.5307,2.5829,2.6138,2.5624,2.5022,2.4613,2.4285,2.4228,2.4923,2.5561,2.5967,3.0028,3.1773,3.3974,3.6865,3.9422,3.9062,3.9652,4.083,4.1086,4.064,3.9683,3.9222,3.7549,3.5355,3.4593,3.2978,3.0629,2.9843,2.8519,2.6804,2.612,2.488,2.3562,2.4978,2.6717,2.8963,3.3038,3.6062,3.7924,3.8671,3.6852,3.2696,3.0147,2.7977,2.6193,2.468,2.3047,2.1366,2.0488,1.8973,1.6758,1.5355,1.387,1.2219,1.1248,1.1004,1.1561,1.2415,1.3964,1.6288,1.797,1.9064,1.9493,2.0862,2.1194,2.0085,2.0578,2.1337,2.2188,2.3489,2.4474,2.4986,2.5838,2.6346,2.6734,2.6814,2.6822,2.6893,2.6793,2.6738,2.6574,2.6286,2.5733,2.5098,2.4753,2.4368,2.3525,2.2665,2.1733,2.105,2.0223,1.9803,1.982,1.9571,1.9629,2.0019,2.0162,2.0107,1.9686,1.9319,1.891,1.8318,1.8015,1.8207,1.8923,1.9209,1.9129,1.9288,1.9557,2.0047,2.0905,2.1561,2.2352,2.3593,2.4611,2.5212,2.5064,2.4913,2.4889,2.4804,2.4608,2.4646,2.5605,2.6353,2.6632,2.9629,3.1376,3.2835,3.5373,3.8224,3.8813,3.9624,4.0716,4.1062,4.0563,3.969,3.9314,3.8183,3.6394,3.516,3.3701,3.2082,3.0677,2.9296,2.7906,2.7031,2.5836,2.4735,2.5665,2.7385,2.9608,3.2545,3.5328,3.7487,3.73,3.4797,3.1085,2.8675,2.6488,2.43,2.2662,2.1233,1.993,1.8982,1.778,1.6432,1.4925,1.3024,1.1,1.0079,0.9962,1.064,1.2415,1.4786,1.7457,1.9775,2.1222,2.1799,2.2992,2.3221,2.2241,2.2659,2.3335,2.4134,2.5024,2.5724,2.6153,2.694,2.7233,2.7249,2.7178,2.692,2.6385,2.6185,2.6045,2.5798,2.5338,2.5013,2.4621,2.422,2.3692,2.296,2.2245,2.1532,2.0887,2.0382,2.011,2.0167,2.0103,2.0035,2.0138,2.0124,2.0052,2.0036,1.9777,1.934,1.8923,1.866,1.8379,1.8504,1.8578,1.8766,1.9065,1.9439,2.0031,2.0949,2.1602,2.2231,2.3108,2.4115,2.4556,2.4317,2.444,2.4624,2.4646,2.5294,2.5578,2.6168,2.695,2.7364,2.9192,3.0668,3.207,3.4324,3.6957,3.8053,3.918,4.0213,4.0795,4.0544,3.9783,3.9666,3.8982,3.7717,3.5707,3.4212,3.3095,3.1338,2.9871,2.8656,2.7655,2.6441,2.5328,2.6353,2.7919,3.0099,3.2559,3.5223,3.7523,3.5878,3.3296,3.0334,2.7732,2.5344,2.315,2.144,1.998,1.8857,1.7991,1.7117,1.6214,1.4881,1.2941,1.0523,0.9589,0.9562,1.0311,1.2833,1.569,1.8791,2.1303,2.3021,2.3913,2.4415,2.4299,2.3644,2.3918,2.4392,2.5032,2.5686,2.6237,2.6729,2.7289,2.7536,2.7262,2.7125,2.668,2.5835,2.5575,2.543,2.5081,2.4524,2.4136,2.4078,2.3643,2.3012,2.2575,2.1967,2.1366,2.0905,2.0473,2.0292,2.015,1.9984,1.9761,1.9744,1.9627,1.9727,2.0096,1.9868,1.9567,1.9745,1.9353,1.8783,1.8318,1.8449,1.8616,1.8874,1.9399,2.0066,2.0981,2.1692,2.218,2.2957,2.3789,2.4049,2.3842,2.3942,2.4483,2.4713,2.5376,2.6234,2.6678,2.7504,2.8104,2.8639,2.9285,3.2302,3.4538,3.6136,3.6741,3.7781,3.9375,4.0188,4.0419,4.0309,4.0475,4.0086,3.89,3.629,3.4342,3.2968,3.1407,2.9804,2.8367,2.7424,2.5921,2.4189,2.63,2.8006,2.9566,3.3547,3.6446,3.781,3.5519,3.3122,3.0661,2.7708,2.536,2.3515,2.1609,2.0057,1.8666,1.7933,1.7192,1.6275,1.5347,1.3767,1.1608,1.025,1.0277,1.1542,1.3629,1.6638,2.0534,2.2542,2.4265,2.5532,2.5178,2.4721,2.4452,2.4374,2.4477,2.5003,2.5489,2.5838,2.5963,2.6583,2.6596,2.6672,2.6634,2.618,2.5219,2.5136,2.4914,2.4398,2.3871,2.3555,2.3727,2.3094,2.2771,2.2887,2.2021,2.1423,2.1013,2.0473,2.011,1.9911,1.9232,1.9018,1.9046,1.9025,1.9175,1.9852,2.0059,2.0167,2.0252,1.987,1.9309,1.8514,1.8595,1.8928,1.9284,1.9689,2.0223,2.1137,2.1929,2.2308,2.2752,2.3487,2.3713,2.3424,2.3616,2.448,2.5005,2.5687,2.6327,2.6949,2.7815,2.8535,2.8455,2.9706,3.1946,3.3754,3.5315,3.6465,3.7836,3.9395,4.0289,4.0894,4.1188,4.1089,4.05,3.9372,3.7214,3.5691,3.455,3.1944,2.9552,2.771,2.6896,2.5545,2.4184,2.6236,2.8295,3.0347,3.391,3.6583,3.7686,3.5915,3.3379,3.0448,2.7341,2.4776,2.2685,2.0349,1.8792,1.8147,1.7463,1.6896,1.6565,1.6038,1.5196,1.4081,1.2538,1.2202,1.322,1.5498,1.8342,2.1565,2.3264,2.4559,2.5414,2.4767,2.4492,2.4781,2.4574,2.4636,2.5204,2.5853,2.6211,2.6248,2.696,2.714,2.6942,2.6562,2.609,2.5235,2.4557,2.4091,2.3596,2.3206,2.3082,2.3286,2.2673,2.2369,2.2441,2.1803,2.1066,2.0581,2.0002,1.9471,1.9174,1.8588,1.8242,1.8443,1.846,1.9007,1.9922,2.0288,2.0413,2.0637,2.0212,1.9586,1.902,1.8977,1.9201,1.9537,1.9888,2.0535,2.1286,2.1969,2.2445,2.3245,2.3776,2.3909,2.3829,2.4431,2.5156,2.584,2.6411,2.6683,2.7293,2.8219,2.872,2.8742,3.0211,3.1796,3.3245,3.4622,3.597,3.7615,3.9292,4.0293,4.1168,4.1901,4.1914,4.1319,4.0146,3.8241,3.6341,3.4722,3.1675,2.902,2.6856,2.5808,2.4645,2.3952,2.6025,2.8508,3.118,3.5186,3.768,3.8214,3.6467,3.3949,3.1049,2.755,2.4708,2.2432,1.9863,1.8298,1.7695,1.7064,1.671,1.6607,1.644,1.625,1.5834,1.4815,1.4428,1.4968,1.6891,1.9195,2.1668,2.3329,2.4473,2.5054,2.4675,2.453,2.4933,2.464,2.4728,2.5297,2.5799,2.6124,2.6212,2.6606,2.6844,2.6566,2.6251,2.5586,2.4871,2.4393,2.3727,2.2753,2.2429,2.2643,2.2835,2.2369,2.2061,2.2351,2.157,2.0797,2.0201,1.9455,1.8996,1.8656,1.7928,1.7683,1.7807,1.7921,1.8546,1.9555,2.0201,2.0462,2.0881,2.0474,2.0118,1.9718,1.9587,1.9398,1.9606,2.0132,2.0695,2.1442,2.2112,2.2889,2.3734,2.4182,2.435,2.4763,2.5258,2.5961,2.6638,2.689,2.7041,2.7723,2.8462,2.8853,2.9569,3.0348,3.1885,3.3019,3.4084,3.527,3.6953,3.8966,4.0184,4.139,4.2568,4.2959,4.2579,4.1321,3.9209,3.647,3.3393,3.0709,2.8086,2.5757,2.4204,2.3168,2.2667,2.5783,2.9075,3.2047,3.7392,3.9752,3.9301,3.7001,3.4676,3.2123,2.8419,2.5329,2.3121,2.0526,1.8559,1.7554,1.6899,1.6557,1.6256,1.6259,1.6366,1.6537,1.651,1.6431,1.6364,1.7614,1.9273,2.1214,2.2891,2.414,2.4871,2.5027,2.5059,2.5098,2.4716,2.4807,2.5349,2.5309,2.5436,2.5684,2.5508,2.5525,2.5506,2.5331,2.479,2.4047,2.3916,2.3465,2.2039,2.1689,2.2053,2.2626,2.2061,2.1808,2.2062,2.1536,2.0727,1.9928,1.9088,1.8535,1.818,1.7462,1.701,1.7191,1.7323,1.7762,1.8726,1.9579,2.0306,2.0668,2.0512,2.021,2.0119,2.0103,1.9756,1.966,2.0288,2.0822,2.1642,2.2419,2.3061,2.388,2.4603,2.4808,2.4995,2.5627,2.6315,2.6856,2.7058,2.7469,2.81,2.8702,2.8737,2.9353,2.9615,3.0382,3.1928,3.3763,3.5133,3.7116,3.9596,4.0934,4.2209,4.3307,4.3979,4.347,4.1903,4.0065,3.7232,3.3705,3.0172,2.6579,2.3509,2.2646,2.2022,2.2285,2.542,3.0214,3.5473,3.8979,4.0124,3.907,3.7229,3.5091,3.259,2.9011,2.5827,2.342,2.0809,1.8762,1.7517,1.685,1.6396,1.6028,1.5908,1.5818,1.5763,1.6016,1.6205,1.6562,1.8086,1.981,2.1471,2.2428,2.3569,2.474,2.5409,2.5665,2.5525,2.5304,2.5167,2.5411,2.5451,2.5411,2.5424,2.5158,2.5039,2.5002,2.4398,2.3663,2.3081,2.2899,2.2308,2.1514,2.1458,2.187,2.2321,2.1928,2.1841,2.226,2.1405,2.0343,1.9745,1.8827,1.8179,1.784,1.7062,1.6593,1.6736,1.681,1.7251,1.8288,1.9082,1.9587,2.0215,2.0103,2.0151,2.0103,2.0117,2.0032,2.009,2.0559,2.1017,2.1734,2.2632,2.3385,2.419,2.4906,2.5354,2.5545,2.5963,2.6688,2.7283,2.7621,2.8018,2.8545,2.8665,2.8717,3.0041,3.0228,3.0815,3.2132,3.4031,3.5516,3.7498,3.9762,4.1337,4.2641,4.3755,4.4354,4.3814,4.2241,4.0392,3.7553,3.4023,3.0319,2.6296,2.2489,2.1109,2.0838,2.1554,2.6228,3.131,3.6389,3.9094,3.9661,3.8858,3.7342,3.5632,3.3388,2.9924,2.6654,2.4042,2.143,1.9381,1.7929,1.7093,1.6377,1.583,1.5292,1.4984,1.4907,1.4926,1.5233,1.5955,1.7382,1.9123,2.1138,2.2596,2.3988,2.5263,2.587,2.6211,2.6177,2.5763,2.5497,2.551,2.5295,2.5187,2.5016,2.4651,2.4356,2.411,2.3335,2.2798,2.2136,2.19,2.1492,2.0997,2.1119,2.1543,2.2037,2.2066,2.2053,2.2182,2.1129,2.0252,1.9579,1.8735,1.8087,1.7561,1.7037,1.6457,1.6612,1.6706,1.708,1.8133,1.8789,1.931,1.9873,2.0051,2.0083,1.9984,2.0047,2.0325,2.0568,2.0945,2.1358,2.1808,2.2635,2.3511,2.459,2.5298,2.5861,2.6202,2.6762,2.7339,2.7747,2.8154,2.8375,2.8725,2.8799,2.898,3.1675,3.1797,3.2688,3.3662,3.4879,3.6259,3.7939,3.9789,4.13,4.2706,4.3765,4.4389,4.3906,4.2432,4.0368,3.7547,3.4186,3.0907,2.736,2.3625,2.1117,2.0132,2.2113,2.7399,3.199,3.5446,3.7855,3.8672,3.8262,3.7344,3.6219,3.4399,3.1036,2.7822,2.4801,2.2326,2.0126,1.8333,1.7368,1.6434,1.5486,1.4544,1.3923,1.3867,1.3497,1.3662,1.4557,1.6229,1.8197,2.0695,2.3423,2.518,2.5985,2.6335,2.6789,2.7034,2.6064,2.5665,2.5563,2.4941,2.4436,2.442,2.4053,2.3528,2.2804,2.2445,2.189,2.1098,2.0917,2.0753,2.045,2.0645,2.1247,2.1822,2.2167,2.2196,2.1635,2.0898,2.011,1.953,1.8703,1.7978,1.7684,1.7188,1.6857,1.6805,1.6961,1.7376,1.7911,1.8596,1.9315,1.9706,1.9844,1.9735,1.9558,1.9527,1.9818,2.0253,2.0845,2.1358,2.189,2.2753,2.3423,2.4514,2.584,2.6371,2.6867,2.731,2.7838,2.8298,2.8605,2.868,2.885,2.9003,2.9168,3.3759,3.3004,3.3608,3.4695,3.6075,3.6901,3.8381,4.0337,4.1755,4.289,4.3872,4.4505,4.4103,4.299,4.059,3.8099,3.5247,3.1566,2.8182,2.5085,2.177,2.1923,2.4091,2.7456,3.1132,3.4318,3.6529,3.7617,3.7645,3.705,3.6037,3.482,3.1304,2.8022,2.5135,2.2747,2.0499,1.841,1.7059,1.5925,1.4824,1.3421,1.2226,1.152,1.155,1.1851,1.2816,1.6555,1.9698,2.1705,2.4107,2.5926,2.7008,2.7347,2.7565,2.7388,2.6522,2.5732,2.5315,2.4509,2.4136,2.4153,2.3409,2.2659,2.2151,2.147,2.0701,1.9852,1.9451,1.9399,1.9486,2.0117,2.0982,2.217,2.2405,2.2196,2.1635,2.0807,2.0025,1.9249,1.8577,1.8026,1.7552,1.7272,1.6951,1.6871,1.6904,1.7088,1.7775,1.8086,1.8745,1.9184,1.9284,1.9163,1.9072,1.9026,1.933,1.9806,2.0342,2.1119,2.1898,2.3017,2.3409,2.393,2.598,2.6953,2.7207,2.7543,2.8162,2.8802,2.8748,2.8787,2.9083,2.9447,2.9464,3.5411,3.4809,3.525,3.6126,3.7209,3.7916,3.9222,4.0807,4.1784,4.2757,4.3595,4.3771,4.3423,4.2506,4.0453,3.8269,3.5889,3.2755,2.9531,2.6125,2.284,2.2455,2.4351,2.6582,2.9524,3.2731,3.5402,3.6733,3.7114,3.6899,3.6038,3.4295,3.1309,2.8196,2.5268,2.2751,2.0601,1.869,1.7058,1.5627,1.4393,1.2823,1.1456,1.0384,1.0105,1.0417,1.2594,1.6731,2.0211,2.2525,2.4846,2.6849,2.8139,2.8432,2.8528,2.8359,2.7242,2.6133,2.5484,2.4566,2.3894,2.3687,2.2917,2.2288,2.1635,2.0848,1.9773,1.8254,1.8039,1.8178,1.867,1.9636,2.0867,2.1935,2.2155,2.2035,2.1803,2.0789,1.9957,1.9199,1.8446,1.7751,1.7341,1.7051,1.6814,1.6729,1.6956,1.7213,1.7595,1.779,1.8155,1.8617,1.8934,1.8814,1.8852,1.8822,1.9155,1.9629,2.0719,2.1322,2.2225,2.3328,2.4105,2.4935,2.6423,2.7518,2.7787,2.8128,2.8469,2.8861,2.8821,2.9121,2.9567,2.9934,2.9917,3.6898,3.6814,3.7232,3.7654,3.8162,3.9101,4.0169,4.1359,4.1834,4.2565,4.3247,4.277,4.2521,4.1778,4.0144,3.813,3.5976,3.3931,3.0578,2.7032,2.3801,2.2645,2.3304,2.5277,2.8074,3.1082,3.4278,3.5817,3.6425,3.6793,3.5868,3.376,3.1013,2.8219,2.5412,2.2665,2.0558,1.8955,1.7095,1.5438,1.3957,1.2355,1.0746,0.9495,0.8977,1.0249,1.3111,1.6789,2.0109,2.3254,2.5789,2.7617,2.9079,2.9431,2.9406,2.9099,2.7783,2.6583,2.6045,2.4527,2.3651,2.3419,2.2878,2.2104,2.1273,2.0281,1.8808,1.6935,1.6829,1.716,1.7918,1.9361,2.0633,2.155,2.1671,2.1856,2.1677,2.0772,1.9793,1.9351,1.8303,1.7415,1.6922,1.6698,1.6617,1.6296,1.6672,1.7094,1.7419,1.7698,1.8022,1.8356,1.8483,1.8536,1.8506,1.8604,1.9109,1.9614,2.1211,2.2144,2.2947,2.3988,2.5205,2.6219,2.6986,2.786,2.8597,2.8888,2.9042,2.9309,2.9499,2.9837,3.0143,3.0548,3.0716,3.8639,3.7534,3.8824,3.9211,3.9122,3.9799,4.073,4.1781,4.2279,4.2997,4.358,4.3014,4.2535,4.2313,4.0018,3.812,3.6538,3.4266,3.0897,2.643,2.424,2.3361,2.3739,2.4963,2.7207,3.028,3.2487,3.4396,3.5677,3.5596,3.465,3.317,3.0368,2.7729,2.5568,2.2873,2.0832,1.9074,1.6934,1.5061,1.3363,1.1318,0.9537,0.8286,0.8278,0.987,1.2866,1.6894,2.0857,2.3944,2.6242,2.821,2.951,2.9572,2.9413,2.9021,2.7688,2.6418,2.5591,2.4508,2.3668,2.3438,2.245,2.1662,2.1209,1.9665,1.817,1.6662,1.5873,1.6163,1.7292,1.8706,2.0134,2.124,2.1981,2.2149,2.168,2.0724,1.981,1.9044,1.8092,1.7161,1.6507,1.6123,1.6045,1.5908,1.6253,1.6779,1.7167,1.753,1.7706,1.7882,1.7941,1.7978,1.8111,1.8312,1.892,1.9744,2.1315,2.2905,2.372,2.4631,2.5693,2.6423,2.7051,2.7974,2.9069,2.9344,2.9561,2.9813,3.0083,3.0478,3.099,3.1265,3.1612,3.8961,3.8437,3.9521,3.998,4.0259,4.0837,4.1713,4.2552,4.2482,4.2906,4.3246,4.2445,4.1798,4.1591,3.9848,3.8335,3.6416,3.373,3.0809,2.7848,2.5935,2.5029,2.4981,2.5752,2.7578,3.0416,3.2626,3.4369,3.5208,3.5011,3.4042,3.2105,2.9491,2.7214,2.5014,2.2386,2.0004,1.8262,1.6281,1.4274,1.2325,1.0671,0.8566,0.7471,0.7965,0.9995,1.3446,1.7674,2.1832,2.5246,2.7622,2.9117,3.0141,3.0183,2.9921,2.9339,2.7979,2.6811,2.5954,2.4628,2.3637,2.3279,2.2102,2.1279,2.0463,1.914,1.7303,1.5779,1.4888,1.4976,1.6317,1.8047,1.9621,2.1375,2.2317,2.2686,2.2501,2.1296,1.9853,1.906,1.7966,1.6994,1.6272,1.5789,1.5542,1.5469,1.5931,1.6437,1.6558,1.6822,1.7153,1.7334,1.7345,1.7424,1.7537,1.7897,1.8701,1.9775,2.1338,2.2897,2.4268,2.5213,2.6251,2.697,2.7706,2.8484,2.9466,2.9691,3.0066,3.0338,3.0778,3.1328,3.1863,3.2214,3.2757,3.879,3.9322,3.98,4.0433,4.1198,4.176,4.2602,4.3507,4.278,4.2699,4.2735,4.1506,4.0996,4.0367,3.9568,3.8176,3.5974,3.3224,3.0608,2.9537,2.7406,2.6596,2.646,2.7025,2.817,3.0856,3.255,3.4021,3.4751,3.4593,3.3106,3.0984,2.8777,2.6781,2.4341,2.1562,1.9343,1.7738,1.5723,1.3494,1.1418,1.008,0.8279,0.6687,0.7971,1.0766,1.4511,1.8732,2.3013,2.7191,2.9396,3.0486,3.0893,3.0847,3.0429,2.9741,2.8255,2.7197,2.6208,2.4844,2.3673,2.2958,2.1662,2.0766,2.0005,1.8366,1.6235,1.457,1.3449,1.3604,1.4934,1.6755,1.8987,2.1171,2.2539,2.348,2.3521,2.2128,2.0634,1.9257,1.8071,1.6888,1.6126,1.5561,1.5203,1.5043,1.5603,1.591,1.6015,1.6176,1.6501,1.6636,1.6675,1.6854,1.7043,1.7551,1.8252,1.9651,2.1194,2.2905,2.4624,2.5943,2.6964,2.78,2.8563,2.9136,2.9717,3.0031,3.039,3.0849,3.155,3.2142,3.2684,3.3329,3.3705,3.9464,3.9775,4.0435,4.1082,4.1595,4.1856,4.2739,4.3557,4.317,4.2825,4.2745,4.1631,4.0901,4.0237,3.8891,3.7275,3.5286,3.2898,3.1311,3.0367,2.8443,2.7414,2.7653,2.7696,2.8745,3.0185,3.1583,3.2681,3.3568,3.2977,3.1957,3.0462,2.8188,2.6129,2.4442,2.2233,1.9265,1.7139,1.5067,1.2812,1.0884,0.9367,0.8024,0.639,0.839,1.1664,1.5542,2.005,2.4519,2.8454,3.0526,3.1144,3.1121,3.0882,3.0172,2.9165,2.8275,2.7286,2.614,2.5008,2.3809,2.2609,2.1158,2.0332,1.9583,1.7838,1.5327,1.3049,1.1891,1.1921,1.3414,1.5569,1.8169,2.0645,2.279,2.4051,2.3973,2.2982,2.1567,2.0121,1.8398,1.6858,1.614,1.5461,1.5064,1.4836,1.5053,1.5273,1.5212,1.5486,1.5805,1.5894,1.5852,1.6202,1.6507,1.7238,1.7933,1.9419,2.0985,2.2945,2.4717,2.654,2.7783,2.836,2.8828,2.924,2.9787,3.0223,3.0866,3.1479,3.2277,3.2984,3.3558,3.4115,3.4265,3.9012,3.9474,4.1139,4.2405,4.3235,4.379,4.4354,4.4838,4.4406,4.3863,4.3122,4.2109,4.1355,4.0646,3.9187,3.7168,3.4954,3.3219,3.1862,3.0684,2.933,2.8512,2.8612,2.8432,2.8993,2.9769,3.033,3.126,3.2629,3.2161,3.0798,2.9012,2.698,2.5243,2.3122,2.0231,1.7818,1.557,1.3411,1.1465,0.9719,0.8523,0.7472,0.7765,0.9826,1.3257,1.7283,2.1564,2.6055,2.9489,3.123,3.136,3.1113,3.0551,2.9986,2.8857,2.8081,2.7241,2.6021,2.5069,2.38,2.2529,2.0993,1.9828,1.9057,1.7334,1.4823,1.246,1.0814,1.0808,1.2181,1.4458,1.742,2.0635,2.3019,2.4411,2.4775,2.371,2.2303,2.0789,1.8888,1.7347,1.6345,1.5677,1.5035,1.4684,1.4593,1.4588,1.4569,1.4764,1.5103,1.5273,1.5287,1.5665,1.6069,1.6699,1.7616,1.8993,2.0925,2.2778,2.4786,2.6761,2.8009,2.8834,2.9224,2.962,2.9952,3.0438,3.1265,3.2168,3.2793,3.3468,3.4364,3.4907,3.4865,3.8907,3.9808,4.2191,4.3924,4.5193,4.5927,4.6222,4.6152,4.5682,4.4764,4.3695,4.2512,4.1774,4.1104,3.9378,3.7181,3.4731,3.3306,3.216,3.1092,2.9991,2.9364,2.9229,2.9158,2.9322,2.9566,2.9937,3.0287,3.1191,3.0857,2.9582,2.8022,2.6159,2.3909,2.1521,1.8661,1.5543,1.3188,1.1152,0.9575,0.866,0.8138,0.8196,0.886,1.1941,1.5714,2.0035,2.3824,2.777,3.0718,3.2016,3.1869,3.1134,3.0472,2.9585,2.8667,2.793,2.7092,2.5898,2.4812,2.3508,2.2196,2.0787,1.9607,1.8008,1.6393,1.4404,1.223,1.0506,1.0039,1.1441,1.3609,1.674,2.0147,2.2754,2.4459,2.508,2.4485,2.2727,2.1112,1.9216,1.7825,1.6698,1.5877,1.5202,1.4573,1.4399,1.4183,1.415,1.4077,1.4295,1.4616,1.4771,1.5075,1.5562,1.6245,1.7223,1.8444,2.068,2.2783,2.4879,2.692,2.817,2.9367,2.9815,3.0219,3.0443,3.0868,3.1755,3.2603,3.3092,3.3882,3.4964,3.5237,3.5021,4.0503,4.252,4.3919,4.5475,4.7011,4.731,4.707,4.6882,4.6302,4.4958,4.3803,4.2751,4.2056,4.095,3.916,3.6797,3.469,3.3217,3.2125,3.1115,3.0037,2.9548,2.9668,2.9663,2.9577,2.9724,3.0196,3.054,3.0467,2.9477,2.8514,2.7405,2.4828,2.2653,2.0406,1.7091,1.5118,1.2689,1.0638,0.9492,0.9253,0.9328,1.0463,1.2381,1.5108,1.8585,2.2725,2.6184,2.9631,3.2708,3.3265,3.2809,3.1605,3.0364,2.9051,2.7948,2.7043,2.632,2.4923,2.3944,2.295,2.1632,2.0195,1.8971,1.7421,1.4909,1.2691,1.1625,0.9902,0.9681,1.093,1.2786,1.5864,1.9118,2.1998,2.3888,2.4886,2.4393,2.284,2.126,1.9363,1.8045,1.6861,1.6134,1.5409,1.4755,1.4179,1.3881,1.3664,1.3604,1.3531,1.3844,1.4195,1.4496,1.4987,1.5659,1.6878,1.7978,2.0337,2.282,2.4896,2.7009,2.9034,3.0101,3.0592,3.1096,3.1417,3.2015,3.2521,3.3066,3.3651,3.459,3.5587,3.5606,3.5333,4.3446,4.4369,4.68,4.868,4.9961,5.0484,5.0275,4.9395,4.8522,4.6951,4.5009,4.3692,4.2228,4.0418,3.8397,3.622,3.4105,3.2964,3.1801,3.0882,3.0011,2.9778,2.9971,3.0023,2.9977,3.0,3.0003,2.988,2.9588,2.8861,2.7827,2.5693,2.3132,2.0415,1.8268,1.4619,1.2306,1.0718,0.9891,0.9932,1.0847,1.2322,1.4035,1.5807,1.8589,2.1782,2.4893,2.7704,3.044,3.2814,3.2937,3.2049,3.1085,2.9662,2.807,2.6224,2.5634,2.5121,2.4428,2.3343,2.2355,2.1349,2.0121,1.895,1.7128,1.4713,1.2562,1.2133,1.06,1.0047,1.0824,1.232,1.5074,1.8091,2.0861,2.265,2.3824,2.3545,2.2628,2.105,1.9613,1.8162,1.6803,1.5966,1.5177,1.4489,1.3899,1.3417,1.3174,1.3003,1.3003,1.3016,1.3506,1.39,1.4449,1.5123,1.6515,1.7867,2.0142,2.2561,2.4837,2.6964,2.9234,3.0974,3.1724,3.2175,3.253,3.2693,3.2993,3.3468,3.4102,3.5002,3.5743,3.6016,3.5879,4.6814,4.7548,5.0146,5.186,5.2847,5.3745,5.3351,5.2064,5.0895,4.9167,4.6908,4.482,4.2412,4.0078,3.8142,3.6143,3.3809,3.2788,3.1461,3.0409,3.0013,3.0097,3.0228,3.0281,3.0465,3.0488,3.0293,2.9891,2.9138,2.8162,2.6554,2.407,2.1028,1.8226,1.5143,1.1982,0.9349,0.8732,0.9162,1.0412,1.251,1.5359,1.7402,1.9562,2.1948,2.4598,2.6941,2.896,3.1375,3.2405,3.2413,3.1552,3.0409,2.8776,2.6958,2.5336,2.4285,2.3591,2.3206,2.2549,2.1828,2.1034,2.021,1.8878,1.7512,1.5308,1.3556,1.2952,1.1165,1.0575,1.0821,1.1904,1.3943,1.6589,1.9209,2.1032,2.2429,2.2247,2.1727,2.0475,1.8989,1.7687,1.6545,1.5743,1.5002,1.4318,1.3646,1.3052,1.2723,1.2478,1.2552,1.2649,1.3101,1.3617,1.4309,1.5034,1.6289,1.7912,2.019,2.2695,2.5207,2.7741,3.0075,3.1469,3.2593,3.3415,3.3886,3.3532,3.3294,3.4028,3.4727,3.5021,3.547,3.5879,3.6423,5.0621,5.3365,5.3762,5.4314,5.4941,5.5786,5.5332,5.3918,5.2578,5.0994,4.8648,4.5775,4.2777,4.0631,3.858,3.6506,3.4443,3.3033,3.1616,3.0681,3.0205,3.0402,3.0598,3.0964,3.1332,3.1592,3.1141,3.0195,2.8869,2.739,2.577,2.3723,1.9664,1.6189,1.2984,0.9907,0.8015,0.7989,0.9192,1.164,1.4383,1.7365,2.0114,2.2321,2.4583,2.6898,2.91,3.0478,3.1377,3.2428,3.1822,3.0897,2.935,2.779,2.5975,2.4351,2.2975,2.2258,2.1612,2.1557,2.116,2.0343,1.9613,1.8955,1.7996,1.6423,1.4866,1.3429,1.1705,1.0693,1.0655,1.1117,1.2841,1.4912,1.7328,1.9069,2.0362,2.0955,2.0373,1.9579,1.8348,1.6979,1.5828,1.4876,1.4366,1.3694,1.2881,1.2198,1.2095,1.1944,1.2169,1.2342,1.2869,1.3496,1.4161,1.5232,1.6544,1.8378,2.0628,2.3291,2.5996,2.8426,3.0803,3.2059,3.3236,3.4259,3.4945,3.4571,3.4452,3.4883,3.5333,3.547,3.6016,3.6559,3.6964,5.0538,5.3843,5.5395,5.6779,5.7988,5.8406,5.7862,5.6478,5.4632,5.1691,4.8345,4.5328,4.2967,4.1029,3.8888,3.6863,3.4882,3.3406,3.2138,3.147,3.1255,3.1353,3.163,3.2019,3.264,3.2622,3.2034,3.1482,3.0567,2.7599,2.5084,2.2439,1.8716,1.4992,1.1659,0.8727,0.7375,0.8746,1.1251,1.4468,1.6826,1.9921,2.2799,2.5135,2.6465,2.8278,2.9852,3.0294,3.095,3.1146,3.0684,2.9545,2.8192,2.6531,2.4926,2.3356,2.2009,2.096,2.026,2.0317,2.033,1.9911,1.9299,1.8821,1.8342,1.708,1.5719,1.4261,1.2422,1.1181,1.093,1.0898,1.175,1.3645,1.5389,1.711,1.8211,1.8916,1.908,1.8262,1.7315,1.617,1.5055,1.389,1.3501,1.2973,1.2175,1.1467,1.139,1.1465,1.1641,1.2102,1.2663,1.3473,1.4129,1.5436,1.6814,1.8865,2.1071,2.3917,2.6636,2.9016,3.1135,3.2487,3.388,3.4854,3.5489,3.5563,3.5582,3.5624,3.5664,3.5743,3.6403,3.7254,3.7502,4.8734,5.2149,5.4895,5.7532,5.9624,6.0129,5.9649,5.843,5.6367,5.2865,4.8315,4.568,4.3509,4.1704,3.9404,3.7453,3.5677,3.4197,3.2887,3.2214,3.1896,3.2093,3.2426,3.288,3.3397,3.3494,3.3143,3.2588,3.1616,2.8021,2.5287,2.2365,1.8843,1.5179,1.1206,0.8255,0.7246,0.9791,1.3305,1.7162,1.9321,2.2468,2.4998,2.7099,2.8388,2.9127,3.0043,3.0326,3.0222,3.0018,2.9379,2.8319,2.6842,2.5326,2.3669,2.232,2.1109,2.0064,1.9482,1.9353,1.9637,1.941,1.9198,1.8858,1.8443,1.7687,1.6262,1.4849,1.3138,1.1652,1.1036,1.0406,1.0343,1.1882,1.3197,1.4798,1.6033,1.6859,1.7103,1.7035,1.6091,1.5299,1.4052,1.2897,1.2085,1.1716,1.115,1.0622,1.058,1.08,1.1251,1.1833,1.2518,1.3357,1.4254,1.5523,1.6994,1.9465,2.1767,2.4464,2.7061,2.9599,3.1757,3.3364,3.4602,3.5491,3.6133,3.6446,3.6309,3.6132,3.6426,3.6798,3.7124,3.7975,3.8212,4.5166,4.8465,5.2032,5.5778,5.9112,6.0632,6.0249,5.8877,5.7228,5.416,4.9948,4.6759,4.4535,4.288,4.0277,3.8391,3.6804,3.5276,3.3968,3.2989,3.265,3.2405,3.2813,3.3474,3.4386,3.4939,3.4358,3.3313,3.2229,2.9131,2.6025,2.2892,1.9751,1.5979,1.1555,0.92,0.9224,1.1495,1.4982,1.8295,2.1466,2.4553,2.6705,2.8183,2.9298,2.9888,2.9897,2.9956,2.9581,2.8658,2.8733,2.7568,2.5551,2.3975,2.2701,2.1656,2.0428,1.9555,1.9026,1.8803,1.8836,1.8924,1.8741,1.8846,1.88,1.7847,1.6495,1.5137,1.3414,1.1563,1.0346,0.9384,0.9655,1.0158,1.1469,1.2585,1.3926,1.48,1.5068,1.5419,1.5023,1.4276,1.3061,1.198,1.0944,1.0314,0.9943,0.9824,0.9926,1.0334,1.0817,1.1446,1.2145,1.3113,1.4099,1.5524,1.7309,1.9806,2.2319,2.5011,2.787,3.0672,3.27,3.4187,3.5343,3.6281,3.6889,3.7441,3.7541,3.7565,3.7944,3.8259,3.8541,3.8636,3.8807,4.0817,4.3491,4.7011,5.0621,5.4435,5.8229,5.9238,5.8192,5.5895,5.2858,4.9781,4.7484,4.54,4.327,4.1572,3.9732,3.7991,3.6627,3.5206,3.4237,3.3928,3.3984,3.4288,3.4846,3.554,3.549,3.4936,3.4168,3.2994,3.0067,2.7361,2.4355,2.081,1.6525,1.355,1.1974,1.3061,1.4826,1.7731,2.0647,2.3306,2.5891,2.7801,2.8898,2.9562,2.9635,2.9421,2.944,2.8534,2.7621,2.7748,2.6709,2.4796,2.3304,2.2215,2.1328,2.0194,1.8735,1.781,1.7247,1.7611,1.7941,1.8122,1.8236,1.8406,1.7148,1.6139,1.5374,1.3794,1.2124,1.0923,0.9648,0.933,0.9377,1.0369,1.0983,1.204,1.2628,1.3025,1.3369,1.3292,1.2625,1.1688,1.16,1.0697,1.0201,1.0052,0.974,0.9801,1.0167,1.0587,1.1086,1.1742,1.2698,1.3862,1.5416,1.7541,1.9974,2.265,2.5569,2.851,3.1546,3.3309,3.4774,3.5902,3.687,3.7697,3.8377,3.8957,3.9206,3.9446,3.9259,3.9051,3.9178,3.9558,3.6718,3.9068,4.2267,4.5558,4.9367,5.4717,5.6833,5.5933,5.3618,5.1087,4.8897,4.7503,4.5736,4.363,4.2183,4.072,3.8919,3.7901,3.6452,3.5575,3.5438,3.5333,3.5582,3.6283,3.6567,3.6352,3.5841,3.5124,3.3848,3.0907,2.8169,2.5379,2.2392,2.0013,1.7523,1.6911,1.6664,1.8522,2.0996,2.3542,2.5534,2.7343,2.8836,2.9324,2.9511,2.933,2.899,2.8425,2.7621,2.7025,2.6521,2.5912,2.432,2.3176,2.2123,2.1117,1.9929,1.8474,1.7278,1.6598,1.6859,1.6992,1.7063,1.7462,1.7815,1.6899,1.6151,1.5331,1.4158,1.2586,1.1125,0.9701,0.8962,0.9008,0.8762,0.9489,1.008,1.0706,1.1189,1.1535,1.1785,1.1104,1.0798,1.0843,1.0744,1.0497,1.0247,0.9921,0.9706,0.9954,1.0328,1.0789,1.1521,1.2618,1.3883,1.5432,1.7612,2.0091,2.2971,2.5863,2.9254,3.2285,3.3868,3.5483,3.6876,3.7922,3.8645,3.9311,3.9897,4.0473,4.0807,4.0351,3.9661,3.9776,4.0236,3.2974,3.5227,3.8157,4.1076,4.452,5.0425,5.2967,5.262,5.0991,4.9535,4.8145,4.6152,4.4789,4.3918,4.2493,4.0949,3.951,3.8949,3.765,3.6524,3.6181,3.6129,3.6389,3.6934,3.7181,3.7293,3.688,3.5728,3.4602,3.1921,2.908,2.6712,2.4819,2.3341,2.2218,2.145,2.0943,2.2347,2.4335,2.6389,2.7786,2.909,2.9764,2.9869,2.9582,2.9063,2.8619,2.7882,2.7109,2.6513,2.6133,2.4937,2.3793,2.3061,2.2057,2.1078,1.9764,1.8541,1.7328,1.6655,1.6215,1.6328,1.6245,1.692,1.7241,1.677,1.611,1.5484,1.4406,1.2644,1.1042,0.9761,0.8501,0.7999,0.7223,0.7713,0.8459,0.8991,0.9407,0.975,1.0222,1.0104,1.0575,1.0628,1.0893,1.1102,1.0863,1.0427,1.019,0.9839,1.0219,1.0578,1.1457,1.2658,1.3992,1.5231,1.7569,1.9916,2.3243,2.6276,2.968,3.2769,3.4592,3.6349,3.7971,3.8929,3.929,3.996,4.0926,4.1303,4.1573,4.1463,4.0672,4.0738,4.1042,3.2351,3.3618,3.5629,3.8137,4.0992,4.5078,4.7863,4.943,4.8826,4.7388,4.5356,4.5092,4.4055,4.2511,4.205,4.1131,4.0446,3.9597,3.8556,3.7661,3.7154,3.6936,3.7061,3.7416,3.7451,3.7252,3.6764,3.6237,3.4416,3.2274,3.0288,2.7949,2.7133,2.6467,2.6066,2.5867,2.5698,2.6016,2.7583,2.8473,2.9336,3.0306,3.0328,2.9726,2.903,2.8462,2.7899,2.7081,2.6397,2.6189,2.5914,2.4933,2.358,2.301,2.229,2.0872,1.9679,1.8572,1.7391,1.6661,1.632,1.5982,1.5879,1.6267,1.6636,1.6653,1.6017,1.5498,1.4769,1.3255,1.1731,1.0416,0.9055,0.8023,0.7334,0.7135,0.7684,0.7666,0.8111,0.8361,0.8737,0.9473,0.9935,1.063,1.0915,1.1467,1.1593,1.1173,1.0733,1.0355,1.0339,1.0724,1.1442,1.268,1.3614,1.4956,1.7438,1.9986,2.331,2.6848,3.0515,3.3354,3.5376,3.7066,3.853,3.9216,3.969,4.0496,4.1153,4.1683,4.1943,4.1812,4.1767,4.1871,4.1714,3.2266,3.2848,3.43,3.6648,3.9497,4.1892,4.4071,4.5609,4.5917,4.4924,4.3735,4.3522,4.2901,4.2021,4.1746,4.1421,4.0754,4.0578,3.9659,3.8256,3.8278,3.791,3.7816,3.7885,3.8027,3.7565,3.7191,3.6711,3.4816,3.276,3.0675,3.0128,2.939,2.8835,2.8639,2.8885,2.9268,2.9279,2.9662,3.0258,3.0501,3.0747,3.0075,2.9208,2.8394,2.7761,2.7306,2.6371,2.5993,2.5691,2.5427,2.452,2.3261,2.2739,2.2303,2.1046,2.0119,1.9209,1.8036,1.7031,1.6442,1.6166,1.5862,1.606,1.6425,1.6532,1.6224,1.5819,1.5071,1.4175,1.2673,1.1154,0.9813,0.8512,0.7766,0.6932,0.6816,0.671,0.6885,0.7155,0.7786,0.854,0.9384,1.0182,1.1309,1.2299,1.275,1.2559,1.1872,1.1185,1.1017,1.1126,1.1854,1.2792,1.3889,1.5367,1.7904,2.0687,2.3825,2.7423,3.1035,3.4023,3.6123,3.7657,3.8937,3.9498,4.0084,4.0651,4.1221,4.1893,4.2563,4.289,4.2996,4.2765,4.2604,3.2911,3.2894,3.4044,3.6578,3.9308,4.0758,4.1631,4.1687,4.2762,4.2791,4.2431,4.1834,4.1696,4.134,4.1406,4.1409,4.1103,4.1232,4.0389,3.8614,3.8969,3.8713,3.7982,3.8255,3.8083,3.8301,3.8016,3.6907,3.5764,3.3923,3.2471,3.2347,3.1693,3.0979,3.0621,3.0684,3.086,3.0957,3.0412,3.031,3.0558,3.0464,2.9741,2.8977,2.8112,2.7412,2.6851,2.6306,2.5561,2.5184,2.457,2.3752,2.2939,2.2176,2.1693,2.1445,2.0605,1.9634,1.8615,1.7642,1.6977,1.6568,1.6279,1.6529,1.6796,1.6813,1.654,1.6237,1.5443,1.468,1.3261,1.1946,1.0651,0.9523,0.8634,0.7823,0.7225,0.7008,0.6878,0.7177,0.763,0.852,0.9482,1.054,1.1744,1.3048,1.3678,1.3536,1.3267,1.2347,1.2055,1.1977,1.2813,1.3838,1.5102,1.6771,1.8997,2.1745,2.4639,2.7979,3.1789,3.4512,3.7002,3.8358,3.9539,3.9927,4.0342,4.1039,4.1849,4.2936,4.3601,4.4111,4.4073,4.3789,4.3546,3.4954,3.4825,3.6329,3.8185,3.9836,4.0692,4.1516,4.2093,4.1261,4.1047,4.0782,4.0927,4.0837,4.0585,4.0841,4.0942,4.1406,4.1437,4.0689,3.9819,3.9647,3.8868,3.7742,3.7909,3.7723,3.73,3.7105,3.6963,3.5974,3.4667,3.3735,3.3068,3.2776,3.2498,3.1815,3.173,3.1511,3.1699,3.0683,3.003,3.0102,2.9794,2.9252,2.8184,2.721,2.6861,2.6461,2.5831,2.5532,2.5324,2.4517,2.3825,2.307,2.1952,2.1641,2.1632,2.0943,2.011,1.91,1.8197,1.7638,1.7248,1.7097,1.7268,1.7378,1.7177,1.6995,1.6556,1.5929,1.4985,1.4106,1.2888,1.1728,1.0666,0.9648,0.8759,0.7886,0.754,0.7194,0.7429,0.7897,0.88,0.9788,1.0906,1.217,1.3107,1.4035,1.4334,1.4412,1.3966,1.3645,1.3673,1.4222,1.5235,1.6583,1.7985,2.0033,2.2512,2.544,2.889,3.2588,3.5852,3.8777,3.934,4.0078,4.0595,4.1114,4.161,4.2545,4.3589,4.4223,4.4583,4.5008,4.4889,4.4594,3.7311,3.6604,3.8109,3.9643,4.0907,4.1462,4.1923,4.2088,4.1561,4.0779,4.0135,4.0255,4.0074,4.0011,4.035,4.0873,4.1497,4.1808,4.1423,4.0857,3.9948,3.9195,3.8442,3.7741,3.743,3.6989,3.7,3.6832,3.6146,3.56,3.4799,3.4053,3.3821,3.3293,3.2641,3.2058,3.1466,3.1368,3.0233,2.9599,2.9444,2.9046,2.863,2.7556,2.6918,2.6449,2.6083,2.5488,2.5047,2.4675,2.3793,2.3148,2.2549,2.2191,2.188,2.162,2.122,2.0388,1.9518,1.8776,1.8197,1.7788,1.7586,1.7812,1.7534,1.7472,1.7462,1.7015,1.6695,1.5863,1.513,1.4048,1.3146,1.2285,1.1295,1.0361,0.9618,0.9029,0.8671,0.8677,0.9155,0.9737,1.0738,1.1579,1.2892,1.4286,1.4961,1.5406,1.5472,1.5664,1.5371,1.5459,1.5981,1.7069,1.8621,1.9746,2.0953,2.351,2.6201,3.0558,3.4635,3.7919,4.0427,4.0695,4.0896,4.152,4.2038,4.2293,4.2949,4.3915,4.4491,4.4963,4.5403,4.5914,4.5646,3.9663,3.8432,3.9568,4.0944,4.2108,4.2319,4.2409,4.2373,4.2039,4.1325,4.0429,3.9706,3.9433,3.9818,4.0186,4.0716,4.1139,4.1404,4.1555,4.1347,4.0516,3.9449,3.8466,3.7884,3.7232,3.7006,3.6969,3.6912,3.6666,3.6064,3.5485,3.4926,3.4289,3.3507,3.3026,3.2238,3.1411,3.0956,3.002,2.9213,2.8636,2.8277,2.7917,2.7297,2.6675,2.6189,2.5717,2.5322,2.461,2.3955,2.3235,2.2649,2.2403,2.2164,2.2133,2.1821,2.1358,2.0629,1.9865,1.9037,1.8633,1.8207,1.8089,1.8035,1.7898,1.7728,1.7855,1.763,1.7281,1.67,1.6074,1.5256,1.4461,1.3723,1.2847,1.2172,1.1437,1.0808,1.055,1.0308,1.0778,1.1374,1.2021,1.2758,1.3878,1.5192,1.6045,1.6429,1.6793,1.7138,1.7161,1.7552,1.8166,1.9387,2.052,2.1532,2.2393,2.4435,2.7432,3.2253,3.6502,3.9029,4.0738,4.1474,4.1783,4.2293,4.2546,4.2925,4.36,4.4371,4.5184,4.5768,4.625,4.6636,4.6755,4.1945,4.071,4.1128,4.1968,4.2925,4.2214,4.2362,4.2755,4.1268,4.0586,4.0273,3.9478,3.9174,3.9821,3.9803,4.0152,4.0548,4.0877,4.0903,4.0757,4.0056,3.9171,3.8214,3.7144,3.6743,3.6621,3.6529,3.6481,3.6358,3.6165,3.5723,3.4774,3.4531,3.39,3.3155,3.2138,3.1126,3.0704,3.002,2.9094,2.8379,2.79,2.7539,2.6935,2.6311,2.5961,2.5659,2.5265,2.4638,2.3932,2.3134,2.2613,2.2391,2.2271,2.2211,2.1958,2.1358,2.0719,1.9922,1.9347,1.8776,1.8664,1.8552,1.8598,1.8418,1.8173,1.815,1.8084,1.7684,1.729,1.6562,1.5981,1.5242,1.4908,1.424,1.3929,1.3473,1.3251,1.3048,1.2995,1.3305,1.3759,1.4182,1.4748,1.5406,1.6504,1.7229,1.7635,1.7907,1.8348,1.8754,1.9511,2.012,2.0593,2.1378,2.287,2.4047,2.5948,2.8444,3.2693,3.6423,3.9266,4.0887,4.1787,4.242,4.2925,4.3177,4.3553,4.4446,4.5208,4.6035,4.6636,4.7231,4.7468,4.756]}]]